<?xml version="1.0" encoding="UTF-8" standalone="no" ?>
<gpx xmlns="http://www.topografix.com/GPX/1/1" xmlns:xsi="http://www.w3.org/2001/XMLSchema-instance" xsi:schemaLocation="http://www.topografix.com/GPX/1/1 http://www.topografix.com/GPX/1/1/gpx.xsd" version="1.1" creator="VisuGPX - https://www.visugpx.com">
  <metadata>
    <name>?27km</name>
  </metadata>
  <trk>
    <name><![CDATA[👽27km]]></name>
    <trkseg>
      <trkpt lat="49.56951" lon="-1.72686">
        <ele>103.675274</ele>
        <time>2021-11-21T09:03:41.441Z</time>
      </trkpt>
      <trkpt lat="49.56935" lon="-1.72763">
        <ele>103.675274</ele>
        <time>2021-11-21T09:04:50.903Z</time>
      </trkpt>
      <trkpt lat="49.56934" lon="-1.72779">
        <ele>103.675274</ele>
        <time>2021-11-21T09:04:53.052Z</time>
      </trkpt>
      <trkpt lat="49.56934" lon="-1.72794">
        <ele>103.675274</ele>
        <time>2021-11-21T09:04:56.035Z</time>
      </trkpt>
      <trkpt lat="49.56934" lon="-1.7281">
        <ele>103.675274</ele>
        <time>2021-11-21T09:04:59.766Z</time>
      </trkpt>
      <trkpt lat="49.56933" lon="-1.7283">
        <ele>104.126976</ele>
        <time>2021-11-21T09:05:04.039Z</time>
      </trkpt>
      <trkpt lat="49.56932" lon="-1.72849">
        <ele>105.112746</ele>
        <time>2021-11-21T09:05:08.025Z</time>
      </trkpt>
      <trkpt lat="49.56932" lon="-1.72865">
        <ele>105.898026</ele>
        <time>2021-11-21T09:05:10.666Z</time>
      </trkpt>
      <trkpt lat="49.56932" lon="-1.7288">
        <ele>106.678241</ele>
        <time>2021-11-21T09:05:12.650Z</time>
      </trkpt>
      <trkpt lat="49.56933" lon="-1.72896">
        <ele>107.495587</ele>
        <time>2021-11-21T09:05:15.052Z</time>
      </trkpt>
      <trkpt lat="49.56933" lon="-1.72913">
        <ele>108.351661</ele>
        <time>2021-11-21T09:05:17.550Z</time>
      </trkpt>
      <trkpt lat="49.56933" lon="-1.72928">
        <ele>109.116524</ele>
        <time>2021-11-21T09:05:20.486Z</time>
      </trkpt>
      <trkpt lat="49.56934" lon="-1.72943">
        <ele>109.885364</ele>
        <time>2021-11-21T09:05:23.843Z</time>
      </trkpt>
      <trkpt lat="49.56935" lon="-1.72958">
        <ele>110.620766</ele>
        <time>2021-11-21T09:05:26.223Z</time>
      </trkpt>
      <trkpt lat="49.56934" lon="-1.72974">
        <ele>111.459494</ele>
        <time>2021-11-21T09:05:28.847Z</time>
      </trkpt>
      <trkpt lat="49.56934" lon="-1.72991">
        <ele>112.306302</ele>
        <time>2021-11-21T09:05:31.707Z</time>
      </trkpt>
      <trkpt lat="49.56934" lon="-1.73006">
        <ele>113.096838</ele>
        <time>2021-11-21T09:05:34.607Z</time>
      </trkpt>
      <trkpt lat="49.56933" lon="-1.73021">
        <ele>113.864249</ele>
        <time>2021-11-21T09:05:37.794Z</time>
      </trkpt>
      <trkpt lat="49.56931" lon="-1.73042">
        <ele>114.933766</ele>
        <time>2021-11-21T09:05:40.728Z</time>
      </trkpt>
      <trkpt lat="49.56927" lon="-1.73063">
        <ele>116.035045</ele>
        <time>2021-11-21T09:05:44.066Z</time>
      </trkpt>
      <trkpt lat="49.56924" lon="-1.73081">
        <ele>116.963054</ele>
        <time>2021-11-21T09:05:47.049Z</time>
      </trkpt>
      <trkpt lat="49.5692" lon="-1.73097">
        <ele>117.720981</ele>
        <time>2021-11-21T09:05:50.056Z</time>
      </trkpt>
      <trkpt lat="49.56915" lon="-1.73113">
        <ele>117.695955</ele>
        <time>2021-11-21T09:05:52.708Z</time>
      </trkpt>
      <trkpt lat="49.56912" lon="-1.73126">
        <ele>117.67559</ele>
        <time>2021-11-21T09:05:55.041Z</time>
      </trkpt>
      <trkpt lat="49.56907" lon="-1.73139">
        <ele>117.65483</ele>
        <time>2021-11-21T09:05:57.910Z</time>
      </trkpt>
      <trkpt lat="49.56902" lon="-1.73152">
        <ele>117.632983</ele>
        <time>2021-11-21T09:06:01.248Z</time>
      </trkpt>
      <trkpt lat="49.56896" lon="-1.73167">
        <ele>117.609487</ele>
        <time>2021-11-21T09:06:04.529Z</time>
      </trkpt>
      <trkpt lat="49.56891" lon="-1.7318">
        <ele>117.587802</ele>
        <time>2021-11-21T09:06:07.729Z</time>
      </trkpt>
      <trkpt lat="49.56887" lon="-1.73193">
        <ele>117.567788</ele>
        <time>2021-11-21T09:06:11.048Z</time>
      </trkpt>
      <trkpt lat="49.56882" lon="-1.73205">
        <ele>117.5463</ele>
        <time>2021-11-21T09:06:14.506Z</time>
      </trkpt>
      <trkpt lat="49.56876" lon="-1.7322">
        <ele>117.522673</ele>
        <time>2021-11-21T09:06:17.908Z</time>
      </trkpt>
      <trkpt lat="49.56871" lon="-1.73234">
        <ele>117.500084</ele>
        <time>2021-11-21T09:06:20.059Z</time>
      </trkpt>
      <trkpt lat="49.56862" lon="-1.73261">
        <ele>117.457188</ele>
        <time>2021-11-21T09:06:22.063Z</time>
      </trkpt>
      <trkpt lat="49.56855" lon="-1.73281">
        <ele>117.426156</ele>
        <time>2021-11-21T09:06:24.043Z</time>
      </trkpt>
      <trkpt lat="49.56847" lon="-1.73302">
        <ele>117.391519</ele>
        <time>2021-11-21T09:06:27.057Z</time>
      </trkpt>
      <trkpt lat="49.56842" lon="-1.73318">
        <ele>117.366431</ele>
        <time>2021-11-21T09:06:29.046Z</time>
      </trkpt>
      <trkpt lat="49.56837" lon="-1.73332">
        <ele>117.344168</ele>
        <time>2021-11-21T09:06:31.056Z</time>
      </trkpt>
      <trkpt lat="49.56828" lon="-1.73354">
        <ele>116.96616</ele>
        <time>2021-11-21T09:06:34.060Z</time>
      </trkpt>
      <trkpt lat="49.56821" lon="-1.73372">
        <ele>116.537671</ele>
        <time>2021-11-21T09:06:36.055Z</time>
      </trkpt>
      <trkpt lat="49.56815" lon="-1.73389">
        <ele>116.13664</ele>
        <time>2021-11-21T09:06:38.055Z</time>
      </trkpt>
      <trkpt lat="49.56807" lon="-1.73404">
        <ele>115.767993</ele>
        <time>2021-11-21T09:06:40.043Z</time>
      </trkpt>
      <trkpt lat="49.56799" lon="-1.73419">
        <ele>115.377145</ele>
        <time>2021-11-21T09:06:42.053Z</time>
      </trkpt>
      <trkpt lat="49.5679" lon="-1.73433">
        <ele>114.973544</ele>
        <time>2021-11-21T09:06:44.043Z</time>
      </trkpt>
      <trkpt lat="49.56781" lon="-1.73448">
        <ele>114.583262</ele>
        <time>2021-11-21T09:06:46.041Z</time>
      </trkpt>
      <trkpt lat="49.56774" lon="-1.73462">
        <ele>114.22715</ele>
        <time>2021-11-21T09:06:48.037Z</time>
      </trkpt>
      <trkpt lat="49.56767" lon="-1.73477">
        <ele>113.845707</ele>
        <time>2021-11-21T09:06:50.068Z</time>
      </trkpt>
      <trkpt lat="49.56759" lon="-1.73492">
        <ele>113.470951</ele>
        <time>2021-11-21T09:06:52.037Z</time>
      </trkpt>
      <trkpt lat="49.5675" lon="-1.73506">
        <ele>113.063527</ele>
        <time>2021-11-21T09:06:54.036Z</time>
      </trkpt>
      <trkpt lat="49.56739" lon="-1.73521">
        <ele>112.610848</ele>
        <time>2021-11-21T09:06:56.046Z</time>
      </trkpt>
      <trkpt lat="49.56727" lon="-1.73538">
        <ele>112.124231</ele>
        <time>2021-11-21T09:06:58.050Z</time>
      </trkpt>
      <trkpt lat="49.56716" lon="-1.73556">
        <ele>111.622151</ele>
        <time>2021-11-21T09:07:00.046Z</time>
      </trkpt>
      <trkpt lat="49.56704" lon="-1.73574">
        <ele>111.154067</ele>
        <time>2021-11-21T09:07:02.050Z</time>
      </trkpt>
      <trkpt lat="49.56694" lon="-1.73588">
        <ele>110.749095</ele>
        <time>2021-11-21T09:07:04.058Z</time>
      </trkpt>
      <trkpt lat="49.56685" lon="-1.73602">
        <ele>110.373434</ele>
        <time>2021-11-21T09:07:06.044Z</time>
      </trkpt>
      <trkpt lat="49.56676" lon="-1.73616">
        <ele>109.997772</ele>
        <time>2021-11-21T09:07:08.037Z</time>
      </trkpt>
      <trkpt lat="49.56666" lon="-1.73629">
        <ele>109.64037</ele>
        <time>2021-11-21T09:07:10.041Z</time>
      </trkpt>
      <trkpt lat="49.56658" lon="-1.73643">
        <ele>109.276797</ele>
        <time>2021-11-21T09:07:12.056Z</time>
      </trkpt>
      <trkpt lat="49.5665" lon="-1.73657">
        <ele>108.921869</ele>
        <time>2021-11-21T09:07:14.047Z</time>
      </trkpt>
      <trkpt lat="49.56643" lon="-1.73671">
        <ele>108.592184</ele>
        <time>2021-11-21T09:07:16.058Z</time>
      </trkpt>
      <trkpt lat="49.56636" lon="-1.73687">
        <ele>108.240084</ele>
        <time>2021-11-21T09:07:18.046Z</time>
      </trkpt>
      <trkpt lat="49.56629" lon="-1.73698">
        <ele>107.939212</ele>
        <time>2021-11-21T09:07:20.055Z</time>
      </trkpt>
      <trkpt lat="49.56617" lon="-1.73703">
        <ele>107.589291</ele>
        <time>2021-11-21T09:07:23.046Z</time>
      </trkpt>
      <trkpt lat="49.56608" lon="-1.73697">
        <ele>107.299453</ele>
        <time>2021-11-21T09:07:25.059Z</time>
      </trkpt>
      <trkpt lat="49.566" lon="-1.73685">
        <ele>106.964119</ele>
        <time>2021-11-21T09:07:27.051Z</time>
      </trkpt>
      <trkpt lat="49.56594" lon="-1.7367">
        <ele>106.644918</ele>
        <time>2021-11-21T09:07:29.039Z</time>
      </trkpt>
      <trkpt lat="49.56588" lon="-1.73657">
        <ele>106.728025</ele>
        <time>2021-11-21T09:07:31.041Z</time>
      </trkpt>
      <trkpt lat="49.56582" lon="-1.73646">
        <ele>106.928442</ele>
        <time>2021-11-21T09:07:33.037Z</time>
      </trkpt>
      <trkpt lat="49.56574" lon="-1.73636">
        <ele>107.125526</ele>
        <time>2021-11-21T09:07:35.061Z</time>
      </trkpt>
      <trkpt lat="49.56566" lon="-1.73628">
        <ele>107.334419</ele>
        <time>2021-11-21T09:07:37.037Z</time>
      </trkpt>
      <trkpt lat="49.56556" lon="-1.73621">
        <ele>107.549167</ele>
        <time>2021-11-21T09:07:39.060Z</time>
      </trkpt>
      <trkpt lat="49.56546" lon="-1.73616">
        <ele>107.756526</ele>
        <time>2021-11-21T09:07:41.052Z</time>
      </trkpt>
      <trkpt lat="49.56537" lon="-1.73611">
        <ele>107.96179</ele>
        <time>2021-11-21T09:07:43.056Z</time>
      </trkpt>
      <trkpt lat="49.56527" lon="-1.73608">
        <ele>108.160538</ele>
        <time>2021-11-21T09:07:45.062Z</time>
      </trkpt>
      <trkpt lat="49.56517" lon="-1.73606">
        <ele>108.365712</ele>
        <time>2021-11-21T09:07:47.034Z</time>
      </trkpt>
      <trkpt lat="49.56508" lon="-1.73605">
        <ele>108.563829</ele>
        <time>2021-11-21T09:07:49.055Z</time>
      </trkpt>
      <trkpt lat="49.56498" lon="-1.73604">
        <ele>108.763652</ele>
        <time>2021-11-21T09:07:51.055Z</time>
      </trkpt>
      <trkpt lat="49.56488" lon="-1.73606">
        <ele>108.966802</ele>
        <time>2021-11-21T09:07:53.051Z</time>
      </trkpt>
      <trkpt lat="49.56479" lon="-1.7361">
        <ele>109.152587</ele>
        <time>2021-11-21T09:07:55.041Z</time>
      </trkpt>
      <trkpt lat="49.56469" lon="-1.73615">
        <ele>109.37382</ele>
        <time>2021-11-21T09:07:58.036Z</time>
      </trkpt>
      <trkpt lat="49.56457" lon="-1.7362">
        <ele>109.62416</ele>
        <time>2021-11-21T09:08:00.907Z</time>
      </trkpt>
      <trkpt lat="49.56444" lon="-1.73624">
        <ele>109.886058</ele>
        <time>2021-11-21T09:08:03.963Z</time>
      </trkpt>
      <trkpt lat="49.56432" lon="-1.73626">
        <ele>110.128444</ele>
        <time>2021-11-21T09:08:06.630Z</time>
      </trkpt>
      <trkpt lat="49.56423" lon="-1.73625">
        <ele>110.354159</ele>
        <time>2021-11-21T09:08:08.825Z</time>
      </trkpt>
      <trkpt lat="49.56412" lon="-1.73623">
        <ele>110.640813</ele>
        <time>2021-11-21T09:08:11.742Z</time>
      </trkpt>
      <trkpt lat="49.56402" lon="-1.73621">
        <ele>110.900494</ele>
        <time>2021-11-21T09:08:15.003Z</time>
      </trkpt>
      <trkpt lat="49.56394" lon="-1.73615">
        <ele>111.144567</ele>
        <time>2021-11-21T09:08:18.765Z</time>
      </trkpt>
      <trkpt lat="49.56385" lon="-1.73608">
        <ele>111.397732</ele>
        <time>2021-11-21T09:08:22.513Z</time>
      </trkpt>
      <trkpt lat="49.56382" lon="-1.73595">
        <ele>111.638381</ele>
        <time>2021-11-21T09:08:27.056Z</time>
      </trkpt>
      <trkpt lat="49.56372" lon="-1.73596">
        <ele>111.889513</ele>
        <time>2021-11-21T09:08:33.948Z</time>
      </trkpt>
      <trkpt lat="49.56366" lon="-1.73608">
        <ele>112.158787</ele>
        <time>2021-11-21T09:08:39.066Z</time>
      </trkpt>
      <trkpt lat="49.56356" lon="-1.73611">
        <ele>112.433299</ele>
        <time>2021-11-21T09:08:53.984Z</time>
      </trkpt>
      <trkpt lat="49.56347" lon="-1.73606">
        <ele>112.691449</ele>
        <time>2021-11-21T09:08:56.864Z</time>
      </trkpt>
      <trkpt lat="49.56337" lon="-1.73603">
        <ele>112.955956</ele>
        <time>2021-11-21T09:08:58.924Z</time>
      </trkpt>
      <trkpt lat="49.56326" lon="-1.73601">
        <ele>113.251461</ele>
        <time>2021-11-21T09:09:01.649Z</time>
      </trkpt>
      <trkpt lat="49.56314" lon="-1.73599">
        <ele>113.557042</ele>
        <time>2021-11-21T09:09:04.905Z</time>
      </trkpt>
      <trkpt lat="49.56305" lon="-1.73597">
        <ele>113.801705</ele>
        <time>2021-11-21T09:09:08.000Z</time>
      </trkpt>
      <trkpt lat="49.56295" lon="-1.73594">
        <ele>114.060692</ele>
        <time>2021-11-21T09:09:11.865Z</time>
      </trkpt>
      <trkpt lat="49.56285" lon="-1.73596">
        <ele>114.329358</ele>
        <time>2021-11-21T09:09:15.847Z</time>
      </trkpt>
      <trkpt lat="49.56276" lon="-1.73598">
        <ele>114.571011</ele>
        <time>2021-11-21T09:09:19.543Z</time>
      </trkpt>
      <trkpt lat="49.56266" lon="-1.73601">
        <ele>114.847791</ele>
        <time>2021-11-21T09:09:23.045Z</time>
      </trkpt>
      <trkpt lat="49.56256" lon="-1.73603">
        <ele>115.369584</ele>
        <time>2021-11-21T09:09:26.042Z</time>
      </trkpt>
      <trkpt lat="49.56246" lon="-1.73604">
        <ele>116.177646</ele>
        <time>2021-11-21T09:09:28.654Z</time>
      </trkpt>
      <trkpt lat="49.56235" lon="-1.73604">
        <ele>116.977371</ele>
        <time>2021-11-21T09:09:31.655Z</time>
      </trkpt>
      <trkpt lat="49.56226" lon="-1.73603">
        <ele>117.753872</ele>
        <time>2021-11-21T09:09:34.609Z</time>
      </trkpt>
      <trkpt lat="49.56217" lon="-1.73595">
        <ele>118.545897</ele>
        <time>2021-11-21T09:09:38.651Z</time>
      </trkpt>
      <trkpt lat="49.56214" lon="-1.7358">
        <ele>119.363339</ele>
        <time>2021-11-21T09:09:42.757Z</time>
      </trkpt>
      <trkpt lat="49.56212" lon="-1.73563">
        <ele>120.219726</ele>
        <time>2021-11-21T09:09:46.043Z</time>
      </trkpt>
      <trkpt lat="49.56211" lon="-1.73545">
        <ele>121.145806</ele>
        <time>2021-11-21T09:09:49.590Z</time>
      </trkpt>
      <trkpt lat="49.5621" lon="-1.73527">
        <ele>122.083267</ele>
        <time>2021-11-21T09:09:52.673Z</time>
      </trkpt>
      <trkpt lat="49.56208" lon="-1.73508">
        <ele>123.018552</ele>
        <time>2021-11-21T09:09:56.054Z</time>
      </trkpt>
      <trkpt lat="49.56207" lon="-1.73489">
        <ele>124.008083</ele>
        <time>2021-11-21T09:09:59.656Z</time>
      </trkpt>
      <trkpt lat="49.56206" lon="-1.7347">
        <ele>124.961355</ele>
        <time>2021-11-21T09:10:02.954Z</time>
      </trkpt>
      <trkpt lat="49.56205" lon="-1.73454">
        <ele>125.784988</ele>
        <time>2021-11-21T09:10:06.046Z</time>
      </trkpt>
      <trkpt lat="49.56205" lon="-1.73439">
        <ele>126.542343</ele>
        <time>2021-11-21T09:10:08.670Z</time>
      </trkpt>
      <trkpt lat="49.56204" lon="-1.73424">
        <ele>127.311187</ele>
        <time>2021-11-21T09:10:11.691Z</time>
      </trkpt>
      <trkpt lat="49.56201" lon="-1.73409">
        <ele>128.094262</ele>
        <time>2021-11-21T09:10:14.650Z</time>
      </trkpt>
      <trkpt lat="49.56198" lon="-1.73394">
        <ele>128.915824</ele>
        <time>2021-11-21T09:10:18.066Z</time>
      </trkpt>
      <trkpt lat="49.56188" lon="-1.73389">
        <ele>128.953681</ele>
        <time>2021-11-21T09:10:23.707Z</time>
      </trkpt>
      <trkpt lat="49.56178" lon="-1.73394">
        <ele>128.816595</ele>
        <time>2021-11-21T09:10:25.886Z</time>
      </trkpt>
      <trkpt lat="49.56165" lon="-1.73399">
        <ele>128.636419</ele>
        <time>2021-11-21T09:10:28.832Z</time>
      </trkpt>
      <trkpt lat="49.56155" lon="-1.73402">
        <ele>128.503216</ele>
        <time>2021-11-21T09:10:31.033Z</time>
      </trkpt>
      <trkpt lat="49.56146" lon="-1.73406">
        <ele>128.377116</ele>
        <time>2021-11-21T09:10:33.041Z</time>
      </trkpt>
      <trkpt lat="49.56135" lon="-1.7341">
        <ele>128.224371</ele>
        <time>2021-11-21T09:10:35.673Z</time>
      </trkpt>
      <trkpt lat="49.56123" lon="-1.73413">
        <ele>128.06967</ele>
        <time>2021-11-21T09:10:38.894Z</time>
      </trkpt>
      <trkpt lat="49.56113" lon="-1.73416">
        <ele>127.923597</ele>
        <time>2021-11-21T09:10:41.830Z</time>
      </trkpt>
      <trkpt lat="49.56101" lon="-1.73418">
        <ele>127.766127</ele>
        <time>2021-11-21T09:10:44.059Z</time>
      </trkpt>
      <trkpt lat="49.56089" lon="-1.7342">
        <ele>127.611803</ele>
        <time>2021-11-21T09:10:46.064Z</time>
      </trkpt>
      <trkpt lat="49.56077" lon="-1.73421">
        <ele>127.448534</ele>
        <time>2021-11-21T09:10:48.049Z</time>
      </trkpt>
      <trkpt lat="49.56065" lon="-1.73422">
        <ele>127.286708</ele>
        <time>2021-11-21T09:10:50.054Z</time>
      </trkpt>
      <trkpt lat="49.56052" lon="-1.73423">
        <ele>127.116779</ele>
        <time>2021-11-21T09:10:52.051Z</time>
      </trkpt>
      <trkpt lat="49.56039" lon="-1.73426">
        <ele>126.943503</ele>
        <time>2021-11-21T09:10:54.043Z</time>
      </trkpt>
      <trkpt lat="49.56026" lon="-1.73427">
        <ele>126.762915</ele>
        <time>2021-11-21T09:10:56.040Z</time>
      </trkpt>
      <trkpt lat="49.56012" lon="-1.73429">
        <ele>126.421518</ele>
        <time>2021-11-21T09:10:58.057Z</time>
      </trkpt>
      <trkpt lat="49.55997" lon="-1.73434">
        <ele>125.907496</ele>
        <time>2021-11-21T09:11:00.059Z</time>
      </trkpt>
      <trkpt lat="49.55983" lon="-1.73441">
        <ele>125.37456</ele>
        <time>2021-11-21T09:11:02.055Z</time>
      </trkpt>
      <trkpt lat="49.55969" lon="-1.73452">
        <ele>124.834734</ele>
        <time>2021-11-21T09:11:04.038Z</time>
      </trkpt>
      <trkpt lat="49.55958" lon="-1.73468">
        <ele>124.304187</ele>
        <time>2021-11-21T09:11:06.060Z</time>
      </trkpt>
      <trkpt lat="49.55951" lon="-1.73489">
        <ele>123.766092</ele>
        <time>2021-11-21T09:11:08.049Z</time>
      </trkpt>
      <trkpt lat="49.55946" lon="-1.73513">
        <ele>123.207601</ele>
        <time>2021-11-21T09:11:10.039Z</time>
      </trkpt>
      <trkpt lat="49.55938" lon="-1.7353">
        <ele>122.716051</ele>
        <time>2021-11-21T09:11:12.057Z</time>
      </trkpt>
      <trkpt lat="49.55924" lon="-1.73538">
        <ele>122.217404</ele>
        <time>2021-11-21T09:11:14.059Z</time>
      </trkpt>
      <trkpt lat="49.55911" lon="-1.73547">
        <ele>121.729035</ele>
        <time>2021-11-21T09:11:16.048Z</time>
      </trkpt>
      <trkpt lat="49.559" lon="-1.73558">
        <ele>121.262524</ele>
        <time>2021-11-21T09:11:18.040Z</time>
      </trkpt>
      <trkpt lat="49.55889" lon="-1.7357">
        <ele>120.799467</ele>
        <time>2021-11-21T09:11:20.057Z</time>
      </trkpt>
      <trkpt lat="49.55878" lon="-1.7358">
        <ele>120.461281</ele>
        <time>2021-11-21T09:11:22.041Z</time>
      </trkpt>
      <trkpt lat="49.55867" lon="-1.7359">
        <ele>120.760299</ele>
        <time>2021-11-21T09:11:24.052Z</time>
      </trkpt>
      <trkpt lat="49.55856" lon="-1.73594">
        <ele>121.036461</ele>
        <time>2021-11-21T09:11:28.056Z</time>
      </trkpt>
      <trkpt lat="49.55851" lon="-1.73578">
        <ele>121.32115</ele>
        <time>2021-11-21T09:11:31.043Z</time>
      </trkpt>
      <trkpt lat="49.55846" lon="-1.73564">
        <ele>121.571023</ele>
        <time>2021-11-21T09:11:33.796Z</time>
      </trkpt>
      <trkpt lat="49.5584" lon="-1.73549">
        <ele>121.846926</ele>
        <time>2021-11-21T09:11:36.760Z</time>
      </trkpt>
      <trkpt lat="49.55836" lon="-1.73533">
        <ele>122.109413</ele>
        <time>2021-11-21T09:11:39.468Z</time>
      </trkpt>
      <trkpt lat="49.55833" lon="-1.7352">
        <ele>122.337894</ele>
        <time>2021-11-21T09:11:41.962Z</time>
      </trkpt>
      <trkpt lat="49.55829" lon="-1.73505">
        <ele>122.591691</ele>
        <time>2021-11-21T09:11:44.501Z</time>
      </trkpt>
      <trkpt lat="49.55825" lon="-1.73489">
        <ele>122.851258</ele>
        <time>2021-11-21T09:11:47.052Z</time>
      </trkpt>
      <trkpt lat="49.5582" lon="-1.73473">
        <ele>123.137823</ele>
        <time>2021-11-21T09:11:49.901Z</time>
      </trkpt>
      <trkpt lat="49.55815" lon="-1.73455">
        <ele>123.448829</ele>
        <time>2021-11-21T09:11:53.065Z</time>
      </trkpt>
      <trkpt lat="49.55812" lon="-1.73441">
        <ele>123.688163</ele>
        <time>2021-11-21T09:11:55.781Z</time>
      </trkpt>
      <trkpt lat="49.55808" lon="-1.73424">
        <ele>123.956842</ele>
        <time>2021-11-21T09:11:58.939Z</time>
      </trkpt>
      <trkpt lat="49.55806" lon="-1.7341">
        <ele>124.198113</ele>
        <time>2021-11-21T09:12:01.982Z</time>
      </trkpt>
      <trkpt lat="49.55804" lon="-1.73395">
        <ele>124.425328</ele>
        <time>2021-11-21T09:12:04.648Z</time>
      </trkpt>
      <trkpt lat="49.55802" lon="-1.73381">
        <ele>124.662713</ele>
        <time>2021-11-21T09:12:07.506Z</time>
      </trkpt>
      <trkpt lat="49.55801" lon="-1.73364">
        <ele>125.080828</ele>
        <time>2021-11-21T09:12:10.603Z</time>
      </trkpt>
      <trkpt lat="49.55798" lon="-1.7335">
        <ele>125.558992</ele>
        <time>2021-11-21T09:12:13.648Z</time>
      </trkpt>
      <trkpt lat="49.55796" lon="-1.73335">
        <ele>126.080553</ele>
        <time>2021-11-21T09:12:16.523Z</time>
      </trkpt>
      <trkpt lat="49.55793" lon="-1.73316">
        <ele>126.683134</ele>
        <time>2021-11-21T09:12:20.822Z</time>
      </trkpt>
      <trkpt lat="49.55792" lon="-1.73302">
        <ele>127.16753</ele>
        <time>2021-11-21T09:12:24.006Z</time>
      </trkpt>
      <trkpt lat="49.55789" lon="-1.73286">
        <ele>127.698029</ele>
        <time>2021-11-21T09:12:27.062Z</time>
      </trkpt>
      <trkpt lat="49.55784" lon="-1.7327">
        <ele>128.26291</ele>
        <time>2021-11-21T09:12:29.769Z</time>
      </trkpt>
      <trkpt lat="49.55779" lon="-1.73251">
        <ele>128.935206</ele>
        <time>2021-11-21T09:12:32.990Z</time>
      </trkpt>
      <trkpt lat="49.55774" lon="-1.73236">
        <ele>129.491241</ele>
        <time>2021-11-21T09:12:35.483Z</time>
      </trkpt>
      <trkpt lat="49.55768" lon="-1.73219">
        <ele>130.109229</ele>
        <time>2021-11-21T09:12:38.744Z</time>
      </trkpt>
      <trkpt lat="49.55763" lon="-1.73203">
        <ele>130.673277</ele>
        <time>2021-11-21T09:12:42.023Z</time>
      </trkpt>
      <trkpt lat="49.55758" lon="-1.73186">
        <ele>131.30084</ele>
        <time>2021-11-21T09:12:45.726Z</time>
      </trkpt>
      <trkpt lat="49.55754" lon="-1.73172">
        <ele>131.781561</ele>
        <time>2021-11-21T09:12:48.447Z</time>
      </trkpt>
      <trkpt lat="49.55751" lon="-1.73158">
        <ele>132.267374</ele>
        <time>2021-11-21T09:12:51.731Z</time>
      </trkpt>
      <trkpt lat="49.55746" lon="-1.73143">
        <ele>132.80237</ele>
        <time>2021-11-21T09:12:54.788Z</time>
      </trkpt>
      <trkpt lat="49.55743" lon="-1.73129">
        <ele>133.297523</ele>
        <time>2021-11-21T09:12:57.606Z</time>
      </trkpt>
      <trkpt lat="49.55737" lon="-1.73111">
        <ele>133.898866</ele>
        <time>2021-11-21T09:13:01.053Z</time>
      </trkpt>
      <trkpt lat="49.55732" lon="-1.73098">
        <ele>134.2514</ele>
        <time>2021-11-21T09:13:03.530Z</time>
      </trkpt>
      <trkpt lat="49.55727" lon="-1.73084">
        <ele>134.64959</ele>
        <time>2021-11-21T09:13:06.465Z</time>
      </trkpt>
      <trkpt lat="49.55721" lon="-1.73069">
        <ele>135.063442</ele>
        <time>2021-11-21T09:13:09.684Z</time>
      </trkpt>
      <trkpt lat="49.55716" lon="-1.73056">
        <ele>135.440833</ele>
        <time>2021-11-21T09:13:12.605Z</time>
      </trkpt>
      <trkpt lat="49.55709" lon="-1.73043">
        <ele>135.831633</ele>
        <time>2021-11-21T09:13:15.587Z</time>
      </trkpt>
      <trkpt lat="49.55703" lon="-1.73031">
        <ele>136.186586</ele>
        <time>2021-11-21T09:13:18.233Z</time>
      </trkpt>
      <trkpt lat="49.55695" lon="-1.73017">
        <ele>136.642807</ele>
        <time>2021-11-21T09:13:21.662Z</time>
      </trkpt>
      <trkpt lat="49.55688" lon="-1.73003">
        <ele>137.067604</ele>
        <time>2021-11-21T09:13:24.764Z</time>
      </trkpt>
      <trkpt lat="49.55683" lon="-1.72992">
        <ele>137.402147</ele>
        <time>2021-11-21T09:13:26.962Z</time>
      </trkpt>
      <trkpt lat="49.55674" lon="-1.72977">
        <ele>137.866933</ele>
        <time>2021-11-21T09:13:29.905Z</time>
      </trkpt>
      <trkpt lat="49.55667" lon="-1.72966">
        <ele>138.256369</ele>
        <time>2021-11-21T09:13:32.466Z</time>
      </trkpt>
      <trkpt lat="49.55659" lon="-1.72957">
        <ele>138.623</ele>
        <time>2021-11-21T09:13:34.983Z</time>
      </trkpt>
      <trkpt lat="49.5565" lon="-1.72948">
        <ele>139.019197</ele>
        <time>2021-11-21T09:13:37.846Z</time>
      </trkpt>
      <trkpt lat="49.5564" lon="-1.72939">
        <ele>139.447482</ele>
        <time>2021-11-21T09:13:40.508Z</time>
      </trkpt>
      <trkpt lat="49.5563" lon="-1.7293">
        <ele>139.878586</ele>
        <time>2021-11-21T09:13:43.482Z</time>
      </trkpt>
      <trkpt lat="49.55621" lon="-1.72923">
        <ele>140.246028</ele>
        <time>2021-11-21T09:13:46.051Z</time>
      </trkpt>
      <trkpt lat="49.55613" lon="-1.72916">
        <ele>140.502499</ele>
        <time>2021-11-21T09:13:48.442Z</time>
      </trkpt>
      <trkpt lat="49.556" lon="-1.72905">
        <ele>140.761477</ele>
        <time>2021-11-21T09:13:51.930Z</time>
      </trkpt>
      <trkpt lat="49.55591" lon="-1.72897">
        <ele>140.952565</ele>
        <time>2021-11-21T09:13:54.728Z</time>
      </trkpt>
      <trkpt lat="49.55584" lon="-1.7289">
        <ele>141.124108</ele>
        <time>2021-11-21T09:13:57.546Z</time>
      </trkpt>
      <trkpt lat="49.55574" lon="-1.72881">
        <ele>141.325179</ele>
        <time>2021-11-21T09:14:00.641Z</time>
      </trkpt>
      <trkpt lat="49.55563" lon="-1.72872">
        <ele>141.565343</ele>
        <time>2021-11-21T09:14:03.847Z</time>
      </trkpt>
      <trkpt lat="49.55552" lon="-1.72864">
        <ele>141.776032</ele>
        <time>2021-11-21T09:14:06.506Z</time>
      </trkpt>
      <trkpt lat="49.5554" lon="-1.72852">
        <ele>142.049298</ele>
        <time>2021-11-21T09:14:09.053Z</time>
      </trkpt>
      <trkpt lat="49.55524" lon="-1.72835">
        <ele>142.397526</ele>
        <time>2021-11-21T09:14:13.054Z</time>
      </trkpt>
      <trkpt lat="49.55514" lon="-1.72827">
        <ele>142.607783</ele>
        <time>2021-11-21T09:14:15.045Z</time>
      </trkpt>
      <trkpt lat="49.55505" lon="-1.72819">
        <ele>142.803859</ele>
        <time>2021-11-21T09:14:17.040Z</time>
      </trkpt>
      <trkpt lat="49.55496" lon="-1.72811">
        <ele>142.990769</ele>
        <time>2021-11-21T09:14:19.051Z</time>
      </trkpt>
      <trkpt lat="49.55488" lon="-1.72803">
        <ele>143.162295</ele>
        <time>2021-11-21T09:14:21.056Z</time>
      </trkpt>
      <trkpt lat="49.55477" lon="-1.72791">
        <ele>143.414437</ele>
        <time>2021-11-21T09:14:24.052Z</time>
      </trkpt>
      <trkpt lat="49.5547" lon="-1.72782">
        <ele>143.58542</ele>
        <time>2021-11-21T09:14:26.057Z</time>
      </trkpt>
      <trkpt lat="49.55462" lon="-1.72772">
        <ele>143.719553</ele>
        <time>2021-11-21T09:14:28.715Z</time>
      </trkpt>
      <trkpt lat="49.55452" lon="-1.7276">
        <ele>143.618371</ele>
        <time>2021-11-21T09:14:31.064Z</time>
      </trkpt>
      <trkpt lat="49.55443" lon="-1.72751">
        <ele>143.534525</ele>
        <time>2021-11-21T09:14:33.061Z</time>
      </trkpt>
      <trkpt lat="49.5543" lon="-1.72738">
        <ele>143.411393</ele>
        <time>2021-11-21T09:14:37.038Z</time>
      </trkpt>
      <trkpt lat="49.5542" lon="-1.7273">
        <ele>143.323248</ele>
        <time>2021-11-21T09:14:39.047Z</time>
      </trkpt>
      <trkpt lat="49.55412" lon="-1.72719">
        <ele>143.238349</ele>
        <time>2021-11-21T09:14:41.658Z</time>
      </trkpt>
      <trkpt lat="49.55403" lon="-1.72711">
        <ele>143.152522</ele>
        <time>2021-11-21T09:14:44.056Z</time>
      </trkpt>
      <trkpt lat="49.55394" lon="-1.72705">
        <ele>143.072999</ele>
        <time>2021-11-21T09:14:46.677Z</time>
      </trkpt>
      <trkpt lat="49.55383" lon="-1.72695">
        <ele>142.978065</ele>
        <time>2021-11-21T09:14:49.053Z</time>
      </trkpt>
      <trkpt lat="49.55374" lon="-1.72687">
        <ele>142.892494</ele>
        <time>2021-11-21T09:14:51.670Z</time>
      </trkpt>
      <trkpt lat="49.55364" lon="-1.72677">
        <ele>142.799597</ele>
        <time>2021-11-21T09:14:54.062Z</time>
      </trkpt>
      <trkpt lat="49.55355" lon="-1.72669">
        <ele>142.717261</ele>
        <time>2021-11-21T09:14:56.039Z</time>
      </trkpt>
      <trkpt lat="49.55347" lon="-1.72658">
        <ele>142.634493</ele>
        <time>2021-11-21T09:14:58.053Z</time>
      </trkpt>
      <trkpt lat="49.5534" lon="-1.72648">
        <ele>142.559812</ele>
        <time>2021-11-21T09:15:00.063Z</time>
      </trkpt>
      <trkpt lat="49.55332" lon="-1.72638">
        <ele>142.475694</ele>
        <time>2021-11-21T09:15:02.061Z</time>
      </trkpt>
      <trkpt lat="49.55324" lon="-1.72623">
        <ele>142.381317</ele>
        <time>2021-11-21T09:15:05.051Z</time>
      </trkpt>
      <trkpt lat="49.55317" lon="-1.72612">
        <ele>142.273717</ele>
        <time>2021-11-21T09:15:07.573Z</time>
      </trkpt>
      <trkpt lat="49.55307" lon="-1.72603">
        <ele>142.045354</ele>
        <time>2021-11-21T09:15:10.048Z</time>
      </trkpt>
      <trkpt lat="49.55299" lon="-1.72588">
        <ele>141.772899</ele>
        <time>2021-11-21T09:15:13.018Z</time>
      </trkpt>
      <trkpt lat="49.55291" lon="-1.72578">
        <ele>141.574371</ele>
        <time>2021-11-21T09:15:14.987Z</time>
      </trkpt>
      <trkpt lat="49.55284" lon="-1.72562">
        <ele>141.323671</ele>
        <time>2021-11-21T09:15:17.045Z</time>
      </trkpt>
      <trkpt lat="49.55278" lon="-1.72549">
        <ele>141.108335</ele>
        <time>2021-11-21T09:15:19.050Z</time>
      </trkpt>
      <trkpt lat="49.55272" lon="-1.72535">
        <ele>140.887186</ele>
        <time>2021-11-21T09:15:21.043Z</time>
      </trkpt>
      <trkpt lat="49.55266" lon="-1.72521">
        <ele>140.658514</ele>
        <time>2021-11-21T09:15:23.045Z</time>
      </trkpt>
      <trkpt lat="49.55259" lon="-1.72506">
        <ele>140.425264</ele>
        <time>2021-11-21T09:15:25.045Z</time>
      </trkpt>
      <trkpt lat="49.55252" lon="-1.72492">
        <ele>140.187192</ele>
        <time>2021-11-21T09:15:27.040Z</time>
      </trkpt>
      <trkpt lat="49.55244" lon="-1.72477">
        <ele>139.940371</ele>
        <time>2021-11-21T09:15:29.038Z</time>
      </trkpt>
      <trkpt lat="49.55237" lon="-1.72461">
        <ele>139.6829</ele>
        <time>2021-11-21T09:15:31.047Z</time>
      </trkpt>
      <trkpt lat="49.55229" lon="-1.72445">
        <ele>139.422409</ele>
        <time>2021-11-21T09:15:33.043Z</time>
      </trkpt>
      <trkpt lat="49.55221" lon="-1.7243">
        <ele>139.156078</ele>
        <time>2021-11-21T09:15:35.051Z</time>
      </trkpt>
      <trkpt lat="49.55213" lon="-1.72414">
        <ele>138.893069</ele>
        <time>2021-11-21T09:15:37.048Z</time>
      </trkpt>
      <trkpt lat="49.55205" lon="-1.72398">
        <ele>138.601677</ele>
        <time>2021-11-21T09:15:39.047Z</time>
      </trkpt>
      <trkpt lat="49.55197" lon="-1.72383">
        <ele>138.119578</ele>
        <time>2021-11-21T09:15:41.053Z</time>
      </trkpt>
      <trkpt lat="49.55189" lon="-1.72368">
        <ele>137.638587</ele>
        <time>2021-11-21T09:15:43.036Z</time>
      </trkpt>
      <trkpt lat="49.55182" lon="-1.72352">
        <ele>137.138626</ele>
        <time>2021-11-21T09:15:45.052Z</time>
      </trkpt>
      <trkpt lat="49.55174" lon="-1.72335">
        <ele>136.624356</ele>
        <time>2021-11-21T09:15:47.056Z</time>
      </trkpt>
      <trkpt lat="49.55166" lon="-1.72317">
        <ele>136.093526</ele>
        <time>2021-11-21T09:15:49.042Z</time>
      </trkpt>
      <trkpt lat="49.55158" lon="-1.72299">
        <ele>135.535648</ele>
        <time>2021-11-21T09:15:51.041Z</time>
      </trkpt>
      <trkpt lat="49.55149" lon="-1.7228">
        <ele>134.971869</ele>
        <time>2021-11-21T09:15:53.041Z</time>
      </trkpt>
      <trkpt lat="49.55143" lon="-1.72259">
        <ele>134.388807</ele>
        <time>2021-11-21T09:15:55.065Z</time>
      </trkpt>
      <trkpt lat="49.55137" lon="-1.72236">
        <ele>133.799923</ele>
        <time>2021-11-21T09:15:57.050Z</time>
      </trkpt>
      <trkpt lat="49.55131" lon="-1.72213">
        <ele>133.183154</ele>
        <time>2021-11-21T09:15:59.058Z</time>
      </trkpt>
      <trkpt lat="49.55124" lon="-1.7219">
        <ele>132.530381</ele>
        <time>2021-11-21T09:16:01.044Z</time>
      </trkpt>
      <trkpt lat="49.55117" lon="-1.72166">
        <ele>131.892684</ele>
        <time>2021-11-21T09:16:03.051Z</time>
      </trkpt>
      <trkpt lat="49.5511" lon="-1.72144">
        <ele>131.283611</ele>
        <time>2021-11-21T09:16:05.055Z</time>
      </trkpt>
      <trkpt lat="49.55101" lon="-1.72119">
        <ele>130.571712</ele>
        <time>2021-11-21T09:16:07.043Z</time>
      </trkpt>
      <trkpt lat="49.55097" lon="-1.72105">
        <ele>130.198348</ele>
        <time>2021-11-21T09:16:08.040Z</time>
      </trkpt>
      <trkpt lat="49.55093" lon="-1.72091">
        <ele>129.826634</ele>
        <time>2021-11-21T09:16:09.052Z</time>
      </trkpt>
      <trkpt lat="49.55089" lon="-1.72079">
        <ele>129.483729</ele>
        <time>2021-11-21T09:16:10.063Z</time>
      </trkpt>
      <trkpt lat="49.55081" lon="-1.72053">
        <ele>128.786709</ele>
        <time>2021-11-21T09:16:12.036Z</time>
      </trkpt>
      <trkpt lat="49.55077" lon="-1.7204">
        <ele>128.42731</ele>
        <time>2021-11-21T09:16:13.037Z</time>
      </trkpt>
      <trkpt lat="49.55074" lon="-1.72026">
        <ele>128.073895</ele>
        <time>2021-11-21T09:16:14.048Z</time>
      </trkpt>
      <trkpt lat="49.55071" lon="-1.72013">
        <ele>127.719193</ele>
        <time>2021-11-21T09:16:15.046Z</time>
      </trkpt>
      <trkpt lat="49.55068" lon="-1.72">
        <ele>127.37836</ele>
        <time>2021-11-21T09:16:16.042Z</time>
      </trkpt>
      <trkpt lat="49.55065" lon="-1.71986">
        <ele>127.025975</ele>
        <time>2021-11-21T09:16:17.051Z</time>
      </trkpt>
      <trkpt lat="49.55061" lon="-1.71973">
        <ele>126.669948</ele>
        <time>2021-11-21T09:16:18.058Z</time>
      </trkpt>
      <trkpt lat="49.55058" lon="-1.71959">
        <ele>126.317783</ele>
        <time>2021-11-21T09:16:19.053Z</time>
      </trkpt>
      <trkpt lat="49.55057" lon="-1.71945">
        <ele>125.962099</ele>
        <time>2021-11-21T09:16:20.045Z</time>
      </trkpt>
      <trkpt lat="49.55057" lon="-1.71931">
        <ele>125.614108</ele>
        <time>2021-11-21T09:16:21.053Z</time>
      </trkpt>
      <trkpt lat="49.5506" lon="-1.71905">
        <ele>124.967322</ele>
        <time>2021-11-21T09:16:23.048Z</time>
      </trkpt>
      <trkpt lat="49.55062" lon="-1.71882">
        <ele>125.120737</ele>
        <time>2021-11-21T09:16:25.050Z</time>
      </trkpt>
      <trkpt lat="49.55064" lon="-1.71859">
        <ele>125.286143</ele>
        <time>2021-11-21T09:16:27.048Z</time>
      </trkpt>
      <trkpt lat="49.55067" lon="-1.71839">
        <ele>125.436998</ele>
        <time>2021-11-21T09:16:29.055Z</time>
      </trkpt>
      <trkpt lat="49.55068" lon="-1.7182">
        <ele>125.576283</ele>
        <time>2021-11-21T09:16:31.047Z</time>
      </trkpt>
      <trkpt lat="49.55068" lon="-1.71801">
        <ele>125.712282</ele>
        <time>2021-11-21T09:16:33.058Z</time>
      </trkpt>
      <trkpt lat="49.55067" lon="-1.71782">
        <ele>125.848581</ele>
        <time>2021-11-21T09:16:35.051Z</time>
      </trkpt>
      <trkpt lat="49.55063" lon="-1.71765">
        <ele>125.984133</ele>
        <time>2021-11-21T09:16:37.055Z</time>
      </trkpt>
      <trkpt lat="49.55057" lon="-1.71748">
        <ele>126.119369</ele>
        <time>2021-11-21T09:16:39.050Z</time>
      </trkpt>
      <trkpt lat="49.55052" lon="-1.71732">
        <ele>126.255889</ele>
        <time>2021-11-21T09:16:41.047Z</time>
      </trkpt>
      <trkpt lat="49.55046" lon="-1.71715">
        <ele>126.394747</ele>
        <time>2021-11-21T09:16:43.058Z</time>
      </trkpt>
      <trkpt lat="49.5504" lon="-1.71699">
        <ele>126.529786</ele>
        <time>2021-11-21T09:16:45.044Z</time>
      </trkpt>
      <trkpt lat="49.55034" lon="-1.71683">
        <ele>126.660016</ele>
        <time>2021-11-21T09:16:47.044Z</time>
      </trkpt>
      <trkpt lat="49.55029" lon="-1.71668">
        <ele>126.780546</ele>
        <time>2021-11-21T09:16:49.058Z</time>
      </trkpt>
      <trkpt lat="49.55025" lon="-1.71655">
        <ele>126.892674</ele>
        <time>2021-11-21T09:16:51.057Z</time>
      </trkpt>
      <trkpt lat="49.5502" lon="-1.71641">
        <ele>126.926223</ele>
        <time>2021-11-21T09:16:53.053Z</time>
      </trkpt>
      <trkpt lat="49.55015" lon="-1.71628">
        <ele>126.802501</ele>
        <time>2021-11-21T09:16:55.030Z</time>
      </trkpt>
      <trkpt lat="49.5501" lon="-1.71614">
        <ele>126.674672</ele>
        <time>2021-11-21T09:16:57.046Z</time>
      </trkpt>
      <trkpt lat="49.55005" lon="-1.71601">
        <ele>126.552341</ele>
        <time>2021-11-21T09:16:59.055Z</time>
      </trkpt>
      <trkpt lat="49.54999" lon="-1.71587">
        <ele>126.422669</ele>
        <time>2021-11-21T09:17:01.049Z</time>
      </trkpt>
      <trkpt lat="49.54994" lon="-1.71571">
        <ele>126.27879</ele>
        <time>2021-11-21T09:17:03.056Z</time>
      </trkpt>
      <trkpt lat="49.54989" lon="-1.71556">
        <ele>126.136475</ele>
        <time>2021-11-21T09:17:05.047Z</time>
      </trkpt>
      <trkpt lat="49.54983" lon="-1.7154">
        <ele>125.991059</ele>
        <time>2021-11-21T09:17:07.060Z</time>
      </trkpt>
      <trkpt lat="49.54977" lon="-1.71525">
        <ele>125.847164</ele>
        <time>2021-11-21T09:17:09.032Z</time>
      </trkpt>
      <trkpt lat="49.54971" lon="-1.71511">
        <ele>125.713448</ele>
        <time>2021-11-21T09:17:11.037Z</time>
      </trkpt>
      <trkpt lat="49.54965" lon="-1.71497">
        <ele>125.581097</ele>
        <time>2021-11-21T09:17:13.042Z</time>
      </trkpt>
      <trkpt lat="49.54959" lon="-1.71483">
        <ele>125.443105</ele>
        <time>2021-11-21T09:17:15.037Z</time>
      </trkpt>
      <trkpt lat="49.54952" lon="-1.71472">
        <ele>125.320725</ele>
        <time>2021-11-21T09:17:17.053Z</time>
      </trkpt>
      <trkpt lat="49.54944" lon="-1.71461">
        <ele>125.188903</ele>
        <time>2021-11-21T09:17:20.044Z</time>
      </trkpt>
      <trkpt lat="49.54938" lon="-1.71449">
        <ele>125.070125</ele>
        <time>2021-11-21T09:17:22.037Z</time>
      </trkpt>
      <trkpt lat="49.54935" lon="-1.71431">
        <ele>124.917499</ele>
        <time>2021-11-21T09:17:25.057Z</time>
      </trkpt>
      <trkpt lat="49.54934" lon="-1.71416">
        <ele>124.7933</ele>
        <time>2021-11-21T09:17:28.325Z</time>
      </trkpt>
      <trkpt lat="49.54928" lon="-1.71402">
        <ele>124.824665</ele>
        <time>2021-11-21T09:17:30.774Z</time>
      </trkpt>
      <trkpt lat="49.54922" lon="-1.71386">
        <ele>124.998192</ele>
        <time>2021-11-21T09:17:33.895Z</time>
      </trkpt>
      <trkpt lat="49.54917" lon="-1.71371">
        <ele>125.15988</ele>
        <time>2021-11-21T09:17:36.808Z</time>
      </trkpt>
      <trkpt lat="49.54912" lon="-1.71358">
        <ele>125.296751</ele>
        <time>2021-11-21T09:17:39.057Z</time>
      </trkpt>
      <trkpt lat="49.54907" lon="-1.71343">
        <ele>125.457125</ele>
        <time>2021-11-21T09:17:41.551Z</time>
      </trkpt>
      <trkpt lat="49.54902" lon="-1.71329">
        <ele>125.612549</ele>
        <time>2021-11-21T09:17:43.908Z</time>
      </trkpt>
      <trkpt lat="49.54897" lon="-1.71315">
        <ele>125.763557</ele>
        <time>2021-11-21T09:17:46.052Z</time>
      </trkpt>
      <trkpt lat="49.54892" lon="-1.71302">
        <ele>125.909919</ele>
        <time>2021-11-21T09:17:48.349Z</time>
      </trkpt>
      <trkpt lat="49.54886" lon="-1.71288">
        <ele>126.065119</ele>
        <time>2021-11-21T09:17:51.048Z</time>
      </trkpt>
      <trkpt lat="49.54882" lon="-1.71275">
        <ele>126.198479</ele>
        <time>2021-11-21T09:17:53.366Z</time>
      </trkpt>
      <trkpt lat="49.54878" lon="-1.71261">
        <ele>126.35038</ele>
        <time>2021-11-21T09:17:57.064Z</time>
      </trkpt>
      <trkpt lat="49.54874" lon="-1.71247">
        <ele>126.491841</ele>
        <time>2021-11-21T09:17:59.888Z</time>
      </trkpt>
      <trkpt lat="49.5487" lon="-1.71233">
        <ele>126.640551</ele>
        <time>2021-11-21T09:18:05.028Z</time>
      </trkpt>
      <trkpt lat="49.54865" lon="-1.71218">
        <ele>126.796955</ele>
        <time>2021-11-21T09:18:10.808Z</time>
      </trkpt>
      <trkpt lat="49.5486" lon="-1.71206">
        <ele>126.934454</ele>
        <time>2021-11-21T09:18:14.524Z</time>
      </trkpt>
      <trkpt lat="49.54854" lon="-1.71194">
        <ele>127.069712</ele>
        <time>2021-11-21T09:18:18.037Z</time>
      </trkpt>
      <trkpt lat="49.54849" lon="-1.71183">
        <ele>127.20168</ele>
        <time>2021-11-21T09:18:20.705Z</time>
      </trkpt>
      <trkpt lat="49.54846" lon="-1.71169">
        <ele>127.338353</ele>
        <time>2021-11-21T09:18:24.964Z</time>
      </trkpt>
      <trkpt lat="49.54843" lon="-1.71152">
        <ele>127.482903</ele>
        <time>2021-11-21T09:18:29.765Z</time>
      </trkpt>
      <trkpt lat="49.5484" lon="-1.71135">
        <ele>127.623597</ele>
        <time>2021-11-21T09:18:32.728Z</time>
      </trkpt>
      <trkpt lat="49.54836" lon="-1.71117">
        <ele>127.769672</ele>
        <time>2021-11-21T09:18:36.646Z</time>
      </trkpt>
      <trkpt lat="49.54836" lon="-1.71102">
        <ele>127.888848</ele>
        <time>2021-11-21T09:18:41.052Z</time>
      </trkpt>
      <trkpt lat="49.54831" lon="-1.71087">
        <ele>128.025281</ele>
        <time>2021-11-21T09:18:46.886Z</time>
      </trkpt>
      <trkpt lat="49.54828" lon="-1.71072">
        <ele>128.149963</ele>
        <time>2021-11-21T09:18:52.037Z</time>
      </trkpt>
      <trkpt lat="49.54825" lon="-1.71059">
        <ele>128.261587</ele>
        <time>2021-11-21T09:18:56.632Z</time>
      </trkpt>
      <trkpt lat="49.5482" lon="-1.71043">
        <ele>128.397878</ele>
        <time>2021-11-21T09:18:59.415Z</time>
      </trkpt>
      <trkpt lat="49.54816" lon="-1.71029">
        <ele>128.518356</ele>
        <time>2021-11-21T09:19:03.010Z</time>
      </trkpt>
      <trkpt lat="49.54811" lon="-1.71015">
        <ele>128.644572</ele>
        <time>2021-11-21T09:19:06.693Z</time>
      </trkpt>
      <trkpt lat="49.54803" lon="-1.71005">
        <ele>128.771349</ele>
        <time>2021-11-21T09:19:12.050Z</time>
      </trkpt>
      <trkpt lat="49.54794" lon="-1.70999">
        <ele>128.885124</ele>
        <time>2021-11-21T09:19:19.056Z</time>
      </trkpt>
      <trkpt lat="49.54789" lon="-1.70987">
        <ele>128.997763</ele>
        <time>2021-11-21T09:19:32.854Z</time>
      </trkpt>
      <trkpt lat="49.54785" lon="-1.70973">
        <ele>129.121594</ele>
        <time>2021-11-21T09:19:36.730Z</time>
      </trkpt>
      <trkpt lat="49.5478" lon="-1.7096">
        <ele>129.244086</ele>
        <time>2021-11-21T09:19:39.053Z</time>
      </trkpt>
      <trkpt lat="49.54774" lon="-1.70944">
        <ele>129.38459</ele>
        <time>2021-11-21T09:19:41.710Z</time>
      </trkpt>
      <trkpt lat="49.5477" lon="-1.70929">
        <ele>129.51255</ele>
        <time>2021-11-21T09:19:44.630Z</time>
      </trkpt>
      <trkpt lat="49.54766" lon="-1.70916">
        <ele>129.740966</ele>
        <time>2021-11-21T09:19:47.291Z</time>
      </trkpt>
      <trkpt lat="49.54761" lon="-1.70902">
        <ele>130.01403</ele>
        <time>2021-11-21T09:19:49.650Z</time>
      </trkpt>
      <trkpt lat="49.54757" lon="-1.70888">
        <ele>130.310161</ele>
        <time>2021-11-21T09:19:52.510Z</time>
      </trkpt>
      <trkpt lat="49.54752" lon="-1.70872">
        <ele>130.636958</ele>
        <time>2021-11-21T09:19:55.493Z</time>
      </trkpt>
      <trkpt lat="49.5475" lon="-1.70858">
        <ele>130.899616</ele>
        <time>2021-11-21T09:19:58.012Z</time>
      </trkpt>
      <trkpt lat="49.54744" lon="-1.70845">
        <ele>131.177973</ele>
        <time>2021-11-21T09:20:01.615Z</time>
      </trkpt>
      <trkpt lat="49.54732" lon="-1.70837">
        <ele>131.554452</ele>
        <time>2021-11-21T09:20:05.691Z</time>
      </trkpt>
      <trkpt lat="49.54722" lon="-1.70832">
        <ele>131.862877</ele>
        <time>2021-11-21T09:20:08.348Z</time>
      </trkpt>
      <trkpt lat="49.54713" lon="-1.70828">
        <ele>132.119395</ele>
        <time>2021-11-21T09:20:10.692Z</time>
      </trkpt>
      <trkpt lat="49.54704" lon="-1.70824">
        <ele>132.385781</ele>
        <time>2021-11-21T09:20:13.508Z</time>
      </trkpt>
      <trkpt lat="49.54693" lon="-1.7082">
        <ele>132.706658</ele>
        <time>2021-11-21T09:20:16.595Z</time>
      </trkpt>
      <trkpt lat="49.54681" lon="-1.70817">
        <ele>133.030685</ele>
        <time>2021-11-21T09:20:19.815Z</time>
      </trkpt>
      <trkpt lat="49.54672" lon="-1.70814">
        <ele>133.312637</ele>
        <time>2021-11-21T09:20:23.053Z</time>
      </trkpt>
      <trkpt lat="49.54663" lon="-1.70809">
        <ele>133.584394</ele>
        <time>2021-11-21T09:20:26.052Z</time>
      </trkpt>
      <trkpt lat="49.54654" lon="-1.70805">
        <ele>133.848479</ele>
        <time>2021-11-21T09:20:28.928Z</time>
      </trkpt>
      <trkpt lat="49.54643" lon="-1.70801">
        <ele>134.152404</ele>
        <time>2021-11-21T09:20:32.769Z</time>
      </trkpt>
      <trkpt lat="49.54634" lon="-1.70798">
        <ele>134.422911</ele>
        <time>2021-11-21T09:20:35.668Z</time>
      </trkpt>
      <trkpt lat="49.54623" lon="-1.70796">
        <ele>134.731908</ele>
        <time>2021-11-21T09:20:39.052Z</time>
      </trkpt>
      <trkpt lat="49.54614" lon="-1.70794">
        <ele>134.999322</ele>
        <time>2021-11-21T09:20:41.771Z</time>
      </trkpt>
      <trkpt lat="49.54603" lon="-1.70788">
        <ele>135.342979</ele>
        <time>2021-11-21T09:20:45.851Z</time>
      </trkpt>
      <trkpt lat="49.54593" lon="-1.70785">
        <ele>135.644123</ele>
        <time>2021-11-21T09:20:50.728Z</time>
      </trkpt>
      <trkpt lat="49.54582" lon="-1.70782">
        <ele>135.973683</ele>
        <time>2021-11-21T09:20:54.752Z</time>
      </trkpt>
      <trkpt lat="49.5457" lon="-1.7078">
        <ele>136.341844</ele>
        <time>2021-11-21T09:20:57.895Z</time>
      </trkpt>
      <trkpt lat="49.54558" lon="-1.70779">
        <ele>136.683339</ele>
        <time>2021-11-21T09:21:01.048Z</time>
      </trkpt>
      <trkpt lat="49.54547" lon="-1.70778">
        <ele>137.008857</ele>
        <time>2021-11-21T09:21:04.049Z</time>
      </trkpt>
      <trkpt lat="49.54536" lon="-1.70776">
        <ele>137.334967</ele>
        <time>2021-11-21T09:21:07.290Z</time>
      </trkpt>
      <trkpt lat="49.54525" lon="-1.70776">
        <ele>137.672082</ele>
        <time>2021-11-21T09:21:10.512Z</time>
      </trkpt>
      <trkpt lat="49.54515" lon="-1.70776">
        <ele>137.973596</ele>
        <time>2021-11-21T09:21:13.060Z</time>
      </trkpt>
      <trkpt lat="49.54502" lon="-1.70776">
        <ele>138.340155</ele>
        <time>2021-11-21T09:21:16.027Z</time>
      </trkpt>
      <trkpt lat="49.54492" lon="-1.70775">
        <ele>138.651383</ele>
        <time>2021-11-21T09:21:18.533Z</time>
      </trkpt>
      <trkpt lat="49.5448" lon="-1.70774">
        <ele>138.986335</ele>
        <time>2021-11-21T09:21:21.446Z</time>
      </trkpt>
      <trkpt lat="49.54468" lon="-1.70773">
        <ele>139.364703</ele>
        <time>2021-11-21T09:21:24.950Z</time>
      </trkpt>
      <trkpt lat="49.54455" lon="-1.70773">
        <ele>139.731242</ele>
        <time>2021-11-21T09:21:29.009Z</time>
      </trkpt>
      <trkpt lat="49.54445" lon="-1.70774">
        <ele>140.035021</ele>
        <time>2021-11-21T09:21:31.888Z</time>
      </trkpt>
      <trkpt lat="49.54434" lon="-1.70773">
        <ele>140.353103</ele>
        <time>2021-11-21T09:21:34.689Z</time>
      </trkpt>
      <trkpt lat="49.54424" lon="-1.70772">
        <ele>140.628904</ele>
        <time>2021-11-21T09:21:37.036Z</time>
      </trkpt>
      <trkpt lat="49.54413" lon="-1.70771">
        <ele>140.927355</ele>
        <time>2021-11-21T09:21:39.684Z</time>
      </trkpt>
      <trkpt lat="49.54404" lon="-1.7077">
        <ele>141.189451</ele>
        <time>2021-11-21T09:21:42.008Z</time>
      </trkpt>
      <trkpt lat="49.54393" lon="-1.70768">
        <ele>141.51456</ele>
        <time>2021-11-21T09:21:44.773Z</time>
      </trkpt>
      <trkpt lat="49.54384" lon="-1.70766">
        <ele>141.775336</ele>
        <time>2021-11-21T09:21:47.041Z</time>
      </trkpt>
      <trkpt lat="49.54374" lon="-1.70764">
        <ele>142.049082</ele>
        <time>2021-11-21T09:21:49.470Z</time>
      </trkpt>
      <trkpt lat="49.54363" lon="-1.70762">
        <ele>142.380883</ele>
        <time>2021-11-21T09:21:52.749Z</time>
      </trkpt>
      <trkpt lat="49.54351" lon="-1.70758">
        <ele>142.726817</ele>
        <time>2021-11-21T09:21:55.711Z</time>
      </trkpt>
      <trkpt lat="49.54342" lon="-1.70755">
        <ele>142.986513</ele>
        <time>2021-11-21T09:21:57.911Z</time>
      </trkpt>
      <trkpt lat="49.54329" lon="-1.70749">
        <ele>143.357047</ele>
        <time>2021-11-21T09:22:01.058Z</time>
      </trkpt>
      <trkpt lat="49.54319" lon="-1.70746">
        <ele>143.644402</ele>
        <time>2021-11-21T09:22:03.062Z</time>
      </trkpt>
      <trkpt lat="49.5431" lon="-1.70743">
        <ele>143.915563</ele>
        <time>2021-11-21T09:22:05.056Z</time>
      </trkpt>
      <trkpt lat="49.543" lon="-1.70738">
        <ele>144.216056</ele>
        <time>2021-11-21T09:22:07.721Z</time>
      </trkpt>
      <trkpt lat="49.5429" lon="-1.70734">
        <ele>144.509404</ele>
        <time>2021-11-21T09:22:10.563Z</time>
      </trkpt>
      <trkpt lat="49.54278" lon="-1.70728">
        <ele>144.848896</ele>
        <time>2021-11-21T09:22:13.919Z</time>
      </trkpt>
      <trkpt lat="49.54267" lon="-1.70724">
        <ele>145.064234</ele>
        <time>2021-11-21T09:22:17.058Z</time>
      </trkpt>
      <trkpt lat="49.54257" lon="-1.7072">
        <ele>145.094404</ele>
        <time>2021-11-21T09:22:19.499Z</time>
      </trkpt>
      <trkpt lat="49.54247" lon="-1.70717">
        <ele>145.124439</ele>
        <time>2021-11-21T09:22:21.062Z</time>
      </trkpt>
      <trkpt lat="49.54234" lon="-1.70711">
        <ele>145.163674</ele>
        <time>2021-11-21T09:22:23.059Z</time>
      </trkpt>
      <trkpt lat="49.54224" lon="-1.7071">
        <ele>145.191959</ele>
        <time>2021-11-21T09:22:25.952Z</time>
      </trkpt>
      <trkpt lat="49.54204" lon="-1.70703">
        <ele>145.252487</ele>
        <time>2021-11-21T09:22:29.060Z</time>
      </trkpt>
      <trkpt lat="49.5419" lon="-1.707">
        <ele>145.292697</ele>
        <time>2021-11-21T09:22:31.062Z</time>
      </trkpt>
      <trkpt lat="49.54177" lon="-1.70698">
        <ele>145.332538</ele>
        <time>2021-11-21T09:22:33.041Z</time>
      </trkpt>
      <trkpt lat="49.54165" lon="-1.70696">
        <ele>145.366637</ele>
        <time>2021-11-21T09:22:35.044Z</time>
      </trkpt>
      <trkpt lat="49.54153" lon="-1.70694">
        <ele>145.403031</ele>
        <time>2021-11-21T09:22:37.048Z</time>
      </trkpt>
      <trkpt lat="49.5414" lon="-1.70696">
        <ele>145.440369</ele>
        <time>2021-11-21T09:22:39.055Z</time>
      </trkpt>
      <trkpt lat="49.54129" lon="-1.707">
        <ele>145.47347</ele>
        <time>2021-11-21T09:22:41.059Z</time>
      </trkpt>
      <trkpt lat="49.54119" lon="-1.70704">
        <ele>145.503272</ele>
        <time>2021-11-21T09:22:43.041Z</time>
      </trkpt>
      <trkpt lat="49.54111" lon="-1.70709">
        <ele>145.530223</ele>
        <time>2021-11-21T09:22:45.050Z</time>
      </trkpt>
      <trkpt lat="49.54099" lon="-1.70711">
        <ele>145.564384</ele>
        <time>2021-11-21T09:22:47.675Z</time>
      </trkpt>
      <trkpt lat="49.54089" lon="-1.70707">
        <ele>145.55335</ele>
        <time>2021-11-21T09:22:49.052Z</time>
      </trkpt>
      <trkpt lat="49.54078" lon="-1.70703">
        <ele>145.514879</ele>
        <time>2021-11-21T09:22:51.061Z</time>
      </trkpt>
      <trkpt lat="49.54067" lon="-1.70698">
        <ele>145.474699</ele>
        <time>2021-11-21T09:22:53.045Z</time>
      </trkpt>
      <trkpt lat="49.54056" lon="-1.70694">
        <ele>145.434694</ele>
        <time>2021-11-21T09:22:55.041Z</time>
      </trkpt>
      <trkpt lat="49.54046" lon="-1.70689">
        <ele>145.396357</ele>
        <time>2021-11-21T09:22:57.048Z</time>
      </trkpt>
      <trkpt lat="49.54035" lon="-1.70684">
        <ele>145.356604</ele>
        <time>2021-11-21T09:22:59.048Z</time>
      </trkpt>
      <trkpt lat="49.54025" lon="-1.7068">
        <ele>145.320525</ele>
        <time>2021-11-21T09:23:01.043Z</time>
      </trkpt>
      <trkpt lat="49.54016" lon="-1.70676">
        <ele>145.287568</ele>
        <time>2021-11-21T09:23:03.055Z</time>
      </trkpt>
      <trkpt lat="49.54007" lon="-1.70672">
        <ele>145.25291</ele>
        <time>2021-11-21T09:23:05.689Z</time>
      </trkpt>
      <trkpt lat="49.53995" lon="-1.70668">
        <ele>145.212331</ele>
        <time>2021-11-21T09:23:08.454Z</time>
      </trkpt>
      <trkpt lat="49.53986" lon="-1.70664">
        <ele>145.177313</ele>
        <time>2021-11-21T09:23:10.882Z</time>
      </trkpt>
      <trkpt lat="49.53974" lon="-1.70662">
        <ele>145.135608</ele>
        <time>2021-11-21T09:23:13.538Z</time>
      </trkpt>
      <trkpt lat="49.53965" lon="-1.70659">
        <ele>145.102056</ele>
        <time>2021-11-21T09:23:15.804Z</time>
      </trkpt>
      <trkpt lat="49.53955" lon="-1.70656">
        <ele>145.066937</ele>
        <time>2021-11-21T09:23:18.595Z</time>
      </trkpt>
      <trkpt lat="49.53946" lon="-1.70651">
        <ele>145.033652</ele>
        <time>2021-11-21T09:23:21.579Z</time>
      </trkpt>
      <trkpt lat="49.53937" lon="-1.70648">
        <ele>145.000157</ele>
        <time>2021-11-21T09:23:24.680Z</time>
      </trkpt>
      <trkpt lat="49.53927" lon="-1.70646">
        <ele>144.965246</ele>
        <time>2021-11-21T09:23:28.045Z</time>
      </trkpt>
      <trkpt lat="49.53916" lon="-1.70646">
        <ele>144.939968</ele>
        <time>2021-11-21T09:23:33.997Z</time>
      </trkpt>
      <trkpt lat="49.53905" lon="-1.70642">
        <ele>144.934382</ele>
        <time>2021-11-21T09:23:36.659Z</time>
      </trkpt>
      <trkpt lat="49.53896" lon="-1.70638">
        <ele>144.929699</ele>
        <time>2021-11-21T09:23:38.043Z</time>
      </trkpt>
      <trkpt lat="49.53886" lon="-1.70632">
        <ele>144.924349</ele>
        <time>2021-11-21T09:23:40.039Z</time>
      </trkpt>
      <trkpt lat="49.53876" lon="-1.70625">
        <ele>144.918514</ele>
        <time>2021-11-21T09:23:42.056Z</time>
      </trkpt>
      <trkpt lat="49.53864" lon="-1.70619">
        <ele>144.912306</ele>
        <time>2021-11-21T09:23:44.048Z</time>
      </trkpt>
      <trkpt lat="49.53852" lon="-1.70614">
        <ele>144.906</ele>
        <time>2021-11-21T09:23:46.053Z</time>
      </trkpt>
      <trkpt lat="49.53841" lon="-1.70609">
        <ele>144.899929</ele>
        <time>2021-11-21T09:23:48.056Z</time>
      </trkpt>
      <trkpt lat="49.53829" lon="-1.70605">
        <ele>144.893707</ele>
        <time>2021-11-21T09:23:50.049Z</time>
      </trkpt>
      <trkpt lat="49.53817" lon="-1.70601">
        <ele>144.887671</ele>
        <time>2021-11-21T09:23:52.056Z</time>
      </trkpt>
      <trkpt lat="49.53806" lon="-1.70595">
        <ele>144.881703</ele>
        <time>2021-11-21T09:23:54.062Z</time>
      </trkpt>
      <trkpt lat="49.53795" lon="-1.70589">
        <ele>144.875949</ele>
        <time>2021-11-21T09:23:56.040Z</time>
      </trkpt>
      <trkpt lat="49.53785" lon="-1.70583">
        <ele>144.870279</ele>
        <time>2021-11-21T09:23:58.042Z</time>
      </trkpt>
      <trkpt lat="49.53774" lon="-1.70577">
        <ele>144.864727</ele>
        <time>2021-11-21T09:24:00.045Z</time>
      </trkpt>
      <trkpt lat="49.53763" lon="-1.70572">
        <ele>144.858831</ele>
        <time>2021-11-21T09:24:02.038Z</time>
      </trkpt>
      <trkpt lat="49.53752" lon="-1.70567">
        <ele>144.853089</ele>
        <time>2021-11-21T09:24:04.055Z</time>
      </trkpt>
      <trkpt lat="49.53741" lon="-1.70563">
        <ele>145.006868</ele>
        <time>2021-11-21T09:24:06.053Z</time>
      </trkpt>
      <trkpt lat="49.53729" lon="-1.7056">
        <ele>145.250682</ele>
        <time>2021-11-21T09:24:08.054Z</time>
      </trkpt>
      <trkpt lat="49.53718" lon="-1.70557">
        <ele>145.485381</ele>
        <time>2021-11-21T09:24:10.039Z</time>
      </trkpt>
      <trkpt lat="49.53706" lon="-1.70554">
        <ele>145.723593</ele>
        <time>2021-11-21T09:24:12.052Z</time>
      </trkpt>
      <trkpt lat="49.53695" lon="-1.70551">
        <ele>145.955043</ele>
        <time>2021-11-21T09:24:14.040Z</time>
      </trkpt>
      <trkpt lat="49.53683" lon="-1.70548">
        <ele>146.182922</ele>
        <time>2021-11-21T09:24:16.040Z</time>
      </trkpt>
      <trkpt lat="49.53673" lon="-1.70545">
        <ele>146.390778</ele>
        <time>2021-11-21T09:24:18.046Z</time>
      </trkpt>
      <trkpt lat="49.53663" lon="-1.70544">
        <ele>146.600234</ele>
        <time>2021-11-21T09:24:20.045Z</time>
      </trkpt>
      <trkpt lat="49.53652" lon="-1.70544">
        <ele>146.815325</ele>
        <time>2021-11-21T09:24:22.045Z</time>
      </trkpt>
      <trkpt lat="49.53641" lon="-1.70543">
        <ele>147.034428</ele>
        <time>2021-11-21T09:24:24.048Z</time>
      </trkpt>
      <trkpt lat="49.53629" lon="-1.70542">
        <ele>147.269539</ele>
        <time>2021-11-21T09:24:26.044Z</time>
      </trkpt>
      <trkpt lat="49.53615" lon="-1.70542">
        <ele>147.558793</ele>
        <time>2021-11-21T09:24:28.050Z</time>
      </trkpt>
      <trkpt lat="49.53602" lon="-1.70541">
        <ele>147.830003</ele>
        <time>2021-11-21T09:24:30.046Z</time>
      </trkpt>
      <trkpt lat="49.5359" lon="-1.7054">
        <ele>148.061587</ele>
        <time>2021-11-21T09:24:32.054Z</time>
      </trkpt>
      <trkpt lat="49.53578" lon="-1.70539">
        <ele>148.295175</ele>
        <time>2021-11-21T09:24:34.053Z</time>
      </trkpt>
      <trkpt lat="49.53566" lon="-1.70538">
        <ele>148.463284</ele>
        <time>2021-11-21T09:24:36.054Z</time>
      </trkpt>
      <trkpt lat="49.53555" lon="-1.70537">
        <ele>148.462801</ele>
        <time>2021-11-21T09:24:38.058Z</time>
      </trkpt>
      <trkpt lat="49.53542" lon="-1.70535">
        <ele>148.462259</ele>
        <time>2021-11-21T09:24:40.060Z</time>
      </trkpt>
      <trkpt lat="49.53529" lon="-1.7053">
        <ele>148.461682</ele>
        <time>2021-11-21T09:24:42.040Z</time>
      </trkpt>
      <trkpt lat="49.53517" lon="-1.70525">
        <ele>148.461113</ele>
        <time>2021-11-21T09:24:44.055Z</time>
      </trkpt>
      <trkpt lat="49.53505" lon="-1.70519">
        <ele>148.460558</ele>
        <time>2021-11-21T09:24:46.054Z</time>
      </trkpt>
      <trkpt lat="49.53493" lon="-1.70513">
        <ele>148.460041</ele>
        <time>2021-11-21T09:24:48.044Z</time>
      </trkpt>
      <trkpt lat="49.53483" lon="-1.70508">
        <ele>148.459582</ele>
        <time>2021-11-21T09:24:50.043Z</time>
      </trkpt>
      <trkpt lat="49.53473" lon="-1.70504">
        <ele>148.459111</ele>
        <time>2021-11-21T09:24:52.056Z</time>
      </trkpt>
      <trkpt lat="49.53462" lon="-1.70499">
        <ele>148.458633</ele>
        <time>2021-11-21T09:24:54.039Z</time>
      </trkpt>
      <trkpt lat="49.53451" lon="-1.70492">
        <ele>148.458123</ele>
        <time>2021-11-21T09:24:56.053Z</time>
      </trkpt>
      <trkpt lat="49.5344" lon="-1.70486">
        <ele>148.4576</ele>
        <time>2021-11-21T09:24:58.042Z</time>
      </trkpt>
      <trkpt lat="49.53429" lon="-1.70479">
        <ele>148.457088</ele>
        <time>2021-11-21T09:25:00.054Z</time>
      </trkpt>
      <trkpt lat="49.53418" lon="-1.70474">
        <ele>148.456599</ele>
        <time>2021-11-21T09:25:02.056Z</time>
      </trkpt>
      <trkpt lat="49.53407" lon="-1.70467">
        <ele>148.45609</ele>
        <time>2021-11-21T09:25:04.052Z</time>
      </trkpt>
      <trkpt lat="49.53396" lon="-1.70461">
        <ele>148.446531</ele>
        <time>2021-11-21T09:25:06.038Z</time>
      </trkpt>
      <trkpt lat="49.53385" lon="-1.70453">
        <ele>148.390916</ele>
        <time>2021-11-21T09:25:08.055Z</time>
      </trkpt>
      <trkpt lat="49.53374" lon="-1.70447">
        <ele>148.333136</ele>
        <time>2021-11-21T09:25:10.051Z</time>
      </trkpt>
      <trkpt lat="49.53362" lon="-1.7044">
        <ele>148.272221</ele>
        <time>2021-11-21T09:25:12.052Z</time>
      </trkpt>
      <trkpt lat="49.53349" lon="-1.70434">
        <ele>148.20933</ele>
        <time>2021-11-21T09:25:14.059Z</time>
      </trkpt>
      <trkpt lat="49.53336" lon="-1.70428">
        <ele>148.144836</ele>
        <time>2021-11-21T09:25:16.054Z</time>
      </trkpt>
      <trkpt lat="49.53322" lon="-1.70421">
        <ele>148.079444</ele>
        <time>2021-11-21T09:25:18.052Z</time>
      </trkpt>
      <trkpt lat="49.53311" lon="-1.70415">
        <ele>148.021742</ele>
        <time>2021-11-21T09:25:20.037Z</time>
      </trkpt>
      <trkpt lat="49.533" lon="-1.7041">
        <ele>147.968635</ele>
        <time>2021-11-21T09:25:22.050Z</time>
      </trkpt>
      <trkpt lat="49.5329" lon="-1.70404">
        <ele>147.916516</ele>
        <time>2021-11-21T09:25:24.040Z</time>
      </trkpt>
      <trkpt lat="49.53279" lon="-1.70398">
        <ele>147.864547</ele>
        <time>2021-11-21T09:25:26.054Z</time>
      </trkpt>
      <trkpt lat="49.53269" lon="-1.70392">
        <ele>147.811537</ele>
        <time>2021-11-21T09:25:28.035Z</time>
      </trkpt>
      <trkpt lat="49.53258" lon="-1.70387">
        <ele>147.757912</ele>
        <time>2021-11-21T09:25:30.057Z</time>
      </trkpt>
      <trkpt lat="49.53247" lon="-1.70382">
        <ele>147.706803</ele>
        <time>2021-11-21T09:25:32.044Z</time>
      </trkpt>
      <trkpt lat="49.53236" lon="-1.70378">
        <ele>147.654144</ele>
        <time>2021-11-21T09:25:34.053Z</time>
      </trkpt>
      <trkpt lat="49.53226" lon="-1.70374">
        <ele>147.658143</ele>
        <time>2021-11-21T09:25:36.045Z</time>
      </trkpt>
      <trkpt lat="49.53214" lon="-1.70369">
        <ele>147.963647</ele>
        <time>2021-11-21T09:25:38.055Z</time>
      </trkpt>
      <trkpt lat="49.53201" lon="-1.70366">
        <ele>148.269554</ele>
        <time>2021-11-21T09:25:40.059Z</time>
      </trkpt>
      <trkpt lat="49.53188" lon="-1.7036">
        <ele>148.601123</ele>
        <time>2021-11-21T09:25:42.056Z</time>
      </trkpt>
      <trkpt lat="49.53176" lon="-1.70354">
        <ele>148.91568</ele>
        <time>2021-11-21T09:25:44.041Z</time>
      </trkpt>
      <trkpt lat="49.53165" lon="-1.70349">
        <ele>149.211398</ele>
        <time>2021-11-21T09:25:46.051Z</time>
      </trkpt>
      <trkpt lat="49.53153" lon="-1.70344">
        <ele>149.516049</ele>
        <time>2021-11-21T09:25:48.059Z</time>
      </trkpt>
      <trkpt lat="49.53141" lon="-1.70339">
        <ele>149.813256</ele>
        <time>2021-11-21T09:25:50.049Z</time>
      </trkpt>
      <trkpt lat="49.5313" lon="-1.70333">
        <ele>150.104241</ele>
        <time>2021-11-21T09:25:52.046Z</time>
      </trkpt>
      <trkpt lat="49.53119" lon="-1.70328">
        <ele>150.383428</ele>
        <time>2021-11-21T09:25:54.058Z</time>
      </trkpt>
      <trkpt lat="49.53108" lon="-1.70323">
        <ele>150.669689</ele>
        <time>2021-11-21T09:25:56.052Z</time>
      </trkpt>
      <trkpt lat="49.53097" lon="-1.70318">
        <ele>150.96304</ele>
        <time>2021-11-21T09:25:58.037Z</time>
      </trkpt>
      <trkpt lat="49.53086" lon="-1.70313">
        <ele>151.229148</ele>
        <time>2021-11-21T09:26:00.056Z</time>
      </trkpt>
      <trkpt lat="49.53077" lon="-1.70306">
        <ele>151.490411</ele>
        <time>2021-11-21T09:26:02.037Z</time>
      </trkpt>
      <trkpt lat="49.53068" lon="-1.70296">
        <ele>151.772262</ele>
        <time>2021-11-21T09:26:04.040Z</time>
      </trkpt>
      <trkpt lat="49.53059" lon="-1.70286">
        <ele>152.033361</ele>
        <time>2021-11-21T09:26:06.036Z</time>
      </trkpt>
      <trkpt lat="49.5305" lon="-1.70279">
        <ele>152.397285</ele>
        <time>2021-11-21T09:26:08.056Z</time>
      </trkpt>
      <trkpt lat="49.53038" lon="-1.70272">
        <ele>152.841645</ele>
        <time>2021-11-21T09:26:10.038Z</time>
      </trkpt>
      <trkpt lat="49.53027" lon="-1.70269">
        <ele>153.251481</ele>
        <time>2021-11-21T09:26:12.057Z</time>
      </trkpt>
      <trkpt lat="49.53016" lon="-1.70267">
        <ele>153.654247</ele>
        <time>2021-11-21T09:26:14.048Z</time>
      </trkpt>
      <trkpt lat="49.53005" lon="-1.70264">
        <ele>154.054484</ele>
        <time>2021-11-21T09:26:16.042Z</time>
      </trkpt>
      <trkpt lat="49.52994" lon="-1.70262">
        <ele>154.461174</ele>
        <time>2021-11-21T09:26:18.039Z</time>
      </trkpt>
      <trkpt lat="49.52982" lon="-1.70259">
        <ele>154.910363</ele>
        <time>2021-11-21T09:26:20.042Z</time>
      </trkpt>
      <trkpt lat="49.5297" lon="-1.70258">
        <ele>155.350643</ele>
        <time>2021-11-21T09:26:22.045Z</time>
      </trkpt>
      <trkpt lat="49.52958" lon="-1.70257">
        <ele>155.778537</ele>
        <time>2021-11-21T09:26:24.056Z</time>
      </trkpt>
      <trkpt lat="49.52947" lon="-1.70258">
        <ele>156.192368</ele>
        <time>2021-11-21T09:26:26.049Z</time>
      </trkpt>
      <trkpt lat="49.52935" lon="-1.70258">
        <ele>156.620217</ele>
        <time>2021-11-21T09:26:28.039Z</time>
      </trkpt>
      <trkpt lat="49.52923" lon="-1.70256">
        <ele>157.050588</ele>
        <time>2021-11-21T09:26:30.065Z</time>
      </trkpt>
      <trkpt lat="49.52912" lon="-1.70254">
        <ele>157.476628</ele>
        <time>2021-11-21T09:26:32.042Z</time>
      </trkpt>
      <trkpt lat="49.52899" lon="-1.7025">
        <ele>157.924315</ele>
        <time>2021-11-21T09:26:34.057Z</time>
      </trkpt>
      <trkpt lat="49.52887" lon="-1.70245">
        <ele>158.371507</ele>
        <time>2021-11-21T09:26:36.050Z</time>
      </trkpt>
      <trkpt lat="49.52875" lon="-1.70241">
        <ele>158.577407</ele>
        <time>2021-11-21T09:26:38.039Z</time>
      </trkpt>
      <trkpt lat="49.52864" lon="-1.70237">
        <ele>158.591548</ele>
        <time>2021-11-21T09:26:40.049Z</time>
      </trkpt>
      <trkpt lat="49.52853" lon="-1.70234">
        <ele>158.604989</ele>
        <time>2021-11-21T09:26:42.052Z</time>
      </trkpt>
      <trkpt lat="49.52842" lon="-1.70232">
        <ele>158.618103</ele>
        <time>2021-11-21T09:26:44.039Z</time>
      </trkpt>
      <trkpt lat="49.52832" lon="-1.7023">
        <ele>158.630604</ele>
        <time>2021-11-21T09:26:46.054Z</time>
      </trkpt>
      <trkpt lat="49.52822" lon="-1.70228">
        <ele>158.642594</ele>
        <time>2021-11-21T09:26:48.058Z</time>
      </trkpt>
      <trkpt lat="49.52812" lon="-1.70226">
        <ele>158.654965</ele>
        <time>2021-11-21T09:26:50.046Z</time>
      </trkpt>
      <trkpt lat="49.52803" lon="-1.70224">
        <ele>158.666964</ele>
        <time>2021-11-21T09:26:52.044Z</time>
      </trkpt>
      <trkpt lat="49.5279" lon="-1.70219">
        <ele>158.682523</ele>
        <time>2021-11-21T09:26:55.044Z</time>
      </trkpt>
      <trkpt lat="49.52776" lon="-1.70212">
        <ele>158.700134</ele>
        <time>2021-11-21T09:26:58.044Z</time>
      </trkpt>
      <trkpt lat="49.52763" lon="-1.70203">
        <ele>158.718101</ele>
        <time>2021-11-21T09:27:00.054Z</time>
      </trkpt>
      <trkpt lat="49.52753" lon="-1.70194">
        <ele>158.732264</ele>
        <time>2021-11-21T09:27:03.052Z</time>
      </trkpt>
      <trkpt lat="49.52744" lon="-1.70185">
        <ele>158.74523</ele>
        <time>2021-11-21T09:27:05.047Z</time>
      </trkpt>
      <trkpt lat="49.52736" lon="-1.70172">
        <ele>158.759173</ele>
        <time>2021-11-21T09:27:07.053Z</time>
      </trkpt>
      <trkpt lat="49.52728" lon="-1.7016">
        <ele>158.772305</ele>
        <time>2021-11-21T09:27:09.036Z</time>
      </trkpt>
      <trkpt lat="49.52722" lon="-1.70147">
        <ele>158.785475</ele>
        <time>2021-11-21T09:27:11.055Z</time>
      </trkpt>
      <trkpt lat="49.52713" lon="-1.70135">
        <ele>158.633324</ele>
        <time>2021-11-21T09:27:13.042Z</time>
      </trkpt>
      <trkpt lat="49.52705" lon="-1.70126">
        <ele>158.476023</ele>
        <time>2021-11-21T09:27:15.050Z</time>
      </trkpt>
      <trkpt lat="49.52695" lon="-1.70117">
        <ele>158.294341</ele>
        <time>2021-11-21T09:27:18.044Z</time>
      </trkpt>
      <trkpt lat="49.52683" lon="-1.70108">
        <ele>158.08652</ele>
        <time>2021-11-21T09:27:21.038Z</time>
      </trkpt>
      <trkpt lat="49.52675" lon="-1.701">
        <ele>157.938198</ele>
        <time>2021-11-21T09:27:23.053Z</time>
      </trkpt>
      <trkpt lat="49.52665" lon="-1.70092">
        <ele>157.772489</ele>
        <time>2021-11-21T09:27:25.050Z</time>
      </trkpt>
      <trkpt lat="49.52656" lon="-1.70085">
        <ele>157.616301</ele>
        <time>2021-11-21T09:27:27.049Z</time>
      </trkpt>
      <trkpt lat="49.52647" lon="-1.7008">
        <ele>157.457508</ele>
        <time>2021-11-21T09:27:29.063Z</time>
      </trkpt>
      <trkpt lat="49.52636" lon="-1.70076">
        <ele>157.278522</ele>
        <time>2021-11-21T09:27:31.041Z</time>
      </trkpt>
      <trkpt lat="49.52624" lon="-1.70071">
        <ele>157.092501</ele>
        <time>2021-11-21T09:27:33.057Z</time>
      </trkpt>
      <trkpt lat="49.52613" lon="-1.70066">
        <ele>156.917176</ele>
        <time>2021-11-21T09:27:35.040Z</time>
      </trkpt>
      <trkpt lat="49.52602" lon="-1.7006">
        <ele>156.736137</ele>
        <time>2021-11-21T09:27:37.040Z</time>
      </trkpt>
      <trkpt lat="49.52591" lon="-1.70058">
        <ele>156.559529</ele>
        <time>2021-11-21T09:27:39.042Z</time>
      </trkpt>
      <trkpt lat="49.52581" lon="-1.70062">
        <ele>156.39681</ele>
        <time>2021-11-21T09:27:41.035Z</time>
      </trkpt>
      <trkpt lat="49.52571" lon="-1.70071">
        <ele>156.213069</ele>
        <time>2021-11-21T09:27:43.046Z</time>
      </trkpt>
      <trkpt lat="49.5256" lon="-1.70083">
        <ele>156.011772</ele>
        <time>2021-11-21T09:27:45.055Z</time>
      </trkpt>
      <trkpt lat="49.5255" lon="-1.70092">
        <ele>155.788152</ele>
        <time>2021-11-21T09:27:47.054Z</time>
      </trkpt>
      <trkpt lat="49.52538" lon="-1.70102">
        <ele>155.531993</ele>
        <time>2021-11-21T09:27:49.049Z</time>
      </trkpt>
      <trkpt lat="49.52525" lon="-1.70112">
        <ele>155.239041</ele>
        <time>2021-11-21T09:27:51.052Z</time>
      </trkpt>
      <trkpt lat="49.52511" lon="-1.70123">
        <ele>154.942796</ele>
        <time>2021-11-21T09:27:53.059Z</time>
      </trkpt>
      <trkpt lat="49.52498" lon="-1.70133">
        <ele>154.655145</ele>
        <time>2021-11-21T09:27:55.051Z</time>
      </trkpt>
      <trkpt lat="49.52485" lon="-1.70144">
        <ele>154.376339</ele>
        <time>2021-11-21T09:27:57.046Z</time>
      </trkpt>
      <trkpt lat="49.52472" lon="-1.70156">
        <ele>154.079316</ele>
        <time>2021-11-21T09:27:59.057Z</time>
      </trkpt>
      <trkpt lat="49.52458" lon="-1.70166">
        <ele>153.792676</ele>
        <time>2021-11-21T09:28:01.054Z</time>
      </trkpt>
      <trkpt lat="49.52444" lon="-1.70174">
        <ele>153.491512</ele>
        <time>2021-11-21T09:28:03.054Z</time>
      </trkpt>
      <trkpt lat="49.5243" lon="-1.70183">
        <ele>153.203847</ele>
        <time>2021-11-21T09:28:05.061Z</time>
      </trkpt>
      <trkpt lat="49.52419" lon="-1.70191">
        <ele>152.959107</ele>
        <time>2021-11-21T09:28:07.052Z</time>
      </trkpt>
      <trkpt lat="49.52408" lon="-1.702">
        <ele>152.724749</ele>
        <time>2021-11-21T09:28:09.052Z</time>
      </trkpt>
      <trkpt lat="49.52396" lon="-1.70209">
        <ele>152.593649</ele>
        <time>2021-11-21T09:28:11.041Z</time>
      </trkpt>
      <trkpt lat="49.52385" lon="-1.70219">
        <ele>153.106306</ele>
        <time>2021-11-21T09:28:13.057Z</time>
      </trkpt>
      <trkpt lat="49.52374" lon="-1.70229">
        <ele>153.612725</ele>
        <time>2021-11-21T09:28:15.056Z</time>
      </trkpt>
      <trkpt lat="49.52363" lon="-1.70238">
        <ele>154.086415</ele>
        <time>2021-11-21T09:28:17.057Z</time>
      </trkpt>
      <trkpt lat="49.52351" lon="-1.70247">
        <ele>154.599737</ele>
        <time>2021-11-21T09:28:19.058Z</time>
      </trkpt>
      <trkpt lat="49.52341" lon="-1.70255">
        <ele>155.055942</ele>
        <time>2021-11-21T09:28:21.063Z</time>
      </trkpt>
      <trkpt lat="49.52331" lon="-1.70264">
        <ele>155.525603</ele>
        <time>2021-11-21T09:28:23.043Z</time>
      </trkpt>
      <trkpt lat="49.5232" lon="-1.70275">
        <ele>156.021879</ele>
        <time>2021-11-21T09:28:25.057Z</time>
      </trkpt>
      <trkpt lat="49.52311" lon="-1.70285">
        <ele>156.454761</ele>
        <time>2021-11-21T09:28:27.043Z</time>
      </trkpt>
      <trkpt lat="49.52303" lon="-1.70293">
        <ele>156.838571</ele>
        <time>2021-11-21T09:28:29.054Z</time>
      </trkpt>
      <trkpt lat="49.52292" lon="-1.703">
        <ele>157.309243</ele>
        <time>2021-11-21T09:28:32.043Z</time>
      </trkpt>
      <trkpt lat="49.52283" lon="-1.70307">
        <ele>157.692067</ele>
        <time>2021-11-21T09:28:35.052Z</time>
      </trkpt>
      <trkpt lat="49.52273" lon="-1.70314">
        <ele>158.155298</ele>
        <time>2021-11-21T09:28:37.994Z</time>
      </trkpt>
      <trkpt lat="49.52263" lon="-1.70318">
        <ele>158.531911</ele>
        <time>2021-11-21T09:28:41.449Z</time>
      </trkpt>
      <trkpt lat="49.52254" lon="-1.70327">
        <ele>158.982056</ele>
        <time>2021-11-21T09:28:44.637Z</time>
      </trkpt>
      <trkpt lat="49.52243" lon="-1.70332">
        <ele>159.400181</ele>
        <time>2021-11-21T09:28:47.689Z</time>
      </trkpt>
      <trkpt lat="49.52232" lon="-1.70335">
        <ele>159.772926</ele>
        <time>2021-11-21T09:28:50.693Z</time>
      </trkpt>
      <trkpt lat="49.52222" lon="-1.70333">
        <ele>160.060007</ele>
        <time>2021-11-21T09:28:53.708Z</time>
      </trkpt>
      <trkpt lat="49.5221" lon="-1.7033">
        <ele>160.40274</ele>
        <time>2021-11-21T09:28:57.051Z</time>
      </trkpt>
      <trkpt lat="49.52198" lon="-1.70326">
        <ele>160.731177</ele>
        <time>2021-11-21T09:29:00.057Z</time>
      </trkpt>
      <trkpt lat="49.52187" lon="-1.70322">
        <ele>161.046479</ele>
        <time>2021-11-21T09:29:02.720Z</time>
      </trkpt>
      <trkpt lat="49.52178" lon="-1.7032">
        <ele>161.296706</ele>
        <time>2021-11-21T09:29:04.853Z</time>
      </trkpt>
      <trkpt lat="49.52168" lon="-1.70317">
        <ele>161.567635</ele>
        <time>2021-11-21T09:29:07.038Z</time>
      </trkpt>
      <trkpt lat="49.52159" lon="-1.70314">
        <ele>161.822652</ele>
        <time>2021-11-21T09:29:09.192Z</time>
      </trkpt>
      <trkpt lat="49.52149" lon="-1.7031">
        <ele>162.122638</ele>
        <time>2021-11-21T09:29:11.673Z</time>
      </trkpt>
      <trkpt lat="49.52139" lon="-1.70306">
        <ele>162.396268</ele>
        <time>2021-11-21T09:29:14.057Z</time>
      </trkpt>
      <trkpt lat="49.52129" lon="-1.70302">
        <ele>162.700771</ele>
        <time>2021-11-21T09:29:16.696Z</time>
      </trkpt>
      <trkpt lat="49.52117" lon="-1.70295">
        <ele>163.053544</ele>
        <time>2021-11-21T09:29:19.050Z</time>
      </trkpt>
      <trkpt lat="49.52107" lon="-1.70288">
        <ele>163.346169</ele>
        <time>2021-11-21T09:29:21.043Z</time>
      </trkpt>
      <trkpt lat="49.52098" lon="-1.70281">
        <ele>163.630313</ele>
        <time>2021-11-21T09:29:23.051Z</time>
      </trkpt>
      <trkpt lat="49.5209" lon="-1.70273">
        <ele>163.895899</ele>
        <time>2021-11-21T09:29:25.051Z</time>
      </trkpt>
      <trkpt lat="49.52081" lon="-1.70266">
        <ele>164.16959</ele>
        <time>2021-11-21T09:29:27.056Z</time>
      </trkpt>
      <trkpt lat="49.52071" lon="-1.70262">
        <ele>164.458851</ele>
        <time>2021-11-21T09:29:29.053Z</time>
      </trkpt>
      <trkpt lat="49.5206" lon="-1.70261">
        <ele>164.364414</ele>
        <time>2021-11-21T09:29:31.040Z</time>
      </trkpt>
      <trkpt lat="49.52049" lon="-1.70263">
        <ele>164.028354</ele>
        <time>2021-11-21T09:29:33.042Z</time>
      </trkpt>
      <trkpt lat="49.52038" lon="-1.70264">
        <ele>163.67679</ele>
        <time>2021-11-21T09:29:35.037Z</time>
      </trkpt>
      <trkpt lat="49.52026" lon="-1.70263">
        <ele>163.321958</ele>
        <time>2021-11-21T09:29:37.050Z</time>
      </trkpt>
      <trkpt lat="49.52016" lon="-1.7026">
        <ele>163.020342</ele>
        <time>2021-11-21T09:29:39.054Z</time>
      </trkpt>
      <trkpt lat="49.52011" lon="-1.70248">
        <ele>162.739525</ele>
        <time>2021-11-21T09:29:41.031Z</time>
      </trkpt>
      <trkpt lat="49.52014" lon="-1.7023">
        <ele>162.386459</ele>
        <time>2021-11-21T09:29:43.040Z</time>
      </trkpt>
      <trkpt lat="49.52021" lon="-1.70213">
        <ele>162.004258</ele>
        <time>2021-11-21T09:29:45.056Z</time>
      </trkpt>
      <trkpt lat="49.52027" lon="-1.70196">
        <ele>161.611618</ele>
        <time>2021-11-21T09:29:47.048Z</time>
      </trkpt>
      <trkpt lat="49.52033" lon="-1.70178">
        <ele>161.220676</ele>
        <time>2021-11-21T09:29:49.054Z</time>
      </trkpt>
      <trkpt lat="49.52039" lon="-1.70161">
        <ele>160.842616</ele>
        <time>2021-11-21T09:29:51.052Z</time>
      </trkpt>
      <trkpt lat="49.52045" lon="-1.70145">
        <ele>160.480829</ele>
        <time>2021-11-21T09:29:53.043Z</time>
      </trkpt>
      <trkpt lat="49.52051" lon="-1.70129">
        <ele>160.122451</ele>
        <time>2021-11-21T09:29:55.040Z</time>
      </trkpt>
      <trkpt lat="49.52057" lon="-1.70112">
        <ele>159.752395</ele>
        <time>2021-11-21T09:29:57.039Z</time>
      </trkpt>
      <trkpt lat="49.52062" lon="-1.70094">
        <ele>159.363423</ele>
        <time>2021-11-21T09:29:59.040Z</time>
      </trkpt>
      <trkpt lat="49.52067" lon="-1.70076">
        <ele>158.942904</ele>
        <time>2021-11-21T09:30:01.053Z</time>
      </trkpt>
      <trkpt lat="49.52073" lon="-1.70057">
        <ele>158.464095</ele>
        <time>2021-11-21T09:30:03.059Z</time>
      </trkpt>
      <trkpt lat="49.52077" lon="-1.70038">
        <ele>157.989247</ele>
        <time>2021-11-21T09:30:05.045Z</time>
      </trkpt>
      <trkpt lat="49.52082" lon="-1.70018">
        <ele>157.502974</ele>
        <time>2021-11-21T09:30:07.050Z</time>
      </trkpt>
      <trkpt lat="49.52085" lon="-1.69996">
        <ele>156.98469</ele>
        <time>2021-11-21T09:30:09.052Z</time>
      </trkpt>
      <trkpt lat="49.52082" lon="-1.69974">
        <ele>156.448441</ele>
        <time>2021-11-21T09:30:11.037Z</time>
      </trkpt>
      <trkpt lat="49.52077" lon="-1.69952">
        <ele>155.908744</ele>
        <time>2021-11-21T09:30:13.052Z</time>
      </trkpt>
      <trkpt lat="49.52073" lon="-1.6993">
        <ele>155.367948</ele>
        <time>2021-11-21T09:30:15.041Z</time>
      </trkpt>
      <trkpt lat="49.5207" lon="-1.69906">
        <ele>154.815393</ele>
        <time>2021-11-21T09:30:17.037Z</time>
      </trkpt>
      <trkpt lat="49.52067" lon="-1.69882">
        <ele>154.251398</ele>
        <time>2021-11-21T09:30:19.066Z</time>
      </trkpt>
      <trkpt lat="49.52064" lon="-1.69859">
        <ele>153.69141</ele>
        <time>2021-11-21T09:30:21.043Z</time>
      </trkpt>
      <trkpt lat="49.5206" lon="-1.69836">
        <ele>153.125962</ele>
        <time>2021-11-21T09:30:23.051Z</time>
      </trkpt>
      <trkpt lat="49.52055" lon="-1.69812">
        <ele>152.550218</ele>
        <time>2021-11-21T09:30:25.052Z</time>
      </trkpt>
      <trkpt lat="49.5205" lon="-1.69788">
        <ele>151.955139</ele>
        <time>2021-11-21T09:30:27.053Z</time>
      </trkpt>
      <trkpt lat="49.52047" lon="-1.69763">
        <ele>151.362933</ele>
        <time>2021-11-21T09:30:29.040Z</time>
      </trkpt>
      <trkpt lat="49.52046" lon="-1.69737">
        <ele>150.771677</ele>
        <time>2021-11-21T09:30:31.060Z</time>
      </trkpt>
      <trkpt lat="49.52048" lon="-1.69712">
        <ele>150.16529</ele>
        <time>2021-11-21T09:30:33.050Z</time>
      </trkpt>
      <trkpt lat="49.52051" lon="-1.69686">
        <ele>149.547527</ele>
        <time>2021-11-21T09:30:35.051Z</time>
      </trkpt>
      <trkpt lat="49.52055" lon="-1.6966">
        <ele>148.935827</ele>
        <time>2021-11-21T09:30:37.063Z</time>
      </trkpt>
      <trkpt lat="49.52057" lon="-1.69635">
        <ele>148.326372</ele>
        <time>2021-11-21T09:30:39.052Z</time>
      </trkpt>
      <trkpt lat="49.52059" lon="-1.69607">
        <ele>147.68866</ele>
        <time>2021-11-21T09:30:41.054Z</time>
      </trkpt>
      <trkpt lat="49.52059" lon="-1.69593">
        <ele>147.358506</ele>
        <time>2021-11-21T09:30:42.040Z</time>
      </trkpt>
      <trkpt lat="49.52059" lon="-1.69579">
        <ele>147.01899</ele>
        <time>2021-11-21T09:30:43.058Z</time>
      </trkpt>
      <trkpt lat="49.5206" lon="-1.69565">
        <ele>146.687323</ele>
        <time>2021-11-21T09:30:44.050Z</time>
      </trkpt>
      <trkpt lat="49.52062" lon="-1.69551">
        <ele>146.350926</ele>
        <time>2021-11-21T09:30:45.056Z</time>
      </trkpt>
      <trkpt lat="49.52064" lon="-1.69537">
        <ele>146.362061</ele>
        <time>2021-11-21T09:30:46.043Z</time>
      </trkpt>
      <trkpt lat="49.52066" lon="-1.69523">
        <ele>146.551539</ele>
        <time>2021-11-21T09:30:47.033Z</time>
      </trkpt>
      <trkpt lat="49.52071" lon="-1.69498">
        <ele>146.906534</ele>
        <time>2021-11-21T09:30:49.050Z</time>
      </trkpt>
      <trkpt lat="49.52075" lon="-1.69473">
        <ele>147.247989</ele>
        <time>2021-11-21T09:30:51.052Z</time>
      </trkpt>
      <trkpt lat="49.5208" lon="-1.69452">
        <ele>147.549049</ele>
        <time>2021-11-21T09:30:53.053Z</time>
      </trkpt>
      <trkpt lat="49.52087" lon="-1.6943">
        <ele>147.880145</ele>
        <time>2021-11-21T09:30:55.064Z</time>
      </trkpt>
      <trkpt lat="49.52091" lon="-1.69408">
        <ele>148.191535</ele>
        <time>2021-11-21T09:30:57.052Z</time>
      </trkpt>
      <trkpt lat="49.52092" lon="-1.69388">
        <ele>148.454514</ele>
        <time>2021-11-21T09:30:59.041Z</time>
      </trkpt>
      <trkpt lat="49.52092" lon="-1.69372">
        <ele>148.679033</ele>
        <time>2021-11-21T09:31:01.041Z</time>
      </trkpt>
      <trkpt lat="49.52092" lon="-1.69357">
        <ele>148.876016</ele>
        <time>2021-11-21T09:31:03.052Z</time>
      </trkpt>
      <trkpt lat="49.52091" lon="-1.69343">
        <ele>149.06294</ele>
        <time>2021-11-21T09:31:05.053Z</time>
      </trkpt>
      <trkpt lat="49.52089" lon="-1.69329">
        <ele>149.255663</ele>
        <time>2021-11-21T09:31:07.042Z</time>
      </trkpt>
      <trkpt lat="49.52087" lon="-1.69314">
        <ele>149.465488</ele>
        <time>2021-11-21T09:31:09.043Z</time>
      </trkpt>
      <trkpt lat="49.52085" lon="-1.69298">
        <ele>149.67782</ele>
        <time>2021-11-21T09:31:11.041Z</time>
      </trkpt>
      <trkpt lat="49.52083" lon="-1.69283">
        <ele>149.88938</ele>
        <time>2021-11-21T09:31:13.042Z</time>
      </trkpt>
      <trkpt lat="49.52081" lon="-1.69266">
        <ele>150.005774</ele>
        <time>2021-11-21T09:31:15.053Z</time>
      </trkpt>
      <trkpt lat="49.5208" lon="-1.69248">
        <ele>150.076271</ele>
        <time>2021-11-21T09:31:17.043Z</time>
      </trkpt>
      <trkpt lat="49.5208" lon="-1.69228">
        <ele>150.151328</ele>
        <time>2021-11-21T09:31:19.042Z</time>
      </trkpt>
      <trkpt lat="49.5208" lon="-1.69208">
        <ele>150.227536</ele>
        <time>2021-11-21T09:31:21.045Z</time>
      </trkpt>
      <trkpt lat="49.5208" lon="-1.69188">
        <ele>150.305659</ele>
        <time>2021-11-21T09:31:23.062Z</time>
      </trkpt>
      <trkpt lat="49.5208" lon="-1.69168">
        <ele>150.383406</ele>
        <time>2021-11-21T09:31:25.046Z</time>
      </trkpt>
      <trkpt lat="49.52081" lon="-1.69147">
        <ele>150.461368</ele>
        <time>2021-11-21T09:31:27.038Z</time>
      </trkpt>
      <trkpt lat="49.52082" lon="-1.69127">
        <ele>150.538613</ele>
        <time>2021-11-21T09:31:29.045Z</time>
      </trkpt>
      <trkpt lat="49.52083" lon="-1.69107">
        <ele>150.615313</ele>
        <time>2021-11-21T09:31:31.049Z</time>
      </trkpt>
      <trkpt lat="49.52083" lon="-1.69087">
        <ele>150.69316</ele>
        <time>2021-11-21T09:31:33.050Z</time>
      </trkpt>
      <trkpt lat="49.52084" lon="-1.69067">
        <ele>150.768658</ele>
        <time>2021-11-21T09:31:35.049Z</time>
      </trkpt>
      <trkpt lat="49.52085" lon="-1.69049">
        <ele>150.839319</ele>
        <time>2021-11-21T09:31:37.051Z</time>
      </trkpt>
      <trkpt lat="49.52086" lon="-1.69032">
        <ele>150.903491</ele>
        <time>2021-11-21T09:31:39.042Z</time>
      </trkpt>
      <trkpt lat="49.52086" lon="-1.69016">
        <ele>150.966363</ele>
        <time>2021-11-21T09:31:41.059Z</time>
      </trkpt>
      <trkpt lat="49.52087" lon="-1.68999">
        <ele>151.043847</ele>
        <time>2021-11-21T09:31:43.056Z</time>
      </trkpt>
      <trkpt lat="49.52088" lon="-1.68982">
        <ele>151.193159</ele>
        <time>2021-11-21T09:31:45.060Z</time>
      </trkpt>
      <trkpt lat="49.52088" lon="-1.68967">
        <ele>151.335921</ele>
        <time>2021-11-21T09:31:47.038Z</time>
      </trkpt>
      <trkpt lat="49.52089" lon="-1.68952">
        <ele>151.471789</ele>
        <time>2021-11-21T09:31:49.049Z</time>
      </trkpt>
      <trkpt lat="49.5209" lon="-1.68938">
        <ele>151.602069</ele>
        <time>2021-11-21T09:31:51.038Z</time>
      </trkpt>
      <trkpt lat="49.5209" lon="-1.68923">
        <ele>151.737353</ele>
        <time>2021-11-21T09:31:53.050Z</time>
      </trkpt>
      <trkpt lat="49.5209" lon="-1.68909">
        <ele>151.870006</ele>
        <time>2021-11-21T09:31:55.041Z</time>
      </trkpt>
      <trkpt lat="49.52091" lon="-1.68894">
        <ele>151.99992</ele>
        <time>2021-11-21T09:31:57.052Z</time>
      </trkpt>
      <trkpt lat="49.52091" lon="-1.6888">
        <ele>152.129781</ele>
        <time>2021-11-21T09:31:59.047Z</time>
      </trkpt>
      <trkpt lat="49.52091" lon="-1.68865">
        <ele>152.267</ele>
        <time>2021-11-21T09:32:01.047Z</time>
      </trkpt>
      <trkpt lat="49.52092" lon="-1.6885">
        <ele>152.404826</ele>
        <time>2021-11-21T09:32:03.042Z</time>
      </trkpt>
      <trkpt lat="49.52094" lon="-1.68835">
        <ele>152.54224</ele>
        <time>2021-11-21T09:32:05.040Z</time>
      </trkpt>
      <trkpt lat="49.52094" lon="-1.6882">
        <ele>152.680717</ele>
        <time>2021-11-21T09:32:07.042Z</time>
      </trkpt>
      <trkpt lat="49.52096" lon="-1.68805">
        <ele>152.824861</ele>
        <time>2021-11-21T09:32:09.052Z</time>
      </trkpt>
      <trkpt lat="49.52098" lon="-1.68788">
        <ele>152.974185</ele>
        <time>2021-11-21T09:32:11.052Z</time>
      </trkpt>
      <trkpt lat="49.521" lon="-1.68772">
        <ele>153.124411</ele>
        <time>2021-11-21T09:32:13.046Z</time>
      </trkpt>
      <trkpt lat="49.52102" lon="-1.68756">
        <ele>153.276933</ele>
        <time>2021-11-21T09:32:15.041Z</time>
      </trkpt>
      <trkpt lat="49.52104" lon="-1.68739">
        <ele>153.432379</ele>
        <time>2021-11-21T09:32:17.047Z</time>
      </trkpt>
      <trkpt lat="49.52107" lon="-1.68723">
        <ele>153.465589</ele>
        <time>2021-11-21T09:32:19.040Z</time>
      </trkpt>
      <trkpt lat="49.52109" lon="-1.68707">
        <ele>153.039855</ele>
        <time>2021-11-21T09:32:21.039Z</time>
      </trkpt>
      <trkpt lat="49.52112" lon="-1.68692">
        <ele>152.629304</ele>
        <time>2021-11-21T09:32:23.057Z</time>
      </trkpt>
      <trkpt lat="49.52115" lon="-1.68677">
        <ele>152.22128</ele>
        <time>2021-11-21T09:32:25.056Z</time>
      </trkpt>
      <trkpt lat="49.52117" lon="-1.68662">
        <ele>151.811233</ele>
        <time>2021-11-21T09:32:27.052Z</time>
      </trkpt>
      <trkpt lat="49.52121" lon="-1.68646">
        <ele>151.370951</ele>
        <time>2021-11-21T09:32:29.036Z</time>
      </trkpt>
      <trkpt lat="49.52124" lon="-1.68629">
        <ele>150.910862</ele>
        <time>2021-11-21T09:32:31.053Z</time>
      </trkpt>
      <trkpt lat="49.52128" lon="-1.68612">
        <ele>150.419656</ele>
        <time>2021-11-21T09:32:33.041Z</time>
      </trkpt>
      <trkpt lat="49.52131" lon="-1.68592">
        <ele>149.889891</ele>
        <time>2021-11-21T09:32:35.049Z</time>
      </trkpt>
      <trkpt lat="49.52134" lon="-1.68574">
        <ele>149.4142</ele>
        <time>2021-11-21T09:32:37.053Z</time>
      </trkpt>
      <trkpt lat="49.52136" lon="-1.6856">
        <ele>149.018408</ele>
        <time>2021-11-21T09:32:40.055Z</time>
      </trkpt>
      <trkpt lat="49.52138" lon="-1.68543">
        <ele>148.579838</ele>
        <time>2021-11-21T09:32:43.053Z</time>
      </trkpt>
      <trkpt lat="49.52141" lon="-1.68528">
        <ele>148.168453</ele>
        <time>2021-11-21T09:32:45.034Z</time>
      </trkpt>
      <trkpt lat="49.52145" lon="-1.68512">
        <ele>147.707793</ele>
        <time>2021-11-21T09:32:47.052Z</time>
      </trkpt>
      <trkpt lat="49.5215" lon="-1.68494">
        <ele>147.208945</ele>
        <time>2021-11-21T09:32:49.046Z</time>
      </trkpt>
      <trkpt lat="49.52155" lon="-1.68475">
        <ele>146.66759</ele>
        <time>2021-11-21T09:32:51.053Z</time>
      </trkpt>
      <trkpt lat="49.52161" lon="-1.68456">
        <ele>146.208443</ele>
        <time>2021-11-21T09:32:53.040Z</time>
      </trkpt>
      <trkpt lat="49.52166" lon="-1.68437">
        <ele>145.942861</ele>
        <time>2021-11-21T09:32:55.038Z</time>
      </trkpt>
      <trkpt lat="49.52173" lon="-1.68419">
        <ele>145.688421</ele>
        <time>2021-11-21T09:32:57.039Z</time>
      </trkpt>
      <trkpt lat="49.52179" lon="-1.68402">
        <ele>145.448107</ele>
        <time>2021-11-21T09:32:59.031Z</time>
      </trkpt>
      <trkpt lat="49.52185" lon="-1.68387">
        <ele>145.220708</ele>
        <time>2021-11-21T09:33:01.047Z</time>
      </trkpt>
      <trkpt lat="49.52192" lon="-1.68373">
        <ele>144.999397</ele>
        <time>2021-11-21T09:33:03.037Z</time>
      </trkpt>
      <trkpt lat="49.522" lon="-1.68362">
        <ele>144.78768</ele>
        <time>2021-11-21T09:33:05.056Z</time>
      </trkpt>
      <trkpt lat="49.52208" lon="-1.68351">
        <ele>144.586502</ele>
        <time>2021-11-21T09:33:07.049Z</time>
      </trkpt>
      <trkpt lat="49.52216" lon="-1.68339">
        <ele>144.374255</ele>
        <time>2021-11-21T09:33:09.051Z</time>
      </trkpt>
      <trkpt lat="49.52224" lon="-1.68328">
        <ele>144.161705</ele>
        <time>2021-11-21T09:33:11.062Z</time>
      </trkpt>
      <trkpt lat="49.52232" lon="-1.68316">
        <ele>143.949209</ele>
        <time>2021-11-21T09:33:13.054Z</time>
      </trkpt>
      <trkpt lat="49.52238" lon="-1.68304">
        <ele>143.755129</ele>
        <time>2021-11-21T09:33:15.063Z</time>
      </trkpt>
      <trkpt lat="49.52244" lon="-1.68292">
        <ele>143.565345</ele>
        <time>2021-11-21T09:33:18.047Z</time>
      </trkpt>
      <trkpt lat="49.52276" lon="-1.68233">
        <ele>142.868615</ele>
        <time>2021-11-21T09:33:49.043Z</time>
      </trkpt>
      <trkpt lat="49.52284" lon="-1.68218">
        <ele>142.929419</ele>
        <time>2021-11-21T09:33:51.053Z</time>
      </trkpt>
      <trkpt lat="49.52293" lon="-1.68202">
        <ele>142.991488</ele>
        <time>2021-11-21T09:33:53.038Z</time>
      </trkpt>
      <trkpt lat="49.523" lon="-1.68185">
        <ele>143.055293</ele>
        <time>2021-11-21T09:33:55.043Z</time>
      </trkpt>
      <trkpt lat="49.52307" lon="-1.68168">
        <ele>143.117362</ele>
        <time>2021-11-21T09:33:57.040Z</time>
      </trkpt>
      <trkpt lat="49.52312" lon="-1.68149">
        <ele>143.178552</ele>
        <time>2021-11-21T09:33:59.038Z</time>
      </trkpt>
      <trkpt lat="49.52314" lon="-1.68129">
        <ele>143.238537</ele>
        <time>2021-11-21T09:34:01.059Z</time>
      </trkpt>
      <trkpt lat="49.52314" lon="-1.68111">
        <ele>143.293818</ele>
        <time>2021-11-21T09:34:03.043Z</time>
      </trkpt>
      <trkpt lat="49.52313" lon="-1.68095">
        <ele>143.344851</ele>
        <time>2021-11-21T09:34:05.058Z</time>
      </trkpt>
      <trkpt lat="49.52313" lon="-1.6808">
        <ele>143.390471</ele>
        <time>2021-11-21T09:34:07.045Z</time>
      </trkpt>
      <trkpt lat="49.52316" lon="-1.68063">
        <ele>143.443044</ele>
        <time>2021-11-21T09:34:10.061Z</time>
      </trkpt>
      <trkpt lat="49.52324" lon="-1.68053">
        <ele>143.492068</ele>
        <time>2021-11-21T09:34:12.053Z</time>
      </trkpt>
      <trkpt lat="49.52338" lon="-1.68039">
        <ele>143.571939</ele>
        <time>2021-11-21T09:34:15.061Z</time>
      </trkpt>
      <trkpt lat="49.52349" lon="-1.68033">
        <ele>143.62375</ele>
        <time>2021-11-21T09:34:18.844Z</time>
      </trkpt>
      <trkpt lat="49.52356" lon="-1.68016">
        <ele>143.592148</ele>
        <time>2021-11-21T09:34:21.045Z</time>
      </trkpt>
      <trkpt lat="49.52363" lon="-1.68006">
        <ele>143.435592</ele>
        <time>2021-11-21T09:34:23.057Z</time>
      </trkpt>
      <trkpt lat="49.5237" lon="-1.67996">
        <ele>143.282565</ele>
        <time>2021-11-21T09:34:25.062Z</time>
      </trkpt>
      <trkpt lat="49.52375" lon="-1.67985">
        <ele>143.137407</ele>
        <time>2021-11-21T09:34:27.048Z</time>
      </trkpt>
      <trkpt lat="49.5238" lon="-1.67972">
        <ele>142.988133</ele>
        <time>2021-11-21T09:34:29.066Z</time>
      </trkpt>
      <trkpt lat="49.52382" lon="-1.67957">
        <ele>142.828907</ele>
        <time>2021-11-21T09:34:31.043Z</time>
      </trkpt>
      <trkpt lat="49.52385" lon="-1.67941">
        <ele>142.65668</ele>
        <time>2021-11-21T09:34:33.043Z</time>
      </trkpt>
      <trkpt lat="49.52388" lon="-1.67923">
        <ele>142.469615</ele>
        <time>2021-11-21T09:34:35.044Z</time>
      </trkpt>
      <trkpt lat="49.52391" lon="-1.67905">
        <ele>142.276135</ele>
        <time>2021-11-21T09:34:37.045Z</time>
      </trkpt>
      <trkpt lat="49.52394" lon="-1.67887">
        <ele>142.076238</ele>
        <time>2021-11-21T09:34:39.045Z</time>
      </trkpt>
      <trkpt lat="49.52398" lon="-1.67868">
        <ele>141.871239</ele>
        <time>2021-11-21T09:34:41.041Z</time>
      </trkpt>
      <trkpt lat="49.52402" lon="-1.67849">
        <ele>141.668558</ele>
        <time>2021-11-21T09:34:43.061Z</time>
      </trkpt>
      <trkpt lat="49.52406" lon="-1.67832">
        <ele>141.476837</ele>
        <time>2021-11-21T09:34:45.042Z</time>
      </trkpt>
      <trkpt lat="49.52411" lon="-1.67814">
        <ele>141.281289</ele>
        <time>2021-11-21T09:34:47.049Z</time>
      </trkpt>
      <trkpt lat="49.52416" lon="-1.67796">
        <ele>141.075023</ele>
        <time>2021-11-21T09:34:49.056Z</time>
      </trkpt>
      <trkpt lat="49.52421" lon="-1.67778">
        <ele>140.869367</ele>
        <time>2021-11-21T09:34:51.046Z</time>
      </trkpt>
      <trkpt lat="49.52427" lon="-1.6776">
        <ele>140.7282</ele>
        <time>2021-11-21T09:34:53.043Z</time>
      </trkpt>
      <trkpt lat="49.52432" lon="-1.6774">
        <ele>140.622255</ele>
        <time>2021-11-21T09:34:55.053Z</time>
      </trkpt>
      <trkpt lat="49.52437" lon="-1.67721">
        <ele>140.516009</ele>
        <time>2021-11-21T09:34:57.044Z</time>
      </trkpt>
      <trkpt lat="49.52442" lon="-1.67703">
        <ele>140.412418</ele>
        <time>2021-11-21T09:34:59.045Z</time>
      </trkpt>
      <trkpt lat="49.52448" lon="-1.67684">
        <ele>140.309148</ele>
        <time>2021-11-21T09:35:01.057Z</time>
      </trkpt>
      <trkpt lat="49.52452" lon="-1.67666">
        <ele>140.209007</ele>
        <time>2021-11-21T09:35:03.045Z</time>
      </trkpt>
      <trkpt lat="49.52457" lon="-1.67647">
        <ele>140.107439</ele>
        <time>2021-11-21T09:35:05.037Z</time>
      </trkpt>
      <trkpt lat="49.52463" lon="-1.67629">
        <ele>140.004812</ele>
        <time>2021-11-21T09:35:07.055Z</time>
      </trkpt>
      <trkpt lat="49.52469" lon="-1.67612">
        <ele>139.902098</ele>
        <time>2021-11-21T09:35:09.053Z</time>
      </trkpt>
      <trkpt lat="49.52475" lon="-1.67595">
        <ele>139.802685</ele>
        <time>2021-11-21T09:35:11.056Z</time>
      </trkpt>
      <trkpt lat="49.52482" lon="-1.6758">
        <ele>139.7123</ele>
        <time>2021-11-21T09:35:13.052Z</time>
      </trkpt>
      <trkpt lat="49.52488" lon="-1.67566">
        <ele>139.627052</ele>
        <time>2021-11-21T09:35:15.058Z</time>
      </trkpt>
      <trkpt lat="49.52493" lon="-1.67553">
        <ele>139.546917</ele>
        <time>2021-11-21T09:35:17.042Z</time>
      </trkpt>
      <trkpt lat="49.52498" lon="-1.6754">
        <ele>139.469582</ele>
        <time>2021-11-21T09:35:19.055Z</time>
      </trkpt>
      <trkpt lat="49.52499" lon="-1.67526">
        <ele>139.396846</ele>
        <time>2021-11-21T09:35:21.048Z</time>
      </trkpt>
      <trkpt lat="49.52495" lon="-1.67512">
        <ele>139.367985</ele>
        <time>2021-11-21T09:35:23.044Z</time>
      </trkpt>
      <trkpt lat="49.52487" lon="-1.67501">
        <ele>139.353031</ele>
        <time>2021-11-21T09:35:25.046Z</time>
      </trkpt>
      <trkpt lat="49.52485" lon="-1.67486">
        <ele>139.33888</ele>
        <time>2021-11-21T09:35:27.043Z</time>
      </trkpt>
      <trkpt lat="49.52485" lon="-1.67471">
        <ele>139.324564</ele>
        <time>2021-11-21T09:35:29.050Z</time>
      </trkpt>
      <trkpt lat="49.52486" lon="-1.67455">
        <ele>139.30959</ele>
        <time>2021-11-21T09:35:31.053Z</time>
      </trkpt>
      <trkpt lat="49.52488" lon="-1.67438">
        <ele>139.293438</ele>
        <time>2021-11-21T09:35:33.037Z</time>
      </trkpt>
      <trkpt lat="49.52492" lon="-1.67421">
        <ele>139.27723</ele>
        <time>2021-11-21T09:35:35.057Z</time>
      </trkpt>
      <trkpt lat="49.52496" lon="-1.67407">
        <ele>139.262935</ele>
        <time>2021-11-21T09:35:37.043Z</time>
      </trkpt>
      <trkpt lat="49.52504" lon="-1.67398">
        <ele>139.249036</ele>
        <time>2021-11-21T09:35:39.034Z</time>
      </trkpt>
      <trkpt lat="49.52515" lon="-1.67399">
        <ele>139.234106</ele>
        <time>2021-11-21T09:35:41.051Z</time>
      </trkpt>
      <trkpt lat="49.52525" lon="-1.67403">
        <ele>139.218013</ele>
        <time>2021-11-21T09:35:43.053Z</time>
      </trkpt>
      <trkpt lat="49.52536" lon="-1.67407">
        <ele>139.20258</ele>
        <time>2021-11-21T09:35:45.051Z</time>
      </trkpt>
      <trkpt lat="49.52546" lon="-1.67403">
        <ele>139.187891</ele>
        <time>2021-11-21T09:35:47.047Z</time>
      </trkpt>
      <trkpt lat="49.52555" lon="-1.67392">
        <ele>139.171939</ele>
        <time>2021-11-21T09:35:49.030Z</time>
      </trkpt>
      <trkpt lat="49.52563" lon="-1.67378">
        <ele>139.154283</ele>
        <time>2021-11-21T09:35:51.051Z</time>
      </trkpt>
      <trkpt lat="49.52572" lon="-1.67366">
        <ele>139.137953</ele>
        <time>2021-11-21T09:35:53.045Z</time>
      </trkpt>
      <trkpt lat="49.52583" lon="-1.67358">
        <ele>139.158984</ele>
        <time>2021-11-21T09:35:55.058Z</time>
      </trkpt>
      <trkpt lat="49.52594" lon="-1.67353">
        <ele>139.435253</ele>
        <time>2021-11-21T09:35:57.046Z</time>
      </trkpt>
      <trkpt lat="49.52603" lon="-1.67347">
        <ele>139.689881</ele>
        <time>2021-11-21T09:35:59.040Z</time>
      </trkpt>
      <trkpt lat="49.52613" lon="-1.67341">
        <ele>139.941832</ele>
        <time>2021-11-21T09:36:01.036Z</time>
      </trkpt>
      <trkpt lat="49.52623" lon="-1.67332">
        <ele>140.23847</ele>
        <time>2021-11-21T09:36:03.047Z</time>
      </trkpt>
      <trkpt lat="49.52635" lon="-1.67325">
        <ele>140.557358</ele>
        <time>2021-11-21T09:36:05.042Z</time>
      </trkpt>
      <trkpt lat="49.52645" lon="-1.67318">
        <ele>140.824424</ele>
        <time>2021-11-21T09:36:07.050Z</time>
      </trkpt>
      <trkpt lat="49.52654" lon="-1.67313">
        <ele>141.047147</ele>
        <time>2021-11-21T09:36:09.045Z</time>
      </trkpt>
      <trkpt lat="49.52667" lon="-1.67306">
        <ele>141.385094</ele>
        <time>2021-11-21T09:36:12.061Z</time>
      </trkpt>
      <trkpt lat="49.52678" lon="-1.67301">
        <ele>141.670337</ele>
        <time>2021-11-21T09:36:14.061Z</time>
      </trkpt>
      <trkpt lat="49.5269" lon="-1.67295">
        <ele>141.98232</ele>
        <time>2021-11-21T09:36:16.051Z</time>
      </trkpt>
      <trkpt lat="49.527" lon="-1.6729">
        <ele>142.25057</ele>
        <time>2021-11-21T09:36:18.058Z</time>
      </trkpt>
      <trkpt lat="49.52712" lon="-1.67284">
        <ele>142.543579</ele>
        <time>2021-11-21T09:36:20.040Z</time>
      </trkpt>
      <trkpt lat="49.52722" lon="-1.67277">
        <ele>142.81034</ele>
        <time>2021-11-21T09:36:22.043Z</time>
      </trkpt>
      <trkpt lat="49.52731" lon="-1.67271">
        <ele>143.054059</ele>
        <time>2021-11-21T09:36:24.054Z</time>
      </trkpt>
      <trkpt lat="49.52739" lon="-1.67266">
        <ele>143.278258</ele>
        <time>2021-11-21T09:36:26.051Z</time>
      </trkpt>
      <trkpt lat="49.52749" lon="-1.67259">
        <ele>143.544727</ele>
        <time>2021-11-21T09:36:29.055Z</time>
      </trkpt>
      <trkpt lat="49.52758" lon="-1.67252">
        <ele>143.668437</ele>
        <time>2021-11-21T09:36:33.022Z</time>
      </trkpt>
      <trkpt lat="49.52767" lon="-1.67247">
        <ele>143.794773</ele>
        <time>2021-11-21T09:36:35.851Z</time>
      </trkpt>
      <trkpt lat="49.52779" lon="-1.67241">
        <ele>143.959971</ele>
        <time>2021-11-21T09:36:37.049Z</time>
      </trkpt>
      <trkpt lat="49.5279" lon="-1.67236">
        <ele>144.114312</ele>
        <time>2021-11-21T09:36:39.040Z</time>
      </trkpt>
      <trkpt lat="49.528" lon="-1.67237">
        <ele>144.234857</ele>
        <time>2021-11-21T09:36:41.745Z</time>
      </trkpt>
      <trkpt lat="49.5281" lon="-1.67233">
        <ele>144.370659</ele>
        <time>2021-11-21T09:36:44.002Z</time>
      </trkpt>
      <trkpt lat="49.52823" lon="-1.67224">
        <ele>144.55752</ele>
        <time>2021-11-21T09:36:46.052Z</time>
      </trkpt>
      <trkpt lat="49.52834" lon="-1.6722">
        <ele>144.699317</ele>
        <time>2021-11-21T09:36:48.041Z</time>
      </trkpt>
      <trkpt lat="49.52845" lon="-1.67216">
        <ele>144.842223</ele>
        <time>2021-11-21T09:36:50.052Z</time>
      </trkpt>
      <trkpt lat="49.52855" lon="-1.67213">
        <ele>144.972881</ele>
        <time>2021-11-21T09:36:52.060Z</time>
      </trkpt>
      <trkpt lat="49.52864" lon="-1.6721">
        <ele>145.098487</ele>
        <time>2021-11-21T09:36:54.046Z</time>
      </trkpt>
      <trkpt lat="49.52874" lon="-1.67206">
        <ele>145.225694</ele>
        <time>2021-11-21T09:36:56.058Z</time>
      </trkpt>
      <trkpt lat="49.52883" lon="-1.67201">
        <ele>145.354069</ele>
        <time>2021-11-21T09:36:58.062Z</time>
      </trkpt>
      <trkpt lat="49.52892" lon="-1.67196">
        <ele>145.48365</ele>
        <time>2021-11-21T09:37:00.048Z</time>
      </trkpt>
      <trkpt lat="49.52901" lon="-1.6719">
        <ele>145.604416</ele>
        <time>2021-11-21T09:37:02.065Z</time>
      </trkpt>
      <trkpt lat="49.52912" lon="-1.67184">
        <ele>145.755139</ele>
        <time>2021-11-21T09:37:06.051Z</time>
      </trkpt>
      <trkpt lat="49.52922" lon="-1.67197">
        <ele>145.676239</ele>
        <time>2021-11-21T09:37:09.043Z</time>
      </trkpt>
      <trkpt lat="49.5293" lon="-1.6721">
        <ele>145.221733</ele>
        <time>2021-11-21T09:37:11.038Z</time>
      </trkpt>
      <trkpt lat="49.52939" lon="-1.67224">
        <ele>144.708546</ele>
        <time>2021-11-21T09:37:13.039Z</time>
      </trkpt>
      <trkpt lat="49.5295" lon="-1.6724">
        <ele>144.115569</ele>
        <time>2021-11-21T09:37:15.060Z</time>
      </trkpt>
      <trkpt lat="49.52962" lon="-1.67258">
        <ele>143.463043</ele>
        <time>2021-11-21T09:37:17.053Z</time>
      </trkpt>
      <trkpt lat="49.52975" lon="-1.67276">
        <ele>142.780472</ele>
        <time>2021-11-21T09:37:19.045Z</time>
      </trkpt>
      <trkpt lat="49.52988" lon="-1.67294">
        <ele>142.071712</ele>
        <time>2021-11-21T09:37:21.050Z</time>
      </trkpt>
      <trkpt lat="49.53" lon="-1.67313">
        <ele>141.372106</ele>
        <time>2021-11-21T09:37:23.062Z</time>
      </trkpt>
      <trkpt lat="49.53011" lon="-1.67334">
        <ele>140.704562</ele>
        <time>2021-11-21T09:37:25.045Z</time>
      </trkpt>
      <trkpt lat="49.53021" lon="-1.67354">
        <ele>140.048421</ele>
        <time>2021-11-21T09:37:27.052Z</time>
      </trkpt>
      <trkpt lat="49.53029" lon="-1.67372">
        <ele>139.48541</ele>
        <time>2021-11-21T09:37:29.037Z</time>
      </trkpt>
      <trkpt lat="49.53035" lon="-1.67393">
        <ele>138.909518</ele>
        <time>2021-11-21T09:37:31.042Z</time>
      </trkpt>
      <trkpt lat="49.53039" lon="-1.67413">
        <ele>138.653367</ele>
        <time>2021-11-21T09:37:33.045Z</time>
      </trkpt>
      <trkpt lat="49.53042" lon="-1.67432">
        <ele>138.536765</ele>
        <time>2021-11-21T09:37:35.053Z</time>
      </trkpt>
      <trkpt lat="49.53044" lon="-1.6745">
        <ele>138.427239</ele>
        <time>2021-11-21T09:37:37.040Z</time>
      </trkpt>
      <trkpt lat="49.53044" lon="-1.67468">
        <ele>138.317776</ele>
        <time>2021-11-21T09:37:39.035Z</time>
      </trkpt>
      <trkpt lat="49.53043" lon="-1.67486">
        <ele>138.20776</ele>
        <time>2021-11-21T09:37:41.037Z</time>
      </trkpt>
      <trkpt lat="49.53041" lon="-1.67505">
        <ele>138.095425</ele>
        <time>2021-11-21T09:37:43.050Z</time>
      </trkpt>
      <trkpt lat="49.53038" lon="-1.67522">
        <ele>137.989413</ele>
        <time>2021-11-21T09:37:45.040Z</time>
      </trkpt>
      <trkpt lat="49.53035" lon="-1.67538">
        <ele>137.888965</ele>
        <time>2021-11-21T09:37:47.049Z</time>
      </trkpt>
      <trkpt lat="49.53031" lon="-1.67553">
        <ele>137.79306</ele>
        <time>2021-11-21T09:37:49.053Z</time>
      </trkpt>
      <trkpt lat="49.53028" lon="-1.67574">
        <ele>137.66175</ele>
        <time>2021-11-21T09:37:52.059Z</time>
      </trkpt>
      <trkpt lat="49.53026" lon="-1.67591">
        <ele>137.56281</ele>
        <time>2021-11-21T09:37:54.055Z</time>
      </trkpt>
      <trkpt lat="49.53025" lon="-1.67607">
        <ele>137.468537</ele>
        <time>2021-11-21T09:37:56.033Z</time>
      </trkpt>
      <trkpt lat="49.53026" lon="-1.67622">
        <ele>137.378797</ele>
        <time>2021-11-21T09:37:58.053Z</time>
      </trkpt>
      <trkpt lat="49.53026" lon="-1.67637">
        <ele>137.287282</ele>
        <time>2021-11-21T09:38:00.053Z</time>
      </trkpt>
      <trkpt lat="49.53026" lon="-1.67653">
        <ele>137.192736</ele>
        <time>2021-11-21T09:38:02.049Z</time>
      </trkpt>
      <trkpt lat="49.53027" lon="-1.67669">
        <ele>137.092131</ele>
        <time>2021-11-21T09:38:04.053Z</time>
      </trkpt>
      <trkpt lat="49.5303" lon="-1.67686">
        <ele>137.174783</ele>
        <time>2021-11-21T09:38:06.049Z</time>
      </trkpt>
      <trkpt lat="49.53034" lon="-1.67703">
        <ele>137.286227</ele>
        <time>2021-11-21T09:38:08.051Z</time>
      </trkpt>
      <trkpt lat="49.53037" lon="-1.67722">
        <ele>137.402551</ele>
        <time>2021-11-21T09:38:10.046Z</time>
      </trkpt>
      <trkpt lat="49.53042" lon="-1.6774">
        <ele>137.522677</ele>
        <time>2021-11-21T09:38:12.048Z</time>
      </trkpt>
      <trkpt lat="49.53046" lon="-1.67759">
        <ele>137.641016</ele>
        <time>2021-11-21T09:38:14.033Z</time>
      </trkpt>
      <trkpt lat="49.53049" lon="-1.67777">
        <ele>137.754766</ele>
        <time>2021-11-21T09:38:16.055Z</time>
      </trkpt>
      <trkpt lat="49.53052" lon="-1.67794">
        <ele>137.859925</ele>
        <time>2021-11-21T09:38:18.039Z</time>
      </trkpt>
      <trkpt lat="49.53055" lon="-1.6781">
        <ele>137.958363</ele>
        <time>2021-11-21T09:38:20.040Z</time>
      </trkpt>
      <trkpt lat="49.53057" lon="-1.67824">
        <ele>138.047496</ele>
        <time>2021-11-21T09:38:22.042Z</time>
      </trkpt>
      <trkpt lat="49.5306" lon="-1.67842">
        <ele>138.161631</ele>
        <time>2021-11-21T09:38:25.055Z</time>
      </trkpt>
      <trkpt lat="49.53063" lon="-1.67858">
        <ele>138.257311</ele>
        <time>2021-11-21T09:38:28.058Z</time>
      </trkpt>
      <trkpt lat="49.53065" lon="-1.67871">
        <ele>138.341197</ele>
        <time>2021-11-21T09:38:30.057Z</time>
      </trkpt>
      <trkpt lat="49.5307" lon="-1.67888">
        <ele>138.451499</ele>
        <time>2021-11-21T09:38:34.763Z</time>
      </trkpt>
      <trkpt lat="49.53073" lon="-1.67902">
        <ele>138.544269</ele>
        <time>2021-11-21T09:38:37.818Z</time>
      </trkpt>
      <trkpt lat="49.53079" lon="-1.67914">
        <ele>138.635846</ele>
        <time>2021-11-21T09:38:42.018Z</time>
      </trkpt>
      <trkpt lat="49.5309" lon="-1.67913">
        <ele>138.732007</ele>
        <time>2021-11-21T09:39:09.922Z</time>
      </trkpt>
      <trkpt lat="49.53104" lon="-1.67907">
        <ele>138.533034</ele>
        <time>2021-11-21T09:39:13.045Z</time>
      </trkpt>
      <trkpt lat="49.53116" lon="-1.67902">
        <ele>138.312492</ele>
        <time>2021-11-21T09:39:15.057Z</time>
      </trkpt>
      <trkpt lat="49.53129" lon="-1.67897">
        <ele>138.067379</ele>
        <time>2021-11-21T09:39:17.041Z</time>
      </trkpt>
      <trkpt lat="49.53141" lon="-1.67891">
        <ele>137.821959</ele>
        <time>2021-11-21T09:39:19.041Z</time>
      </trkpt>
      <trkpt lat="49.53154" lon="-1.67886">
        <ele>137.57654</ele>
        <time>2021-11-21T09:39:21.058Z</time>
      </trkpt>
      <trkpt lat="49.53167" lon="-1.67881">
        <ele>137.331745</ele>
        <time>2021-11-21T09:39:23.063Z</time>
      </trkpt>
      <trkpt lat="49.5318" lon="-1.67875">
        <ele>137.094342</ele>
        <time>2021-11-21T09:39:25.064Z</time>
      </trkpt>
      <trkpt lat="49.53192" lon="-1.6787">
        <ele>136.853088</ele>
        <time>2021-11-21T09:39:27.058Z</time>
      </trkpt>
      <trkpt lat="49.53205" lon="-1.67865">
        <ele>136.613604</ele>
        <time>2021-11-21T09:39:29.050Z</time>
      </trkpt>
      <trkpt lat="49.53218" lon="-1.67859">
        <ele>136.372037</ele>
        <time>2021-11-21T09:39:31.041Z</time>
      </trkpt>
      <trkpt lat="49.53231" lon="-1.67854">
        <ele>136.127241</ele>
        <time>2021-11-21T09:39:33.061Z</time>
      </trkpt>
      <trkpt lat="49.53243" lon="-1.67849">
        <ele>135.884218</ele>
        <time>2021-11-21T09:39:35.042Z</time>
      </trkpt>
      <trkpt lat="49.53256" lon="-1.67844">
        <ele>135.645649</ele>
        <time>2021-11-21T09:39:37.064Z</time>
      </trkpt>
      <trkpt lat="49.53269" lon="-1.67839">
        <ele>135.445981</ele>
        <time>2021-11-21T09:39:39.058Z</time>
      </trkpt>
      <trkpt lat="49.53281" lon="-1.67833">
        <ele>135.390091</ele>
        <time>2021-11-21T09:39:41.041Z</time>
      </trkpt>
      <trkpt lat="49.53294" lon="-1.67828">
        <ele>135.334009</ele>
        <time>2021-11-21T09:39:43.059Z</time>
      </trkpt>
      <trkpt lat="49.53306" lon="-1.67823">
        <ele>135.277928</ele>
        <time>2021-11-21T09:39:45.056Z</time>
      </trkpt>
      <trkpt lat="49.53319" lon="-1.67818">
        <ele>135.221431</ele>
        <time>2021-11-21T09:39:47.057Z</time>
      </trkpt>
      <trkpt lat="49.53332" lon="-1.67812">
        <ele>135.16535</ele>
        <time>2021-11-21T09:39:49.033Z</time>
      </trkpt>
      <trkpt lat="49.53344" lon="-1.67807">
        <ele>135.109122</ele>
        <time>2021-11-21T09:39:51.058Z</time>
      </trkpt>
      <trkpt lat="49.53357" lon="-1.67802">
        <ele>135.053871</ele>
        <time>2021-11-21T09:39:53.042Z</time>
      </trkpt>
      <trkpt lat="49.53369" lon="-1.67797">
        <ele>134.998</ele>
        <time>2021-11-21T09:39:55.040Z</time>
      </trkpt>
      <trkpt lat="49.53381" lon="-1.67792">
        <ele>134.943652</ele>
        <time>2021-11-21T09:39:57.054Z</time>
      </trkpt>
      <trkpt lat="49.53393" lon="-1.67787">
        <ele>134.890962</ele>
        <time>2021-11-21T09:39:59.064Z</time>
      </trkpt>
      <trkpt lat="49.53405" lon="-1.67782">
        <ele>134.839249</ele>
        <time>2021-11-21T09:40:01.060Z</time>
      </trkpt>
      <trkpt lat="49.53417" lon="-1.67777">
        <ele>134.787195</ele>
        <time>2021-11-21T09:40:03.060Z</time>
      </trkpt>
      <trkpt lat="49.53428" lon="-1.67772">
        <ele>134.735349</ele>
        <time>2021-11-21T09:40:05.061Z</time>
      </trkpt>
      <trkpt lat="49.5344" lon="-1.67768">
        <ele>134.687505</ele>
        <time>2021-11-21T09:40:07.054Z</time>
      </trkpt>
      <trkpt lat="49.53451" lon="-1.67763">
        <ele>134.82434</ele>
        <time>2021-11-21T09:40:09.058Z</time>
      </trkpt>
      <trkpt lat="49.53463" lon="-1.67758">
        <ele>134.962909</ele>
        <time>2021-11-21T09:40:11.044Z</time>
      </trkpt>
      <trkpt lat="49.53474" lon="-1.67753">
        <ele>135.104263</ele>
        <time>2021-11-21T09:40:13.057Z</time>
      </trkpt>
      <trkpt lat="49.53486" lon="-1.67748">
        <ele>135.242832</ele>
        <time>2021-11-21T09:40:15.052Z</time>
      </trkpt>
      <trkpt lat="49.53497" lon="-1.67743">
        <ele>135.383651</ele>
        <time>2021-11-21T09:40:17.062Z</time>
      </trkpt>
      <trkpt lat="49.53509" lon="-1.67738">
        <ele>135.524471</ele>
        <time>2021-11-21T09:40:19.059Z</time>
      </trkpt>
      <trkpt lat="49.53521" lon="-1.67734">
        <ele>135.666018</ele>
        <time>2021-11-21T09:40:21.040Z</time>
      </trkpt>
      <trkpt lat="49.53532" lon="-1.67729">
        <ele>135.806837</ele>
        <time>2021-11-21T09:40:23.044Z</time>
      </trkpt>
      <trkpt lat="49.53544" lon="-1.67724">
        <ele>135.946127</ele>
        <time>2021-11-21T09:40:25.054Z</time>
      </trkpt>
      <trkpt lat="49.53555" lon="-1.67719">
        <ele>136.08409</ele>
        <time>2021-11-21T09:40:27.041Z</time>
      </trkpt>
      <trkpt lat="49.53567" lon="-1.67714">
        <ele>136.226448</ele>
        <time>2021-11-21T09:40:29.053Z</time>
      </trkpt>
      <trkpt lat="49.53578" lon="-1.67709">
        <ele>136.36516</ele>
        <time>2021-11-21T09:40:31.053Z</time>
      </trkpt>
      <trkpt lat="49.5359" lon="-1.67705">
        <ele>136.501994</ele>
        <time>2021-11-21T09:40:33.053Z</time>
      </trkpt>
      <trkpt lat="49.53601" lon="-1.677">
        <ele>136.63965</ele>
        <time>2021-11-21T09:40:35.061Z</time>
      </trkpt>
      <trkpt lat="49.53612" lon="-1.67695">
        <ele>136.778176</ele>
        <time>2021-11-21T09:40:37.062Z</time>
      </trkpt>
      <trkpt lat="49.53624" lon="-1.67691">
        <ele>137.127539</ele>
        <time>2021-11-21T09:40:39.043Z</time>
      </trkpt>
      <trkpt lat="49.53635" lon="-1.67685">
        <ele>137.488848</ele>
        <time>2021-11-21T09:40:41.046Z</time>
      </trkpt>
      <trkpt lat="49.53646" lon="-1.67681">
        <ele>137.822226</ele>
        <time>2021-11-21T09:40:43.059Z</time>
      </trkpt>
      <trkpt lat="49.53655" lon="-1.67677">
        <ele>138.105614</ele>
        <time>2021-11-21T09:40:45.060Z</time>
      </trkpt>
      <trkpt lat="49.53668" lon="-1.67672">
        <ele>138.527656</ele>
        <time>2021-11-21T09:40:48.039Z</time>
      </trkpt>
      <trkpt lat="49.53679" lon="-1.67667">
        <ele>138.867996</ele>
        <time>2021-11-21T09:40:50.044Z</time>
      </trkpt>
      <trkpt lat="49.53689" lon="-1.67663">
        <ele>139.203839</ele>
        <time>2021-11-21T09:40:52.042Z</time>
      </trkpt>
      <trkpt lat="49.537" lon="-1.67659">
        <ele>139.54122</ele>
        <time>2021-11-21T09:40:54.062Z</time>
      </trkpt>
      <trkpt lat="49.5371" lon="-1.67654">
        <ele>139.870843</ele>
        <time>2021-11-21T09:40:56.059Z</time>
      </trkpt>
      <trkpt lat="49.5372" lon="-1.6765">
        <ele>140.201779</ele>
        <time>2021-11-21T09:40:58.055Z</time>
      </trkpt>
      <trkpt lat="49.53731" lon="-1.67645">
        <ele>140.540594</ele>
        <time>2021-11-21T09:41:00.057Z</time>
      </trkpt>
      <trkpt lat="49.53741" lon="-1.67641">
        <ele>140.868572</ele>
        <time>2021-11-21T09:41:02.043Z</time>
      </trkpt>
      <trkpt lat="49.5375" lon="-1.67637">
        <ele>141.148472</ele>
        <time>2021-11-21T09:41:04.051Z</time>
      </trkpt>
      <trkpt lat="49.53759" lon="-1.67632">
        <ele>141.441977</ele>
        <time>2021-11-21T09:41:07.042Z</time>
      </trkpt>
      <trkpt lat="49.53763" lon="-1.67616">
        <ele>141.770663</ele>
        <time>2021-11-21T09:41:11.438Z</time>
      </trkpt>
      <trkpt lat="49.53758" lon="-1.67597">
        <ele>142.179797</ele>
        <time>2021-11-21T09:41:14.063Z</time>
      </trkpt>
      <trkpt lat="49.53754" lon="-1.6758">
        <ele>142.403779</ele>
        <time>2021-11-21T09:41:16.060Z</time>
      </trkpt>
      <trkpt lat="49.5375" lon="-1.67562">
        <ele>142.556455</ele>
        <time>2021-11-21T09:41:18.036Z</time>
      </trkpt>
      <trkpt lat="49.53745" lon="-1.67546">
        <ele>142.707417</ele>
        <time>2021-11-21T09:41:20.050Z</time>
      </trkpt>
      <trkpt lat="49.53741" lon="-1.67532">
        <ele>142.836317</ele>
        <time>2021-11-21T09:41:22.046Z</time>
      </trkpt>
      <trkpt lat="49.53733" lon="-1.67522">
        <ele>142.959012</ele>
        <time>2021-11-21T09:41:25.321Z</time>
      </trkpt>
      <trkpt lat="49.53734" lon="-1.67505">
        <ele>143.099666</ele>
        <time>2021-11-21T09:41:28.058Z</time>
      </trkpt>
      <trkpt lat="49.53743" lon="-1.67493">
        <ele>143.253315</ele>
        <time>2021-11-21T09:41:31.043Z</time>
      </trkpt>
      <trkpt lat="49.53753" lon="-1.67484">
        <ele>143.396582</ele>
        <time>2021-11-21T09:41:33.062Z</time>
      </trkpt>
      <trkpt lat="49.53761" lon="-1.67476">
        <ele>143.516834</ele>
        <time>2021-11-21T09:41:35.049Z</time>
      </trkpt>
      <trkpt lat="49.53768" lon="-1.67467">
        <ele>143.636495</ele>
        <time>2021-11-21T09:41:37.056Z</time>
      </trkpt>
      <trkpt lat="49.53776" lon="-1.6746">
        <ele>143.752672</ele>
        <time>2021-11-21T09:41:39.058Z</time>
      </trkpt>
      <trkpt lat="49.53783" lon="-1.67451">
        <ele>143.868624</ele>
        <time>2021-11-21T09:41:41.050Z</time>
      </trkpt>
      <trkpt lat="49.5379" lon="-1.67442">
        <ele>143.982061</ele>
        <time>2021-11-21T09:41:43.053Z</time>
      </trkpt>
      <trkpt lat="49.538" lon="-1.6743">
        <ele>144.13578</ele>
        <time>2021-11-21T09:41:47.061Z</time>
      </trkpt>
      <trkpt lat="49.53812" lon="-1.67422">
        <ele>144.304551</ele>
        <time>2021-11-21T09:41:49.623Z</time>
      </trkpt>
      <trkpt lat="49.53821" lon="-1.67414">
        <ele>144.435407</ele>
        <time>2021-11-21T09:41:52.060Z</time>
      </trkpt>
      <trkpt lat="49.5383" lon="-1.67398">
        <ele>144.620975</ele>
        <time>2021-11-21T09:41:55.062Z</time>
      </trkpt>
      <trkpt lat="49.5384" lon="-1.67383">
        <ele>144.829657</ele>
        <time>2021-11-21T09:41:58.046Z</time>
      </trkpt>
      <trkpt lat="49.53848" lon="-1.6737">
        <ele>145.002389</ele>
        <time>2021-11-21T09:42:00.714Z</time>
      </trkpt>
      <trkpt lat="49.53854" lon="-1.67359">
        <ele>145.14299</ele>
        <time>2021-11-21T09:42:03.055Z</time>
      </trkpt>
      <trkpt lat="49.53864" lon="-1.67353">
        <ele>145.312626</ele>
        <time>2021-11-21T09:42:05.934Z</time>
      </trkpt>
      <trkpt lat="49.53875" lon="-1.67349">
        <ele>145.487521</ele>
        <time>2021-11-21T09:42:09.060Z</time>
      </trkpt>
      <trkpt lat="49.53884" lon="-1.67344">
        <ele>145.635599</ele>
        <time>2021-11-21T09:42:12.275Z</time>
      </trkpt>
      <trkpt lat="49.53893" lon="-1.67337">
        <ele>145.781291</ele>
        <time>2021-11-21T09:42:14.841Z</time>
      </trkpt>
      <trkpt lat="49.53901" lon="-1.6733">
        <ele>145.924778</ele>
        <time>2021-11-21T09:42:17.055Z</time>
      </trkpt>
      <trkpt lat="49.53912" lon="-1.67319">
        <ele>146.117007</ele>
        <time>2021-11-21T09:42:20.044Z</time>
      </trkpt>
      <trkpt lat="49.53922" lon="-1.67309">
        <ele>146.304781</ele>
        <time>2021-11-21T09:42:22.886Z</time>
      </trkpt>
      <trkpt lat="49.5393" lon="-1.67302">
        <ele>146.444404</ele>
        <time>2021-11-21T09:42:25.054Z</time>
      </trkpt>
      <trkpt lat="49.5394" lon="-1.67292">
        <ele>146.61958</ele>
        <time>2021-11-21T09:42:27.735Z</time>
      </trkpt>
      <trkpt lat="49.53948" lon="-1.67284">
        <ele>146.769033</ele>
        <time>2021-11-21T09:42:30.047Z</time>
      </trkpt>
      <trkpt lat="49.53957" lon="-1.67274">
        <ele>146.94087</ele>
        <time>2021-11-21T09:42:32.733Z</time>
      </trkpt>
      <trkpt lat="49.53967" lon="-1.67266">
        <ele>147.112729</ele>
        <time>2021-11-21T09:42:35.597Z</time>
      </trkpt>
      <trkpt lat="49.53975" lon="-1.67259">
        <ele>147.253006</ele>
        <time>2021-11-21T09:42:38.041Z</time>
      </trkpt>
      <trkpt lat="49.53984" lon="-1.6725">
        <ele>147.519269</ele>
        <time>2021-11-21T09:42:41.056Z</time>
      </trkpt>
      <trkpt lat="49.53994" lon="-1.67238">
        <ele>147.959636</ele>
        <time>2021-11-21T09:42:43.873Z</time>
      </trkpt>
      <trkpt lat="49.54004" lon="-1.67229">
        <ele>148.35324</ele>
        <time>2021-11-21T09:42:46.045Z</time>
      </trkpt>
      <trkpt lat="49.54012" lon="-1.67222">
        <ele>148.683422</ele>
        <time>2021-11-21T09:42:48.075Z</time>
      </trkpt>
      <trkpt lat="49.54023" lon="-1.67209">
        <ele>149.149521</ele>
        <time>2021-11-21T09:42:51.046Z</time>
      </trkpt>
      <trkpt lat="49.5403" lon="-1.672">
        <ele>149.466577</ele>
        <time>2021-11-21T09:42:53.040Z</time>
      </trkpt>
      <trkpt lat="49.54041" lon="-1.67188">
        <ele>149.915083</ele>
        <time>2021-11-21T09:42:56.047Z</time>
      </trkpt>
      <trkpt lat="49.54051" lon="-1.67176">
        <ele>150.363547</ele>
        <time>2021-11-21T09:42:59.056Z</time>
      </trkpt>
      <trkpt lat="49.54062" lon="-1.67163">
        <ele>150.826793</ele>
        <time>2021-11-21T09:43:02.046Z</time>
      </trkpt>
      <trkpt lat="49.54072" lon="-1.67151">
        <ele>151.267338</ele>
        <time>2021-11-21T09:43:05.063Z</time>
      </trkpt>
      <trkpt lat="49.54082" lon="-1.6714">
        <ele>151.676594</ele>
        <time>2021-11-21T09:43:08.062Z</time>
      </trkpt>
      <trkpt lat="49.5409" lon="-1.67131">
        <ele>152.009869</ele>
        <time>2021-11-21T09:43:10.635Z</time>
      </trkpt>
      <trkpt lat="49.54095" lon="-1.67115">
        <ele>152.415614</ele>
        <time>2021-11-21T09:43:14.677Z</time>
      </trkpt>
      <trkpt lat="49.54097" lon="-1.67099">
        <ele>152.765056</ele>
        <time>2021-11-21T09:43:18.044Z</time>
      </trkpt>
      <trkpt lat="49.54098" lon="-1.6708">
        <ele>153.184834</ele>
        <time>2021-11-21T09:43:22.060Z</time>
      </trkpt>
      <trkpt lat="49.54106" lon="-1.67072">
        <ele>153.548074</ele>
        <time>2021-11-21T09:43:25.055Z</time>
      </trkpt>
      <trkpt lat="49.54114" lon="-1.67063">
        <ele>153.899781</ele>
        <time>2021-11-21T09:43:27.493Z</time>
      </trkpt>
      <trkpt lat="49.54123" lon="-1.67053">
        <ele>154.286358</ele>
        <time>2021-11-21T09:43:29.736Z</time>
      </trkpt>
      <trkpt lat="49.54131" lon="-1.67045">
        <ele>154.654244</ele>
        <time>2021-11-21T09:43:32.693Z</time>
      </trkpt>
      <trkpt lat="49.54139" lon="-1.67036">
        <ele>155.006843</ele>
        <time>2021-11-21T09:43:36.015Z</time>
      </trkpt>
      <trkpt lat="49.54147" lon="-1.67026">
        <ele>155.371222</ele>
        <time>2021-11-21T09:43:39.678Z</time>
      </trkpt>
      <trkpt lat="49.54157" lon="-1.67016">
        <ele>155.801889</ele>
        <time>2021-11-21T09:43:43.560Z</time>
      </trkpt>
      <trkpt lat="49.54165" lon="-1.67006">
        <ele>156.180879</ele>
        <time>2021-11-21T09:43:46.557Z</time>
      </trkpt>
      <trkpt lat="49.54173" lon="-1.66998">
        <ele>156.527091</ele>
        <time>2021-11-21T09:43:48.854Z</time>
      </trkpt>
      <trkpt lat="49.54181" lon="-1.66989">
        <ele>156.888363</ele>
        <time>2021-11-21T09:43:51.056Z</time>
      </trkpt>
      <trkpt lat="49.54189" lon="-1.66981">
        <ele>157.245797</ele>
        <time>2021-11-21T09:43:52.859Z</time>
      </trkpt>
      <trkpt lat="49.54197" lon="-1.66972">
        <ele>157.605012</ele>
        <time>2021-11-21T09:43:54.678Z</time>
      </trkpt>
      <trkpt lat="49.54207" lon="-1.66963">
        <ele>158.024985</ele>
        <time>2021-11-21T09:43:56.855Z</time>
      </trkpt>
      <trkpt lat="49.54217" lon="-1.66954">
        <ele>158.439621</ele>
        <time>2021-11-21T09:43:59.050Z</time>
      </trkpt>
      <trkpt lat="49.54229" lon="-1.66943">
        <ele>158.940737</ele>
        <time>2021-11-21T09:44:01.777Z</time>
      </trkpt>
      <trkpt lat="49.54239" lon="-1.66933">
        <ele>159.392393</ele>
        <time>2021-11-21T09:44:04.794Z</time>
      </trkpt>
      <trkpt lat="49.54247" lon="-1.66926">
        <ele>159.729408</ele>
        <time>2021-11-21T09:44:06.718Z</time>
      </trkpt>
      <trkpt lat="49.54257" lon="-1.66917">
        <ele>160.150865</ele>
        <time>2021-11-21T09:44:08.735Z</time>
      </trkpt>
      <trkpt lat="49.54266" lon="-1.66909">
        <ele>160.633164</ele>
        <time>2021-11-21T09:44:10.558Z</time>
      </trkpt>
      <trkpt lat="49.54275" lon="-1.66899">
        <ele>161.135424</ele>
        <time>2021-11-21T09:44:12.617Z</time>
      </trkpt>
      <trkpt lat="49.54284" lon="-1.6689">
        <ele>161.626202</ele>
        <time>2021-11-21T09:44:15.042Z</time>
      </trkpt>
      <trkpt lat="49.54294" lon="-1.66881">
        <ele>162.151559</ele>
        <time>2021-11-21T09:44:17.842Z</time>
      </trkpt>
      <trkpt lat="49.54305" lon="-1.66868">
        <ele>162.77376</ele>
        <time>2021-11-21T09:44:20.837Z</time>
      </trkpt>
      <trkpt lat="49.54315" lon="-1.66857">
        <ele>163.334989</ele>
        <time>2021-11-21T09:44:23.315Z</time>
      </trkpt>
      <trkpt lat="49.54323" lon="-1.66848">
        <ele>163.789119</ele>
        <time>2021-11-21T09:44:25.437Z</time>
      </trkpt>
      <trkpt lat="49.54332" lon="-1.66838">
        <ele>164.296472</ele>
        <time>2021-11-21T09:44:27.716Z</time>
      </trkpt>
      <trkpt lat="49.5434" lon="-1.66829">
        <ele>164.733697</ele>
        <time>2021-11-21T09:44:30.043Z</time>
      </trkpt>
      <trkpt lat="49.54348" lon="-1.6682">
        <ele>165.199693</ele>
        <time>2021-11-21T09:44:32.215Z</time>
      </trkpt>
      <trkpt lat="49.54357" lon="-1.6681">
        <ele>165.705336</ele>
        <time>2021-11-21T09:44:34.673Z</time>
      </trkpt>
      <trkpt lat="49.54365" lon="-1.668">
        <ele>166.140488</ele>
        <time>2021-11-21T09:44:37.051Z</time>
      </trkpt>
      <trkpt lat="49.5437" lon="-1.66789">
        <ele>166.558859</ele>
        <time>2021-11-21T09:44:39.584Z</time>
      </trkpt>
      <trkpt lat="49.54374" lon="-1.66774">
        <ele>167.02049</ele>
        <time>2021-11-21T09:44:43.023Z</time>
      </trkpt>
      <trkpt lat="49.54378" lon="-1.66759">
        <ele>167.493851</ele>
        <time>2021-11-21T09:44:46.052Z</time>
      </trkpt>
      <trkpt lat="49.54382" lon="-1.66743">
        <ele>167.994463</ele>
        <time>2021-11-21T09:44:49.060Z</time>
      </trkpt>
      <trkpt lat="49.54386" lon="-1.6673">
        <ele>168.315024</ele>
        <time>2021-11-21T09:44:51.060Z</time>
      </trkpt>
      <trkpt lat="49.54389" lon="-1.66716">
        <ele>168.608796</ele>
        <time>2021-11-21T09:44:53.623Z</time>
      </trkpt>
      <trkpt lat="49.54394" lon="-1.66702">
        <ele>168.892593</ele>
        <time>2021-11-21T09:44:56.963Z</time>
      </trkpt>
      <trkpt lat="49.54402" lon="-1.66696">
        <ele>169.150541</ele>
        <time>2021-11-21T09:45:02.043Z</time>
      </trkpt>
      <trkpt lat="49.54411" lon="-1.66701">
        <ele>169.436904</ele>
        <time>2021-11-21T09:45:07.564Z</time>
      </trkpt>
      <trkpt lat="49.5442" lon="-1.66697">
        <ele>169.700071</ele>
        <time>2021-11-21T09:45:12.203Z</time>
      </trkpt>
      <trkpt lat="49.54427" lon="-1.66682">
        <ele>170.042883</ele>
        <time>2021-11-21T09:45:17.042Z</time>
      </trkpt>
      <trkpt lat="49.54435" lon="-1.66669">
        <ele>170.377976</ele>
        <time>2021-11-21T09:45:20.864Z</time>
      </trkpt>
      <trkpt lat="49.54442" lon="-1.66656">
        <ele>170.692475</ele>
        <time>2021-11-21T09:45:24.054Z</time>
      </trkpt>
      <trkpt lat="49.5445" lon="-1.66644">
        <ele>171.016429</ele>
        <time>2021-11-21T09:45:27.051Z</time>
      </trkpt>
      <trkpt lat="49.54457" lon="-1.66632">
        <ele>171.309129</ele>
        <time>2021-11-21T09:45:29.681Z</time>
      </trkpt>
      <trkpt lat="49.54464" lon="-1.66618">
        <ele>171.644457</ele>
        <time>2021-11-21T09:45:32.285Z</time>
      </trkpt>
      <trkpt lat="49.5447" lon="-1.66601">
        <ele>171.994773</ele>
        <time>2021-11-21T09:45:35.626Z</time>
      </trkpt>
      <trkpt lat="49.54475" lon="-1.66584">
        <ele>172.338966</ele>
        <time>2021-11-21T09:45:39.039Z</time>
      </trkpt>
      <trkpt lat="49.54479" lon="-1.66571">
        <ele>172.600291</ele>
        <time>2021-11-21T09:45:41.564Z</time>
      </trkpt>
      <trkpt lat="49.54482" lon="-1.66559">
        <ele>172.857051</ele>
        <time>2021-11-21T09:45:44.048Z</time>
      </trkpt>
      <trkpt lat="49.54487" lon="-1.66544">
        <ele>173.162662</ele>
        <time>2021-11-21T09:45:46.943Z</time>
      </trkpt>
      <trkpt lat="49.54492" lon="-1.66529">
        <ele>173.611309</ele>
        <time>2021-11-21T09:45:50.051Z</time>
      </trkpt>
      <trkpt lat="49.54498" lon="-1.66514">
        <ele>174.1462</ele>
        <time>2021-11-21T09:45:53.050Z</time>
      </trkpt>
      <trkpt lat="49.54504" lon="-1.66499">
        <ele>174.725215</ele>
        <time>2021-11-21T09:45:55.940Z</time>
      </trkpt>
      <trkpt lat="49.5451" lon="-1.66486">
        <ele>175.213607</ele>
        <time>2021-11-21T09:45:58.919Z</time>
      </trkpt>
      <trkpt lat="49.5452" lon="-1.66464">
        <ele>176.068464</ele>
        <time>2021-11-21T09:46:03.484Z</time>
      </trkpt>
      <trkpt lat="49.54527" lon="-1.66449">
        <ele>176.687987</ele>
        <time>2021-11-21T09:46:06.519Z</time>
      </trkpt>
      <trkpt lat="49.54534" lon="-1.66433">
        <ele>177.285665</ele>
        <time>2021-11-21T09:46:10.048Z</time>
      </trkpt>
      <trkpt lat="49.54539" lon="-1.66421">
        <ele>177.725917</ele>
        <time>2021-11-21T09:46:11.941Z</time>
      </trkpt>
      <trkpt lat="49.54545" lon="-1.66406">
        <ele>178.273331</ele>
        <time>2021-11-21T09:46:15.043Z</time>
      </trkpt>
      <trkpt lat="49.54553" lon="-1.66391">
        <ele>178.902062</ele>
        <time>2021-11-21T09:46:18.979Z</time>
      </trkpt>
      <trkpt lat="49.5456" lon="-1.6638">
        <ele>179.403593</ele>
        <time>2021-11-21T09:46:23.059Z</time>
      </trkpt>
      <trkpt lat="49.54566" lon="-1.66369">
        <ele>179.870862</ele>
        <time>2021-11-21T09:46:27.800Z</time>
      </trkpt>
      <trkpt lat="49.54571" lon="-1.66356">
        <ele>180.328318</ele>
        <time>2021-11-21T09:46:32.998Z</time>
      </trkpt>
      <trkpt lat="49.54573" lon="-1.66342">
        <ele>180.808144</ele>
        <time>2021-11-21T09:46:37.567Z</time>
      </trkpt>
      <trkpt lat="49.54574" lon="-1.66325">
        <ele>181.332063</ele>
        <time>2021-11-21T09:46:42.861Z</time>
      </trkpt>
      <trkpt lat="49.54573" lon="-1.66311">
        <ele>181.804042</ele>
        <time>2021-11-21T09:46:46.020Z</time>
      </trkpt>
      <trkpt lat="49.54572" lon="-1.66296">
        <ele>182.025281</ele>
        <time>2021-11-21T09:46:49.044Z</time>
      </trkpt>
      <trkpt lat="49.54569" lon="-1.66278">
        <ele>181.623321</ele>
        <time>2021-11-21T09:46:52.820Z</time>
      </trkpt>
      <trkpt lat="49.54567" lon="-1.66263">
        <ele>181.320111</ele>
        <time>2021-11-21T09:46:55.770Z</time>
      </trkpt>
      <trkpt lat="49.54566" lon="-1.66249">
        <ele>181.009082</ele>
        <time>2021-11-21T09:46:59.047Z</time>
      </trkpt>
      <trkpt lat="49.54564" lon="-1.66234">
        <ele>180.706282</ele>
        <time>2021-11-21T09:47:02.053Z</time>
      </trkpt>
      <trkpt lat="49.54561" lon="-1.66221">
        <ele>180.414431</ele>
        <time>2021-11-21T09:47:16.051Z</time>
      </trkpt>
      <trkpt lat="49.54559" lon="-1.66207">
        <ele>180.107407</ele>
        <time>2021-11-21T09:47:34.798Z</time>
      </trkpt>
      <trkpt lat="49.54559" lon="-1.66191">
        <ele>179.777318</ele>
        <time>2021-11-21T09:47:38.955Z</time>
      </trkpt>
      <trkpt lat="49.54561" lon="-1.66176">
        <ele>179.464016</ele>
        <time>2021-11-21T09:47:41.699Z</time>
      </trkpt>
      <trkpt lat="49.5456" lon="-1.66158">
        <ele>179.077858</ele>
        <time>2021-11-21T09:47:44.979Z</time>
      </trkpt>
      <trkpt lat="49.5456" lon="-1.66139">
        <ele>178.689081</ele>
        <time>2021-11-21T09:47:47.663Z</time>
      </trkpt>
      <trkpt lat="49.54557" lon="-1.66121">
        <ele>178.311087</ele>
        <time>2021-11-21T09:47:50.057Z</time>
      </trkpt>
      <trkpt lat="49.54555" lon="-1.66106">
        <ele>177.9868</ele>
        <time>2021-11-21T09:47:51.996Z</time>
      </trkpt>
      <trkpt lat="49.54553" lon="-1.66091">
        <ele>177.668471</ele>
        <time>2021-11-21T09:47:53.578Z</time>
      </trkpt>
      <trkpt lat="49.54548" lon="-1.66069">
        <ele>177.176782</ele>
        <time>2021-11-21T09:47:56.045Z</time>
      </trkpt>
      <trkpt lat="49.54545" lon="-1.6603">
        <ele>176.366704</ele>
        <time>2021-11-21T09:47:58.041Z</time>
      </trkpt>
      <trkpt lat="49.54544" lon="-1.66005">
        <ele>175.892055</ele>
        <time>2021-11-21T09:48:00.053Z</time>
      </trkpt>
      <trkpt lat="49.54543" lon="-1.6598">
        <ele>175.440797</ele>
        <time>2021-11-21T09:48:02.049Z</time>
      </trkpt>
      <trkpt lat="49.54543" lon="-1.65956">
        <ele>175.000674</ele>
        <time>2021-11-21T09:48:04.053Z</time>
      </trkpt>
      <trkpt lat="49.5454" lon="-1.65935">
        <ele>174.603075</ele>
        <time>2021-11-21T09:48:06.050Z</time>
      </trkpt>
      <trkpt lat="49.54538" lon="-1.65914">
        <ele>174.21678</ele>
        <time>2021-11-21T09:48:08.047Z</time>
      </trkpt>
      <trkpt lat="49.54535" lon="-1.65897">
        <ele>173.903063</ele>
        <time>2021-11-21T09:48:10.067Z</time>
      </trkpt>
      <trkpt lat="49.54532" lon="-1.6588">
        <ele>173.583021</ele>
        <time>2021-11-21T09:48:13.042Z</time>
      </trkpt>
      <trkpt lat="49.54533" lon="-1.65866">
        <ele>173.320852</ele>
        <time>2021-11-21T09:48:16.050Z</time>
      </trkpt>
      <trkpt lat="49.54541" lon="-1.65858">
        <ele>173.03967</ele>
        <time>2021-11-21T09:48:19.039Z</time>
      </trkpt>
      <trkpt lat="49.54549" lon="-1.65849">
        <ele>172.782503</ele>
        <time>2021-11-21T09:48:21.227Z</time>
      </trkpt>
      <trkpt lat="49.54558" lon="-1.6584">
        <ele>172.475738</ele>
        <time>2021-11-21T09:48:24.005Z</time>
      </trkpt>
      <trkpt lat="49.54566" lon="-1.65832">
        <ele>172.211372</ele>
        <time>2021-11-21T09:48:26.509Z</time>
      </trkpt>
      <trkpt lat="49.54576" lon="-1.65821">
        <ele>171.858546</ele>
        <time>2021-11-21T09:48:29.791Z</time>
      </trkpt>
      <trkpt lat="49.54585" lon="-1.65813">
        <ele>171.553988</ele>
        <time>2021-11-21T09:48:33.054Z</time>
      </trkpt>
      <trkpt lat="49.54592" lon="-1.65804">
        <ele>171.298932</ele>
        <time>2021-11-21T09:48:37.036Z</time>
      </trkpt>
      <trkpt lat="49.54602" lon="-1.65794">
        <ele>170.265618</ele>
        <time>2021-11-21T09:48:56.875Z</time>
      </trkpt>
      <trkpt lat="49.54611" lon="-1.65784">
        <ele>169.183616</ele>
        <time>2021-11-21T09:49:00.695Z</time>
      </trkpt>
      <trkpt lat="49.54619" lon="-1.65777">
        <ele>168.253817</ele>
        <time>2021-11-21T09:49:04.056Z</time>
      </trkpt>
      <trkpt lat="49.54628" lon="-1.65768">
        <ele>167.204773</ele>
        <time>2021-11-21T09:49:08.637Z</time>
      </trkpt>
      <trkpt lat="49.54638" lon="-1.65758">
        <ele>166.055933</ele>
        <time>2021-11-21T09:49:11.877Z</time>
      </trkpt>
      <trkpt lat="49.54646" lon="-1.65751">
        <ele>165.156002</ele>
        <time>2021-11-21T09:49:13.898Z</time>
      </trkpt>
      <trkpt lat="49.54657" lon="-1.65744">
        <ele>164.006673</ele>
        <time>2021-11-21T09:49:15.785Z</time>
      </trkpt>
      <trkpt lat="49.54666" lon="-1.65734">
        <ele>162.852262</ele>
        <time>2021-11-21T09:49:18.688Z</time>
      </trkpt>
      <trkpt lat="49.54673" lon="-1.6572">
        <ele>161.75385</ele>
        <time>2021-11-21T09:49:20.057Z</time>
      </trkpt>
      <trkpt lat="49.54679" lon="-1.65704">
        <ele>160.539258</ele>
        <time>2021-11-21T09:49:22.048Z</time>
      </trkpt>
      <trkpt lat="49.54686" lon="-1.65687">
        <ele>159.256187</ele>
        <time>2021-11-21T09:49:24.047Z</time>
      </trkpt>
      <trkpt lat="49.54693" lon="-1.65673">
        <ele>158.170705</ele>
        <time>2021-11-21T09:49:26.040Z</time>
      </trkpt>
      <trkpt lat="49.547" lon="-1.65658">
        <ele>156.965447</ele>
        <time>2021-11-21T09:49:28.052Z</time>
      </trkpt>
      <trkpt lat="49.54708" lon="-1.65643">
        <ele>155.722233</ele>
        <time>2021-11-21T09:49:30.035Z</time>
      </trkpt>
      <trkpt lat="49.54716" lon="-1.65628">
        <ele>154.498306</ele>
        <time>2021-11-21T09:49:32.044Z</time>
      </trkpt>
      <trkpt lat="49.54723" lon="-1.65614">
        <ele>153.386947</ele>
        <time>2021-11-21T09:49:34.055Z</time>
      </trkpt>
      <trkpt lat="49.5473" lon="-1.65601">
        <ele>152.236696</ele>
        <time>2021-11-21T09:49:36.049Z</time>
      </trkpt>
      <trkpt lat="49.54738" lon="-1.65588">
        <ele>151.03092</ele>
        <time>2021-11-21T09:49:38.051Z</time>
      </trkpt>
      <trkpt lat="49.54746" lon="-1.65577">
        <ele>149.891658</ele>
        <time>2021-11-21T09:49:40.065Z</time>
      </trkpt>
      <trkpt lat="49.54757" lon="-1.65566">
        <ele>148.588076</ele>
        <time>2021-11-21T09:49:42.059Z</time>
      </trkpt>
      <trkpt lat="49.54766" lon="-1.65563">
        <ele>147.556655</ele>
        <time>2021-11-21T09:49:45.053Z</time>
      </trkpt>
      <trkpt lat="49.54774" lon="-1.65552">
        <ele>146.456892</ele>
        <time>2021-11-21T09:49:47.024Z</time>
      </trkpt>
      <trkpt lat="49.54783" lon="-1.65532">
        <ele>144.836456</ele>
        <time>2021-11-21T09:49:49.044Z</time>
      </trkpt>
      <trkpt lat="49.54788" lon="-1.65518">
        <ele>143.717745</ele>
        <time>2021-11-21T09:49:52.686Z</time>
      </trkpt>
      <trkpt lat="49.54792" lon="-1.65502">
        <ele>142.560075</ele>
        <time>2021-11-21T09:49:54.848Z</time>
      </trkpt>
      <trkpt lat="49.54795" lon="-1.65488">
        <ele>141.595872</ele>
        <time>2021-11-21T09:49:56.749Z</time>
      </trkpt>
      <trkpt lat="49.54796" lon="-1.65467">
        <ele>140.22313</ele>
        <time>2021-11-21T09:49:58.039Z</time>
      </trkpt>
      <trkpt lat="49.54797" lon="-1.65448">
        <ele>138.898275</ele>
        <time>2021-11-21T09:50:00.036Z</time>
      </trkpt>
      <trkpt lat="49.54798" lon="-1.65425">
        <ele>137.355494</ele>
        <time>2021-11-21T09:50:02.039Z</time>
      </trkpt>
      <trkpt lat="49.54799" lon="-1.65399">
        <ele>135.603318</ele>
        <time>2021-11-21T09:50:04.031Z</time>
      </trkpt>
      <trkpt lat="49.548" lon="-1.65383">
        <ele>134.779927</ele>
        <time>2021-11-21T09:50:05.040Z</time>
      </trkpt>
      <trkpt lat="49.54801" lon="-1.65366">
        <ele>134.359788</ele>
        <time>2021-11-21T09:50:06.041Z</time>
      </trkpt>
      <trkpt lat="49.54801" lon="-1.65349">
        <ele>133.938424</ele>
        <time>2021-11-21T09:50:07.054Z</time>
      </trkpt>
      <trkpt lat="49.54801" lon="-1.65331">
        <ele>133.499971</ele>
        <time>2021-11-21T09:50:08.052Z</time>
      </trkpt>
      <trkpt lat="49.54801" lon="-1.65313">
        <ele>133.056591</ele>
        <time>2021-11-21T09:50:09.036Z</time>
      </trkpt>
      <trkpt lat="49.54801" lon="-1.65298">
        <ele>132.684626</ele>
        <time>2021-11-21T09:50:10.049Z</time>
      </trkpt>
      <trkpt lat="49.54802" lon="-1.65276">
        <ele>132.149447</ele>
        <time>2021-11-21T09:50:12.048Z</time>
      </trkpt>
      <trkpt lat="49.54803" lon="-1.65256">
        <ele>131.651076</ele>
        <time>2021-11-21T09:50:15.046Z</time>
      </trkpt>
      <trkpt lat="49.54804" lon="-1.65242">
        <ele>131.298509</ele>
        <time>2021-11-21T09:50:17.046Z</time>
      </trkpt>
      <trkpt lat="49.54817" lon="-1.65244">
        <ele>130.785122</ele>
        <time>2021-11-21T09:50:25.048Z</time>
      </trkpt>
      <trkpt lat="49.54829" lon="-1.6525">
        <ele>130.323629</ele>
        <time>2021-11-21T09:50:27.053Z</time>
      </trkpt>
      <trkpt lat="49.54838" lon="-1.65256">
        <ele>129.931258</ele>
        <time>2021-11-21T09:50:29.056Z</time>
      </trkpt>
      <trkpt lat="49.54847" lon="-1.65262">
        <ele>129.553526</ele>
        <time>2021-11-21T09:50:31.042Z</time>
      </trkpt>
      <trkpt lat="49.54856" lon="-1.65268">
        <ele>129.188565</ele>
        <time>2021-11-21T09:50:33.054Z</time>
      </trkpt>
      <trkpt lat="49.54865" lon="-1.65273">
        <ele>128.838731</ele>
        <time>2021-11-21T09:50:35.048Z</time>
      </trkpt>
      <trkpt lat="49.54874" lon="-1.65278">
        <ele>128.480038</ele>
        <time>2021-11-21T09:50:37.051Z</time>
      </trkpt>
      <trkpt lat="49.54882" lon="-1.65284">
        <ele>128.134503</ele>
        <time>2021-11-21T09:50:39.038Z</time>
      </trkpt>
      <trkpt lat="49.5489" lon="-1.65291">
        <ele>128.271892</ele>
        <time>2021-11-21T09:50:41.059Z</time>
      </trkpt>
      <trkpt lat="49.54898" lon="-1.65299">
        <ele>128.451888</ele>
        <time>2021-11-21T09:50:43.041Z</time>
      </trkpt>
      <trkpt lat="49.54906" lon="-1.65309">
        <ele>128.638454</ele>
        <time>2021-11-21T09:50:45.044Z</time>
      </trkpt>
      <trkpt lat="49.54912" lon="-1.6532">
        <ele>128.825558</ele>
        <time>2021-11-21T09:50:47.057Z</time>
      </trkpt>
      <trkpt lat="49.5492" lon="-1.65335">
        <ele>129.054375</ele>
        <time>2021-11-21T09:50:50.050Z</time>
      </trkpt>
      <trkpt lat="49.54926" lon="-1.65348">
        <ele>129.255047</ele>
        <time>2021-11-21T09:50:52.047Z</time>
      </trkpt>
      <trkpt lat="49.54934" lon="-1.65364">
        <ele>129.506479</ele>
        <time>2021-11-21T09:50:55.052Z</time>
      </trkpt>
      <trkpt lat="49.5494" lon="-1.65378">
        <ele>129.702848</ele>
        <time>2021-11-21T09:50:57.543Z</time>
      </trkpt>
      <trkpt lat="49.54947" lon="-1.6539">
        <ele>129.90074</ele>
        <time>2021-11-21T09:50:59.887Z</time>
      </trkpt>
      <trkpt lat="49.54953" lon="-1.65401">
        <ele>130.075789</ele>
        <time>2021-11-21T09:51:02.042Z</time>
      </trkpt>
      <trkpt lat="49.54959" lon="-1.65413">
        <ele>130.272199</ele>
        <time>2021-11-21T09:51:04.563Z</time>
      </trkpt>
      <trkpt lat="49.54965" lon="-1.65427">
        <ele>130.4777</ele>
        <time>2021-11-21T09:51:07.723Z</time>
      </trkpt>
      <trkpt lat="49.54972" lon="-1.65439">
        <ele>130.667289</ele>
        <time>2021-11-21T09:51:10.848Z</time>
      </trkpt>
      <trkpt lat="49.54977" lon="-1.65455">
        <ele>130.884243</ele>
        <time>2021-11-21T09:51:14.055Z</time>
      </trkpt>
      <trkpt lat="49.54986" lon="-1.6546">
        <ele>131.073997</ele>
        <time>2021-11-21T09:51:18.547Z</time>
      </trkpt>
      <trkpt lat="49.54996" lon="-1.65456">
        <ele>131.271449</ele>
        <time>2021-11-21T09:51:21.627Z</time>
      </trkpt>
      <trkpt lat="49.55006" lon="-1.65453">
        <ele>131.457284</ele>
        <time>2021-11-21T09:51:25.647Z</time>
      </trkpt>
      <trkpt lat="49.55016" lon="-1.6545">
        <ele>131.613775</ele>
        <time>2021-11-21T09:51:29.786Z</time>
      </trkpt>
      <trkpt lat="49.55026" lon="-1.65446">
        <ele>131.773981</ele>
        <time>2021-11-21T09:51:33.063Z</time>
      </trkpt>
      <trkpt lat="49.55036" lon="-1.65441">
        <ele>131.930532</ele>
        <time>2021-11-21T09:51:35.748Z</time>
      </trkpt>
      <trkpt lat="49.55044" lon="-1.65433">
        <ele>132.07391</ele>
        <time>2021-11-21T09:51:37.761Z</time>
      </trkpt>
      <trkpt lat="49.5505" lon="-1.65417">
        <ele>132.242451</ele>
        <time>2021-11-21T09:51:40.486Z</time>
      </trkpt>
      <trkpt lat="49.55055" lon="-1.65404">
        <ele>132.390266</ele>
        <time>2021-11-21T09:51:43.050Z</time>
      </trkpt>
      <trkpt lat="49.5506" lon="-1.65391">
        <ele>132.537079</ele>
        <time>2021-11-21T09:51:45.323Z</time>
      </trkpt>
      <trkpt lat="49.55064" lon="-1.65376">
        <ele>132.694668</ele>
        <time>2021-11-21T09:51:47.866Z</time>
      </trkpt>
      <trkpt lat="49.55063" lon="-1.65359">
        <ele>132.852961</ele>
        <time>2021-11-21T09:51:50.665Z</time>
      </trkpt>
      <trkpt lat="49.55058" lon="-1.65344">
        <ele>133.016507</ele>
        <time>2021-11-21T09:51:53.051Z</time>
      </trkpt>
      <trkpt lat="49.55051" lon="-1.65328">
        <ele>133.20144</ele>
        <time>2021-11-21T09:51:55.050Z</time>
      </trkpt>
      <trkpt lat="49.55044" lon="-1.65312">
        <ele>133.393327</ele>
        <time>2021-11-21T09:51:57.035Z</time>
      </trkpt>
      <trkpt lat="49.55041" lon="-1.65294">
        <ele>133.573222</ele>
        <time>2021-11-21T09:51:59.040Z</time>
      </trkpt>
      <trkpt lat="49.55042" lon="-1.65275">
        <ele>133.751089</ele>
        <time>2021-11-21T09:52:01.042Z</time>
      </trkpt>
      <trkpt lat="49.55047" lon="-1.65259">
        <ele>133.918121</ele>
        <time>2021-11-21T09:52:03.041Z</time>
      </trkpt>
      <trkpt lat="49.55055" lon="-1.65248">
        <ele>134.074281</ele>
        <time>2021-11-21T09:52:05.038Z</time>
      </trkpt>
      <trkpt lat="49.55064" lon="-1.65239">
        <ele>134.367822</ele>
        <time>2021-11-21T09:52:07.051Z</time>
      </trkpt>
      <trkpt lat="49.55073" lon="-1.65232">
        <ele>134.848919</ele>
        <time>2021-11-21T09:52:09.048Z</time>
      </trkpt>
      <trkpt lat="49.55082" lon="-1.65223">
        <ele>135.320386</ele>
        <time>2021-11-21T09:52:11.045Z</time>
      </trkpt>
      <trkpt lat="49.55091" lon="-1.65214">
        <ele>135.825787</ele>
        <time>2021-11-21T09:52:13.039Z</time>
      </trkpt>
      <trkpt lat="49.55101" lon="-1.65205">
        <ele>136.321238</ele>
        <time>2021-11-21T09:52:15.049Z</time>
      </trkpt>
      <trkpt lat="49.55111" lon="-1.65196">
        <ele>136.858959</ele>
        <time>2021-11-21T09:52:17.034Z</time>
      </trkpt>
      <trkpt lat="49.55122" lon="-1.65188">
        <ele>137.399165</ele>
        <time>2021-11-21T09:52:19.049Z</time>
      </trkpt>
      <trkpt lat="49.55131" lon="-1.65179">
        <ele>137.910799</ele>
        <time>2021-11-21T09:52:21.051Z</time>
      </trkpt>
      <trkpt lat="49.55141" lon="-1.65169">
        <ele>138.42964</ele>
        <time>2021-11-21T09:52:23.057Z</time>
      </trkpt>
      <trkpt lat="49.5515" lon="-1.65157">
        <ele>138.977782</ele>
        <time>2021-11-21T09:52:25.036Z</time>
      </trkpt>
      <trkpt lat="49.55158" lon="-1.65144">
        <ele>139.513531</ele>
        <time>2021-11-21T09:52:27.050Z</time>
      </trkpt>
      <trkpt lat="49.55167" lon="-1.65133">
        <ele>140.039645</ele>
        <time>2021-11-21T09:52:29.055Z</time>
      </trkpt>
      <trkpt lat="49.55177" lon="-1.65122">
        <ele>140.562005</ele>
        <time>2021-11-21T09:52:31.054Z</time>
      </trkpt>
      <trkpt lat="49.55186" lon="-1.65112">
        <ele>141.063465</ele>
        <time>2021-11-21T09:52:33.048Z</time>
      </trkpt>
      <trkpt lat="49.55195" lon="-1.65104">
        <ele>141.555927</ele>
        <time>2021-11-21T09:52:35.053Z</time>
      </trkpt>
      <trkpt lat="49.55204" lon="-1.65097">
        <ele>142.030371</ele>
        <time>2021-11-21T09:52:37.054Z</time>
      </trkpt>
      <trkpt lat="49.55214" lon="-1.6509">
        <ele>142.391916</ele>
        <time>2021-11-21T09:52:39.042Z</time>
      </trkpt>
      <trkpt lat="49.55223" lon="-1.65084">
        <ele>142.578641</ele>
        <time>2021-11-21T09:52:41.042Z</time>
      </trkpt>
      <trkpt lat="49.55231" lon="-1.65078">
        <ele>142.766913</ele>
        <time>2021-11-21T09:52:43.040Z</time>
      </trkpt>
      <trkpt lat="49.55241" lon="-1.65071">
        <ele>142.96116</ele>
        <time>2021-11-21T09:52:45.054Z</time>
      </trkpt>
      <trkpt lat="49.5525" lon="-1.65065">
        <ele>143.15942</ele>
        <time>2021-11-21T09:52:47.035Z</time>
      </trkpt>
      <trkpt lat="49.5526" lon="-1.65058">
        <ele>143.366695</ele>
        <time>2021-11-21T09:52:49.042Z</time>
      </trkpt>
      <trkpt lat="49.5527" lon="-1.65053">
        <ele>143.56973</ele>
        <time>2021-11-21T09:52:51.054Z</time>
      </trkpt>
      <trkpt lat="49.55279" lon="-1.65048">
        <ele>143.749961</ele>
        <time>2021-11-21T09:52:53.052Z</time>
      </trkpt>
      <trkpt lat="49.55288" lon="-1.65042">
        <ele>143.943223</ele>
        <time>2021-11-21T09:52:55.053Z</time>
      </trkpt>
      <trkpt lat="49.55299" lon="-1.65036">
        <ele>144.166389</ele>
        <time>2021-11-21T09:52:58.039Z</time>
      </trkpt>
      <trkpt lat="49.5531" lon="-1.65029">
        <ele>144.387328</ele>
        <time>2021-11-21T09:53:02.045Z</time>
      </trkpt>
      <trkpt lat="49.55319" lon="-1.6502">
        <ele>144.600853</ele>
        <time>2021-11-21T09:53:05.566Z</time>
      </trkpt>
      <trkpt lat="49.55324" lon="-1.65008">
        <ele>144.773264</ele>
        <time>2021-11-21T09:53:08.040Z</time>
      </trkpt>
      <trkpt lat="49.55325" lon="-1.6499">
        <ele>145.00523</ele>
        <time>2021-11-21T09:53:11.051Z</time>
      </trkpt>
      <trkpt lat="49.55323" lon="-1.64971">
        <ele>145.239865</ele>
        <time>2021-11-21T09:53:13.728Z</time>
      </trkpt>
      <trkpt lat="49.55318" lon="-1.64952">
        <ele>145.490436</ele>
        <time>2021-11-21T09:53:16.036Z</time>
      </trkpt>
      <trkpt lat="49.55315" lon="-1.64937">
        <ele>145.686287</ele>
        <time>2021-11-21T09:53:18.052Z</time>
      </trkpt>
      <trkpt lat="49.55312" lon="-1.64922">
        <ele>145.618433</ele>
        <time>2021-11-21T09:53:20.041Z</time>
      </trkpt>
      <trkpt lat="49.55308" lon="-1.64905">
        <ele>145.357964</ele>
        <time>2021-11-21T09:53:22.056Z</time>
      </trkpt>
      <trkpt lat="49.55304" lon="-1.64887">
        <ele>145.079547</ele>
        <time>2021-11-21T09:53:24.039Z</time>
      </trkpt>
      <trkpt lat="49.553" lon="-1.64867">
        <ele>144.778245</ele>
        <time>2021-11-21T09:53:26.039Z</time>
      </trkpt>
      <trkpt lat="49.55296" lon="-1.64846">
        <ele>144.465273</ele>
        <time>2021-11-21T09:53:28.049Z</time>
      </trkpt>
      <trkpt lat="49.55292" lon="-1.64825">
        <ele>144.146008</ele>
        <time>2021-11-21T09:53:30.030Z</time>
      </trkpt>
      <trkpt lat="49.55289" lon="-1.64803">
        <ele>143.818771</ele>
        <time>2021-11-21T09:53:32.049Z</time>
      </trkpt>
      <trkpt lat="49.55286" lon="-1.64783">
        <ele>143.518951</ele>
        <time>2021-11-21T09:53:34.061Z</time>
      </trkpt>
      <trkpt lat="49.55283" lon="-1.64768">
        <ele>143.283589</ele>
        <time>2021-11-21T09:53:37.054Z</time>
      </trkpt>
      <trkpt lat="49.55281" lon="-1.64754">
        <ele>143.078712</ele>
        <time>2021-11-21T09:53:40.038Z</time>
      </trkpt>
      <trkpt lat="49.55279" lon="-1.64737">
        <ele>142.826918</ele>
        <time>2021-11-21T09:53:42.899Z</time>
      </trkpt>
      <trkpt lat="49.55276" lon="-1.64717">
        <ele>142.531207</ele>
        <time>2021-11-21T09:53:45.858Z</time>
      </trkpt>
      <trkpt lat="49.55272" lon="-1.64704">
        <ele>142.326107</ele>
        <time>2021-11-21T09:53:47.883Z</time>
      </trkpt>
      <trkpt lat="49.55275" lon="-1.64687">
        <ele>142.071366</ele>
        <time>2021-11-21T09:53:51.723Z</time>
      </trkpt>
      <trkpt lat="49.55288" lon="-1.64684">
        <ele>141.785546</ele>
        <time>2021-11-21T09:53:54.962Z</time>
      </trkpt>
      <trkpt lat="49.55299" lon="-1.64683">
        <ele>142.218538</ele>
        <time>2021-11-21T09:53:57.922Z</time>
      </trkpt>
      <trkpt lat="49.55308" lon="-1.64682">
        <ele>142.776073</ele>
        <time>2021-11-21T09:54:01.045Z</time>
      </trkpt>
      <trkpt lat="49.55319" lon="-1.64682">
        <ele>143.388452</ele>
        <time>2021-11-21T09:54:03.862Z</time>
      </trkpt>
      <trkpt lat="49.55331" lon="-1.6468">
        <ele>144.089474</ele>
        <time>2021-11-21T09:54:07.049Z</time>
      </trkpt>
      <trkpt lat="49.55342" lon="-1.64677">
        <ele>144.728117</ele>
        <time>2021-11-21T09:54:10.048Z</time>
      </trkpt>
      <trkpt lat="49.55353" lon="-1.64674">
        <ele>145.374356</ele>
        <time>2021-11-21T09:54:13.041Z</time>
      </trkpt>
      <trkpt lat="49.55362" lon="-1.64672">
        <ele>145.889613</ele>
        <time>2021-11-21T09:54:15.459Z</time>
      </trkpt>
      <trkpt lat="49.55373" lon="-1.64669">
        <ele>146.521396</ele>
        <time>2021-11-21T09:54:18.864Z</time>
      </trkpt>
      <trkpt lat="49.55384" lon="-1.64668">
        <ele>147.13023</ele>
        <time>2021-11-21T09:54:22.052Z</time>
      </trkpt>
      <trkpt lat="49.55393" lon="-1.64667">
        <ele>147.668987</ele>
        <time>2021-11-21T09:54:25.053Z</time>
      </trkpt>
      <trkpt lat="49.55404" lon="-1.64666">
        <ele>148.28759</ele>
        <time>2021-11-21T09:54:28.684Z</time>
      </trkpt>
      <trkpt lat="49.55414" lon="-1.64666">
        <ele>148.84853</ele>
        <time>2021-11-21T09:54:32.037Z</time>
      </trkpt>
      <trkpt lat="49.55425" lon="-1.64667">
        <ele>149.472707</ele>
        <time>2021-11-21T09:54:36.038Z</time>
      </trkpt>
      <trkpt lat="49.55435" lon="-1.64668">
        <ele>150.093268</ele>
        <time>2021-11-21T09:54:39.741Z</time>
      </trkpt>
      <trkpt lat="49.55446" lon="-1.64674">
        <ele>150.756884</ele>
        <time>2021-11-21T09:54:43.066Z</time>
      </trkpt>
      <trkpt lat="49.55456" lon="-1.64681">
        <ele>151.387108</ele>
        <time>2021-11-21T09:54:46.051Z</time>
      </trkpt>
      <trkpt lat="49.55465" lon="-1.64688">
        <ele>151.960597</ele>
        <time>2021-11-21T09:54:49.303Z</time>
      </trkpt>
      <trkpt lat="49.55476" lon="-1.64696">
        <ele>152.366351</ele>
        <time>2021-11-21T09:54:52.063Z</time>
      </trkpt>
      <trkpt lat="49.55487" lon="-1.64702">
        <ele>152.7673</ele>
        <time>2021-11-21T09:54:55.018Z</time>
      </trkpt>
      <trkpt lat="49.55496" lon="-1.64708">
        <ele>153.080961</ele>
        <time>2021-11-21T09:54:57.046Z</time>
      </trkpt>
      <trkpt lat="49.55508" lon="-1.64715">
        <ele>153.51906</ele>
        <time>2021-11-21T09:55:00.049Z</time>
      </trkpt>
      <trkpt lat="49.5552" lon="-1.64722">
        <ele>153.939419</ele>
        <time>2021-11-21T09:55:03.047Z</time>
      </trkpt>
      <trkpt lat="49.55532" lon="-1.6473">
        <ele>154.378856</ele>
        <time>2021-11-21T09:55:06.061Z</time>
      </trkpt>
      <trkpt lat="49.55542" lon="-1.64737">
        <ele>154.728106</ele>
        <time>2021-11-21T09:55:08.053Z</time>
      </trkpt>
      <trkpt lat="49.55551" lon="-1.64743">
        <ele>155.06794</ele>
        <time>2021-11-21T09:55:10.061Z</time>
      </trkpt>
      <trkpt lat="49.55562" lon="-1.64748">
        <ele>155.459969</ele>
        <time>2021-11-21T09:55:13.054Z</time>
      </trkpt>
      <trkpt lat="49.55572" lon="-1.64761">
        <ele>155.888509</ele>
        <time>2021-11-21T09:55:15.961Z</time>
      </trkpt>
      <trkpt lat="49.55578" lon="-1.64772">
        <ele>156.189141</ele>
        <time>2021-11-21T09:55:17.816Z</time>
      </trkpt>
      <trkpt lat="49.55585" lon="-1.64787">
        <ele>156.577381</ele>
        <time>2021-11-21T09:55:20.056Z</time>
      </trkpt>
      <trkpt lat="49.5559" lon="-1.64799">
        <ele>156.889816</ele>
        <time>2021-11-21T09:55:22.056Z</time>
      </trkpt>
      <trkpt lat="49.55595" lon="-1.64812">
        <ele>157.213071</ele>
        <time>2021-11-21T09:55:24.039Z</time>
      </trkpt>
      <trkpt lat="49.55603" lon="-1.64828">
        <ele>157.659913</ele>
        <time>2021-11-21T09:55:27.057Z</time>
      </trkpt>
      <trkpt lat="49.55609" lon="-1.6484">
        <ele>157.983898</ele>
        <time>2021-11-21T09:55:29.054Z</time>
      </trkpt>
      <trkpt lat="49.55616" lon="-1.64851">
        <ele>157.990217</ele>
        <time>2021-11-21T09:55:31.057Z</time>
      </trkpt>
      <trkpt lat="49.55622" lon="-1.64862">
        <ele>157.987481</ele>
        <time>2021-11-21T09:55:33.051Z</time>
      </trkpt>
      <trkpt lat="49.55629" lon="-1.64873">
        <ele>157.984764</ele>
        <time>2021-11-21T09:55:35.046Z</time>
      </trkpt>
      <trkpt lat="49.55637" lon="-1.64882">
        <ele>157.982113</ele>
        <time>2021-11-21T09:55:37.036Z</time>
      </trkpt>
      <trkpt lat="49.55646" lon="-1.64888">
        <ele>157.979494</ele>
        <time>2021-11-21T09:55:39.045Z</time>
      </trkpt>
      <trkpt lat="49.55655" lon="-1.64891">
        <ele>157.976974</ele>
        <time>2021-11-21T09:55:41.065Z</time>
      </trkpt>
      <trkpt lat="49.55665" lon="-1.64894">
        <ele>157.974146</ele>
        <time>2021-11-21T09:55:44.059Z</time>
      </trkpt>
      <trkpt lat="49.55675" lon="-1.64895">
        <ele>157.971472</ele>
        <time>2021-11-21T09:55:47.058Z</time>
      </trkpt>
      <trkpt lat="49.55686" lon="-1.64895">
        <ele>157.968371</ele>
        <time>2021-11-21T09:55:52.052Z</time>
      </trkpt>
      <trkpt lat="49.55697" lon="-1.64892">
        <ele>157.965353</ele>
        <time>2021-11-21T09:56:04.876Z</time>
      </trkpt>
      <trkpt lat="49.55704" lon="-1.64905">
        <ele>157.962329</ele>
        <time>2021-11-21T09:56:08.741Z</time>
      </trkpt>
      <trkpt lat="49.5571" lon="-1.64923">
        <ele>157.958825</ele>
        <time>2021-11-21T09:56:12.042Z</time>
      </trkpt>
      <trkpt lat="49.55716" lon="-1.64941">
        <ele>157.955088</ele>
        <time>2021-11-21T09:56:14.055Z</time>
      </trkpt>
      <trkpt lat="49.55721" lon="-1.64955">
        <ele>157.952381</ele>
        <time>2021-11-21T09:56:16.051Z</time>
      </trkpt>
      <trkpt lat="49.55727" lon="-1.6497">
        <ele>157.949184</ele>
        <time>2021-11-21T09:56:18.816Z</time>
      </trkpt>
      <trkpt lat="49.55731" lon="-1.64984">
        <ele>157.946375</ele>
        <time>2021-11-21T09:56:21.556Z</time>
      </trkpt>
      <trkpt lat="49.55737" lon="-1.65">
        <ele>157.87112</ele>
        <time>2021-11-21T09:56:26.035Z</time>
      </trkpt>
      <trkpt lat="49.55752" lon="-1.65">
        <ele>156.86302</ele>
        <time>2021-11-21T09:56:29.045Z</time>
      </trkpt>
      <trkpt lat="49.55763" lon="-1.64996">
        <ele>156.053729</ele>
        <time>2021-11-21T09:56:31.058Z</time>
      </trkpt>
      <trkpt lat="49.55776" lon="-1.64991">
        <ele>155.150487</ele>
        <time>2021-11-21T09:56:33.040Z</time>
      </trkpt>
      <trkpt lat="49.5579" lon="-1.64985">
        <ele>154.174089</ele>
        <time>2021-11-21T09:56:35.035Z</time>
      </trkpt>
      <trkpt lat="49.55806" lon="-1.64979">
        <ele>153.082812</ele>
        <time>2021-11-21T09:56:37.041Z</time>
      </trkpt>
      <trkpt lat="49.55823" lon="-1.64974">
        <ele>151.918541</ele>
        <time>2021-11-21T09:56:39.037Z</time>
      </trkpt>
      <trkpt lat="49.5584" lon="-1.64968">
        <ele>150.70168</ele>
        <time>2021-11-21T09:56:41.041Z</time>
      </trkpt>
      <trkpt lat="49.55849" lon="-1.64965">
        <ele>150.078695</ele>
        <time>2021-11-21T09:56:42.038Z</time>
      </trkpt>
      <trkpt lat="49.55859" lon="-1.64962">
        <ele>149.43922</ele>
        <time>2021-11-21T09:56:43.050Z</time>
      </trkpt>
      <trkpt lat="49.55868" lon="-1.6496">
        <ele>148.792299</ele>
        <time>2021-11-21T09:56:44.039Z</time>
      </trkpt>
      <trkpt lat="49.55877" lon="-1.64957">
        <ele>148.156975</ele>
        <time>2021-11-21T09:56:45.049Z</time>
      </trkpt>
      <trkpt lat="49.55887" lon="-1.64954">
        <ele>147.501752</ele>
        <time>2021-11-21T09:56:46.056Z</time>
      </trkpt>
      <trkpt lat="49.55896" lon="-1.64951">
        <ele>146.862278</ele>
        <time>2021-11-21T09:56:47.038Z</time>
      </trkpt>
      <trkpt lat="49.55905" lon="-1.64949">
        <ele>146.222804</ele>
        <time>2021-11-21T09:56:48.042Z</time>
      </trkpt>
      <trkpt lat="49.55914" lon="-1.64946">
        <ele>145.636334</ele>
        <time>2021-11-21T09:56:49.049Z</time>
      </trkpt>
      <trkpt lat="49.55931" lon="-1.64941">
        <ele>144.779275</ele>
        <time>2021-11-21T09:56:51.055Z</time>
      </trkpt>
      <trkpt lat="49.55946" lon="-1.64935">
        <ele>143.930942</ele>
        <time>2021-11-21T09:56:53.045Z</time>
      </trkpt>
      <trkpt lat="49.55956" lon="-1.64932">
        <ele>143.400578</ele>
        <time>2021-11-21T09:56:54.055Z</time>
      </trkpt>
      <trkpt lat="49.55966" lon="-1.64929">
        <ele>142.895052</ele>
        <time>2021-11-21T09:56:55.043Z</time>
      </trkpt>
      <trkpt lat="49.55976" lon="-1.64925">
        <ele>142.354607</ele>
        <time>2021-11-21T09:56:56.050Z</time>
      </trkpt>
      <trkpt lat="49.55986" lon="-1.64922">
        <ele>141.814932</ele>
        <time>2021-11-21T09:56:57.051Z</time>
      </trkpt>
      <trkpt lat="49.55996" lon="-1.64917">
        <ele>141.289489</ele>
        <time>2021-11-21T09:56:58.042Z</time>
      </trkpt>
      <trkpt lat="49.56005" lon="-1.64913">
        <ele>140.784927</ele>
        <time>2021-11-21T09:56:59.046Z</time>
      </trkpt>
      <trkpt lat="49.56014" lon="-1.64908">
        <ele>140.274802</ele>
        <time>2021-11-21T09:57:00.056Z</time>
      </trkpt>
      <trkpt lat="49.56023" lon="-1.64902">
        <ele>139.764332</ele>
        <time>2021-11-21T09:57:01.035Z</time>
      </trkpt>
      <trkpt lat="49.56032" lon="-1.64895">
        <ele>139.238879</ele>
        <time>2021-11-21T09:57:02.052Z</time>
      </trkpt>
      <trkpt lat="49.56041" lon="-1.64889">
        <ele>138.724304</ele>
        <time>2021-11-21T09:57:03.045Z</time>
      </trkpt>
      <trkpt lat="49.5605" lon="-1.64882">
        <ele>138.227157</ele>
        <time>2021-11-21T09:57:04.044Z</time>
      </trkpt>
      <trkpt lat="49.56058" lon="-1.64874">
        <ele>137.752363</ele>
        <time>2021-11-21T09:57:05.047Z</time>
      </trkpt>
      <trkpt lat="49.56065" lon="-1.64866">
        <ele>137.271367</ele>
        <time>2021-11-21T09:57:06.041Z</time>
      </trkpt>
      <trkpt lat="49.56073" lon="-1.64858">
        <ele>136.784539</ele>
        <time>2021-11-21T09:57:07.039Z</time>
      </trkpt>
      <trkpt lat="49.5608" lon="-1.64849">
        <ele>136.334371</ele>
        <time>2021-11-21T09:57:08.046Z</time>
      </trkpt>
      <trkpt lat="49.56093" lon="-1.64834">
        <ele>135.7014</ele>
        <time>2021-11-21T09:57:10.039Z</time>
      </trkpt>
      <trkpt lat="49.56105" lon="-1.64826">
        <ele>135.183045</ele>
        <time>2021-11-21T09:57:12.039Z</time>
      </trkpt>
      <trkpt lat="49.56119" lon="-1.6483">
        <ele>134.642886</ele>
        <time>2021-11-21T09:57:14.049Z</time>
      </trkpt>
      <trkpt lat="49.56131" lon="-1.64841">
        <ele>134.09184</ele>
        <time>2021-11-21T09:57:16.038Z</time>
      </trkpt>
      <trkpt lat="49.56144" lon="-1.64851">
        <ele>133.550105</ele>
        <time>2021-11-21T09:57:18.050Z</time>
      </trkpt>
      <trkpt lat="49.56157" lon="-1.64857">
        <ele>133.025078</ele>
        <time>2021-11-21T09:57:20.039Z</time>
      </trkpt>
      <trkpt lat="49.5617" lon="-1.64857">
        <ele>132.508608</ele>
        <time>2021-11-21T09:57:22.045Z</time>
      </trkpt>
      <trkpt lat="49.56184" lon="-1.64853">
        <ele>131.968983</ele>
        <time>2021-11-21T09:57:24.054Z</time>
      </trkpt>
      <trkpt lat="49.56197" lon="-1.64848">
        <ele>131.424777</ele>
        <time>2021-11-21T09:57:26.056Z</time>
      </trkpt>
      <trkpt lat="49.5621" lon="-1.64837">
        <ele>130.843857</ele>
        <time>2021-11-21T09:57:28.058Z</time>
      </trkpt>
      <trkpt lat="49.56221" lon="-1.64818">
        <ele>130.222716</ele>
        <time>2021-11-21T09:57:30.040Z</time>
      </trkpt>
      <trkpt lat="49.56228" lon="-1.64795">
        <ele>129.573275</ele>
        <time>2021-11-21T09:57:32.045Z</time>
      </trkpt>
      <trkpt lat="49.56234" lon="-1.6477">
        <ele>128.970345</ele>
        <time>2021-11-21T09:57:34.050Z</time>
      </trkpt>
      <trkpt lat="49.5624" lon="-1.64745">
        <ele>128.374567</ele>
        <time>2021-11-21T09:57:36.047Z</time>
      </trkpt>
      <trkpt lat="49.56246" lon="-1.6472">
        <ele>127.782781</ele>
        <time>2021-11-21T09:57:38.041Z</time>
      </trkpt>
      <trkpt lat="49.56251" lon="-1.64697">
        <ele>127.239166</ele>
        <time>2021-11-21T09:57:40.040Z</time>
      </trkpt>
      <trkpt lat="49.56255" lon="-1.64676">
        <ele>126.735777</ele>
        <time>2021-11-21T09:57:42.040Z</time>
      </trkpt>
      <trkpt lat="49.56259" lon="-1.64656">
        <ele>126.286261</ele>
        <time>2021-11-21T09:57:44.054Z</time>
      </trkpt>
      <trkpt lat="49.56261" lon="-1.64639">
        <ele>125.899043</ele>
        <time>2021-11-21T09:57:46.057Z</time>
      </trkpt>
      <trkpt lat="49.56264" lon="-1.64625">
        <ele>125.559795</ele>
        <time>2021-11-21T09:57:48.040Z</time>
      </trkpt>
      <trkpt lat="49.56272" lon="-1.64614">
        <ele>125.198973</ele>
        <time>2021-11-21T09:57:52.046Z</time>
      </trkpt>
      <trkpt lat="49.5628" lon="-1.64619">
        <ele>124.887422</ele>
        <time>2021-11-21T09:57:55.055Z</time>
      </trkpt>
      <trkpt lat="49.56296" lon="-1.64625">
        <ele>124.33794</ele>
        <time>2021-11-21T09:57:58.049Z</time>
      </trkpt>
      <trkpt lat="49.56307" lon="-1.6463">
        <ele>123.930774</ele>
        <time>2021-11-21T09:58:00.057Z</time>
      </trkpt>
      <trkpt lat="49.56319" lon="-1.64635">
        <ele>123.496606</ele>
        <time>2021-11-21T09:58:02.054Z</time>
      </trkpt>
      <trkpt lat="49.56331" lon="-1.6464">
        <ele>123.251021</ele>
        <time>2021-11-21T09:58:04.060Z</time>
      </trkpt>
      <trkpt lat="49.56343" lon="-1.64644">
        <ele>123.272294</ele>
        <time>2021-11-21T09:58:06.044Z</time>
      </trkpt>
      <trkpt lat="49.56355" lon="-1.64649">
        <ele>123.29376</ele>
        <time>2021-11-21T09:58:08.060Z</time>
      </trkpt>
      <trkpt lat="49.56367" lon="-1.64654">
        <ele>123.314944</ele>
        <time>2021-11-21T09:58:10.054Z</time>
      </trkpt>
      <trkpt lat="49.56378" lon="-1.64659">
        <ele>123.335039</ele>
        <time>2021-11-21T09:58:12.052Z</time>
      </trkpt>
      <trkpt lat="49.56389" lon="-1.64663">
        <ele>123.354678</ele>
        <time>2021-11-21T09:58:14.038Z</time>
      </trkpt>
      <trkpt lat="49.56399" lon="-1.64667">
        <ele>123.373619</ele>
        <time>2021-11-21T09:58:16.051Z</time>
      </trkpt>
      <trkpt lat="49.56409" lon="-1.6467">
        <ele>123.390983</ele>
        <time>2021-11-21T09:58:18.045Z</time>
      </trkpt>
      <trkpt lat="49.56421" lon="-1.64675">
        <ele>123.412112</ele>
        <time>2021-11-21T09:58:20.055Z</time>
      </trkpt>
      <trkpt lat="49.56433" lon="-1.64679">
        <ele>123.433919</ele>
        <time>2021-11-21T09:58:22.056Z</time>
      </trkpt>
      <trkpt lat="49.56445" lon="-1.64684">
        <ele>123.454737</ele>
        <time>2021-11-21T09:58:24.039Z</time>
      </trkpt>
      <trkpt lat="49.56456" lon="-1.64688">
        <ele>123.475218</ele>
        <time>2021-11-21T09:58:26.046Z</time>
      </trkpt>
      <trkpt lat="49.56467" lon="-1.64693">
        <ele>123.494969</ele>
        <time>2021-11-21T09:58:28.058Z</time>
      </trkpt>
      <trkpt lat="49.56477" lon="-1.64698">
        <ele>123.513631</ele>
        <time>2021-11-21T09:58:30.045Z</time>
      </trkpt>
      <trkpt lat="49.56487" lon="-1.64701">
        <ele>123.531191</ele>
        <time>2021-11-21T09:58:32.039Z</time>
      </trkpt>
      <trkpt lat="49.56496" lon="-1.64705">
        <ele>123.547996</ele>
        <time>2021-11-21T09:58:34.038Z</time>
      </trkpt>
      <trkpt lat="49.56505" lon="-1.64708">
        <ele>123.758131</ele>
        <time>2021-11-21T09:58:36.053Z</time>
      </trkpt>
      <trkpt lat="49.56516" lon="-1.64711">
        <ele>124.207559</ele>
        <time>2021-11-21T09:58:39.038Z</time>
      </trkpt>
      <trkpt lat="49.56528" lon="-1.64714">
        <ele>124.683863</ele>
        <time>2021-11-21T09:58:43.058Z</time>
      </trkpt>
      <trkpt lat="49.56533" lon="-1.64727">
        <ele>125.095794</ele>
        <time>2021-11-21T09:58:45.335Z</time>
      </trkpt>
      <trkpt lat="49.56537" lon="-1.64745">
        <ele>125.592001</ele>
        <time>2021-11-21T09:58:48.054Z</time>
      </trkpt>
      <trkpt lat="49.56541" lon="-1.6476">
        <ele>126.022481</ele>
        <time>2021-11-21T09:58:50.037Z</time>
      </trkpt>
      <trkpt lat="49.56545" lon="-1.64778">
        <ele>126.538885</ele>
        <time>2021-11-21T09:58:54.041Z</time>
      </trkpt>
      <trkpt lat="49.5655" lon="-1.64793">
        <ele>126.982163</ele>
        <time>2021-11-21T09:58:56.053Z</time>
      </trkpt>
      <trkpt lat="49.56553" lon="-1.64807">
        <ele>127.378824</ele>
        <time>2021-11-21T09:58:58.053Z</time>
      </trkpt>
      <trkpt lat="49.56558" lon="-1.64828">
        <ele>127.95691</ele>
        <time>2021-11-21T09:59:01.055Z</time>
      </trkpt>
      <trkpt lat="49.56561" lon="-1.64847">
        <ele>128.470622</ele>
        <time>2021-11-21T09:59:04.064Z</time>
      </trkpt>
      <trkpt lat="49.56563" lon="-1.64864">
        <ele>128.931405</ele>
        <time>2021-11-21T09:59:06.879Z</time>
      </trkpt>
      <trkpt lat="49.56565" lon="-1.64884">
        <ele>129.472994</ele>
        <time>2021-11-21T09:59:10.055Z</time>
      </trkpt>
      <trkpt lat="49.56567" lon="-1.64901">
        <ele>129.943373</ele>
        <time>2021-11-21T09:59:12.761Z</time>
      </trkpt>
      <trkpt lat="49.56569" lon="-1.64918">
        <ele>130.378331</ele>
        <time>2021-11-21T09:59:15.051Z</time>
      </trkpt>
      <trkpt lat="49.56571" lon="-1.64934">
        <ele>130.824248</ele>
        <time>2021-11-21T09:59:17.894Z</time>
      </trkpt>
      <trkpt lat="49.56575" lon="-1.64957">
        <ele>131.648071</ele>
        <time>2021-11-21T09:59:21.042Z</time>
      </trkpt>
      <trkpt lat="49.56581" lon="-1.64977">
        <ele>132.440588</ele>
        <time>2021-11-21T09:59:25.897Z</time>
      </trkpt>
      <trkpt lat="49.56585" lon="-1.64995">
        <ele>133.103043</ele>
        <time>2021-11-21T09:59:27.057Z</time>
      </trkpt>
      <trkpt lat="49.56592" lon="-1.65016">
        <ele>133.962163</ele>
        <time>2021-11-21T09:59:30.056Z</time>
      </trkpt>
      <trkpt lat="49.56598" lon="-1.65029">
        <ele>134.53229</ele>
        <time>2021-11-21T09:59:32.052Z</time>
      </trkpt>
      <trkpt lat="49.56604" lon="-1.65041">
        <ele>135.067757</ele>
        <time>2021-11-21T09:59:34.059Z</time>
      </trkpt>
      <trkpt lat="49.5661" lon="-1.65052">
        <ele>135.585817</ele>
        <time>2021-11-21T09:59:36.038Z</time>
      </trkpt>
      <trkpt lat="49.56616" lon="-1.65064">
        <ele>136.11456</ele>
        <time>2021-11-21T09:59:38.055Z</time>
      </trkpt>
      <trkpt lat="49.56624" lon="-1.65081">
        <ele>136.866462</ele>
        <time>2021-11-21T09:59:41.057Z</time>
      </trkpt>
      <trkpt lat="49.5663" lon="-1.65093">
        <ele>137.407566</ele>
        <time>2021-11-21T09:59:44.057Z</time>
      </trkpt>
      <trkpt lat="49.56638" lon="-1.65104">
        <ele>137.977138</ele>
        <time>2021-11-21T09:59:46.059Z</time>
      </trkpt>
      <trkpt lat="49.56649" lon="-1.65115">
        <ele>138.710247</ele>
        <time>2021-11-21T09:59:49.058Z</time>
      </trkpt>
      <trkpt lat="49.56663" lon="-1.65126">
        <ele>139.590188</ele>
        <time>2021-11-21T09:59:52.054Z</time>
      </trkpt>
      <trkpt lat="49.56674" lon="-1.65132">
        <ele>140.203129</ele>
        <time>2021-11-21T09:59:54.045Z</time>
      </trkpt>
      <trkpt lat="49.56684" lon="-1.65137">
        <ele>140.795799</ele>
        <time>2021-11-21T09:59:56.059Z</time>
      </trkpt>
      <trkpt lat="49.56693" lon="-1.65142">
        <ele>141.055353</ele>
        <time>2021-11-21T09:59:58.060Z</time>
      </trkpt>
      <trkpt lat="49.56703" lon="-1.65145">
        <ele>141.283615</ele>
        <time>2021-11-21T10:00:00.055Z</time>
      </trkpt>
      <trkpt lat="49.56719" lon="-1.65145">
        <ele>141.678555</ele>
        <time>2021-11-21T10:00:04.063Z</time>
      </trkpt>
      <trkpt lat="49.56732" lon="-1.65144">
        <ele>141.995614</ele>
        <time>2021-11-21T10:00:06.043Z</time>
      </trkpt>
      <trkpt lat="49.56743" lon="-1.65144">
        <ele>142.268669</ele>
        <time>2021-11-21T10:00:08.051Z</time>
      </trkpt>
      <trkpt lat="49.56753" lon="-1.65145">
        <ele>142.519784</ele>
        <time>2021-11-21T10:00:10.048Z</time>
      </trkpt>
      <trkpt lat="49.56763" lon="-1.65144">
        <ele>142.76601</ele>
        <time>2021-11-21T10:00:12.056Z</time>
      </trkpt>
      <trkpt lat="49.56774" lon="-1.65145">
        <ele>143.017185</ele>
        <time>2021-11-21T10:00:14.037Z</time>
      </trkpt>
      <trkpt lat="49.56784" lon="-1.65146">
        <ele>143.278511</ele>
        <time>2021-11-21T10:00:16.048Z</time>
      </trkpt>
      <trkpt lat="49.56795" lon="-1.65147">
        <ele>143.527576</ele>
        <time>2021-11-21T10:00:18.059Z</time>
      </trkpt>
      <trkpt lat="49.56807" lon="-1.65146">
        <ele>143.834843</ele>
        <time>2021-11-21T10:00:21.065Z</time>
      </trkpt>
      <trkpt lat="49.5682" lon="-1.65146">
        <ele>144.139719</ele>
        <time>2021-11-21T10:00:24.053Z</time>
      </trkpt>
      <trkpt lat="49.5683" lon="-1.65145">
        <ele>144.38111</ele>
        <time>2021-11-21T10:00:25.630Z</time>
      </trkpt>
      <trkpt lat="49.56839" lon="-1.65144">
        <ele>144.604216</ele>
        <time>2021-11-21T10:00:28.028Z</time>
      </trkpt>
      <trkpt lat="49.56849" lon="-1.65145">
        <ele>144.861142</ele>
        <time>2021-11-21T10:00:30.714Z</time>
      </trkpt>
      <trkpt lat="49.56858" lon="-1.65146">
        <ele>145.088652</ele>
        <time>2021-11-21T10:00:33.313Z</time>
      </trkpt>
      <trkpt lat="49.56872" lon="-1.65152">
        <ele>144.760826</ele>
        <time>2021-11-21T10:00:36.046Z</time>
      </trkpt>
      <trkpt lat="49.56882" lon="-1.6516">
        <ele>144.238331</ele>
        <time>2021-11-21T10:00:38.057Z</time>
      </trkpt>
      <trkpt lat="49.56891" lon="-1.65167">
        <ele>143.734133</ele>
        <time>2021-11-21T10:00:40.045Z</time>
      </trkpt>
      <trkpt lat="49.569" lon="-1.65174">
        <ele>143.262494</ele>
        <time>2021-11-21T10:00:42.063Z</time>
      </trkpt>
      <trkpt lat="49.5691" lon="-1.65178">
        <ele>142.79117</ele>
        <time>2021-11-21T10:00:45.049Z</time>
      </trkpt>
      <trkpt lat="49.56919" lon="-1.6519">
        <ele>142.200759</ele>
        <time>2021-11-21T10:00:48.060Z</time>
      </trkpt>
      <trkpt lat="49.56935" lon="-1.65183">
        <ele>141.426895</ele>
        <time>2021-11-21T10:00:52.060Z</time>
      </trkpt>
      <trkpt lat="49.56944" lon="-1.65171">
        <ele>140.859688</ele>
        <time>2021-11-21T10:00:54.050Z</time>
      </trkpt>
      <trkpt lat="49.56954" lon="-1.65157">
        <ele>140.218097</ele>
        <time>2021-11-21T10:00:56.046Z</time>
      </trkpt>
      <trkpt lat="49.56966" lon="-1.65143">
        <ele>139.506985</ele>
        <time>2021-11-21T10:00:58.051Z</time>
      </trkpt>
      <trkpt lat="49.56978" lon="-1.65128">
        <ele>138.765696</ele>
        <time>2021-11-21T10:01:00.060Z</time>
      </trkpt>
      <trkpt lat="49.5699" lon="-1.65112">
        <ele>137.999516</ele>
        <time>2021-11-21T10:01:02.059Z</time>
      </trkpt>
      <trkpt lat="49.57002" lon="-1.65098">
        <ele>137.307278</ele>
        <time>2021-11-21T10:01:04.030Z</time>
      </trkpt>
      <trkpt lat="49.57012" lon="-1.65085">
        <ele>136.663398</ele>
        <time>2021-11-21T10:01:07.051Z</time>
      </trkpt>
      <trkpt lat="49.57021" lon="-1.65073">
        <ele>136.144868</ele>
        <time>2021-11-21T10:01:09.053Z</time>
      </trkpt>
      <trkpt lat="49.57031" lon="-1.65063">
        <ele>135.639163</ele>
        <time>2021-11-21T10:01:11.051Z</time>
      </trkpt>
      <trkpt lat="49.5704" lon="-1.65052">
        <ele>135.130169</ele>
        <time>2021-11-21T10:01:13.043Z</time>
      </trkpt>
      <trkpt lat="49.57053" lon="-1.65041">
        <ele>134.496685</ele>
        <time>2021-11-21T10:01:15.039Z</time>
      </trkpt>
      <trkpt lat="49.57068" lon="-1.65032">
        <ele>133.78819</ele>
        <time>2021-11-21T10:01:17.058Z</time>
      </trkpt>
      <trkpt lat="49.57082" lon="-1.65023">
        <ele>133.146289</ele>
        <time>2021-11-21T10:01:19.058Z</time>
      </trkpt>
      <trkpt lat="49.57093" lon="-1.65018">
        <ele>132.637735</ele>
        <time>2021-11-21T10:01:21.050Z</time>
      </trkpt>
      <trkpt lat="49.57103" lon="-1.65013">
        <ele>132.204327</ele>
        <time>2021-11-21T10:01:23.065Z</time>
      </trkpt>
      <trkpt lat="49.57113" lon="-1.65008">
        <ele>131.728034</ele>
        <time>2021-11-21T10:01:26.049Z</time>
      </trkpt>
      <trkpt lat="49.57123" lon="-1.65006">
        <ele>131.292106</ele>
        <time>2021-11-21T10:01:30.060Z</time>
      </trkpt>
      <trkpt lat="49.57133" lon="-1.65015">
        <ele>130.809709</ele>
        <time>2021-11-21T10:01:34.055Z</time>
      </trkpt>
      <trkpt lat="49.57142" lon="-1.65024">
        <ele>130.3417</ele>
        <time>2021-11-21T10:01:36.693Z</time>
      </trkpt>
      <trkpt lat="49.5715" lon="-1.65033">
        <ele>129.90946</ele>
        <time>2021-11-21T10:01:38.935Z</time>
      </trkpt>
      <trkpt lat="49.5716" lon="-1.65043">
        <ele>129.404208</ele>
        <time>2021-11-21T10:01:41.690Z</time>
      </trkpt>
      <trkpt lat="49.5717" lon="-1.65049">
        <ele>128.948008</ele>
        <time>2021-11-21T10:01:43.989Z</time>
      </trkpt>
      <trkpt lat="49.57181" lon="-1.65051">
        <ele>128.863009</ele>
        <time>2021-11-21T10:01:46.736Z</time>
      </trkpt>
      <trkpt lat="49.57194" lon="-1.65048">
        <ele>128.875563</ele>
        <time>2021-11-21T10:01:49.054Z</time>
      </trkpt>
      <trkpt lat="49.57204" lon="-1.65044">
        <ele>128.886384</ele>
        <time>2021-11-21T10:01:51.039Z</time>
      </trkpt>
      <trkpt lat="49.57215" lon="-1.65039">
        <ele>128.897098</ele>
        <time>2021-11-21T10:01:53.043Z</time>
      </trkpt>
      <trkpt lat="49.57225" lon="-1.65034">
        <ele>128.907654</ele>
        <time>2021-11-21T10:01:55.046Z</time>
      </trkpt>
      <trkpt lat="49.57234" lon="-1.65028">
        <ele>128.917326</ele>
        <time>2021-11-21T10:01:57.057Z</time>
      </trkpt>
      <trkpt lat="49.57242" lon="-1.65023">
        <ele>128.926463</ele>
        <time>2021-11-21T10:01:59.065Z</time>
      </trkpt>
      <trkpt lat="49.57253" lon="-1.65033">
        <ele>128.938886</ele>
        <time>2021-11-21T10:02:02.041Z</time>
      </trkpt>
      <trkpt lat="49.57259" lon="-1.65048">
        <ele>128.950378</ele>
        <time>2021-11-21T10:02:04.047Z</time>
      </trkpt>
      <trkpt lat="49.57266" lon="-1.65064">
        <ele>128.96214</ele>
        <time>2021-11-21T10:02:06.048Z</time>
      </trkpt>
      <trkpt lat="49.57273" lon="-1.65079">
        <ele>128.974227</ele>
        <time>2021-11-21T10:02:08.037Z</time>
      </trkpt>
      <trkpt lat="49.5728" lon="-1.65094">
        <ele>128.986162</ele>
        <time>2021-11-21T10:02:10.073Z</time>
      </trkpt>
      <trkpt lat="49.57285" lon="-1.6511">
        <ele>128.997863</ele>
        <time>2021-11-21T10:02:12.044Z</time>
      </trkpt>
      <trkpt lat="49.57292" lon="-1.65126">
        <ele>129.009899</ele>
        <time>2021-11-21T10:02:14.051Z</time>
      </trkpt>
      <trkpt lat="49.573" lon="-1.6514">
        <ele>129.021725</ele>
        <time>2021-11-21T10:02:16.051Z</time>
      </trkpt>
      <trkpt lat="49.57308" lon="-1.65152">
        <ele>129.086703</ele>
        <time>2021-11-21T10:02:18.037Z</time>
      </trkpt>
      <trkpt lat="49.57318" lon="-1.65163">
        <ele>129.475473</ele>
        <time>2021-11-21T10:02:20.037Z</time>
      </trkpt>
      <trkpt lat="49.57326" lon="-1.65176">
        <ele>129.873277</ele>
        <time>2021-11-21T10:02:22.059Z</time>
      </trkpt>
      <trkpt lat="49.57333" lon="-1.65191">
        <ele>130.275261</ele>
        <time>2021-11-21T10:02:24.052Z</time>
      </trkpt>
      <trkpt lat="49.57341" lon="-1.65205">
        <ele>130.67391</ele>
        <time>2021-11-21T10:02:26.066Z</time>
      </trkpt>
      <trkpt lat="49.57349" lon="-1.65219">
        <ele>131.059559</ele>
        <time>2021-11-21T10:02:28.040Z</time>
      </trkpt>
      <trkpt lat="49.57356" lon="-1.65233">
        <ele>131.450635</ele>
        <time>2021-11-21T10:02:30.048Z</time>
      </trkpt>
      <trkpt lat="49.57364" lon="-1.65246">
        <ele>131.845589</ele>
        <time>2021-11-21T10:02:32.044Z</time>
      </trkpt>
      <trkpt lat="49.57372" lon="-1.65259">
        <ele>132.227215</ele>
        <time>2021-11-21T10:02:34.042Z</time>
      </trkpt>
      <trkpt lat="49.5738" lon="-1.65271">
        <ele>132.578866</ele>
        <time>2021-11-21T10:02:36.050Z</time>
      </trkpt>
      <trkpt lat="49.57386" lon="-1.65283">
        <ele>132.921645</ele>
        <time>2021-11-21T10:02:38.055Z</time>
      </trkpt>
      <trkpt lat="49.57394" lon="-1.65297">
        <ele>133.316598</ele>
        <time>2021-11-21T10:02:40.055Z</time>
      </trkpt>
      <trkpt lat="49.57402" lon="-1.65311">
        <ele>133.715779</ele>
        <time>2021-11-21T10:02:42.051Z</time>
      </trkpt>
      <trkpt lat="49.57409" lon="-1.65322">
        <ele>134.062019</ele>
        <time>2021-11-21T10:02:44.050Z</time>
      </trkpt>
      <trkpt lat="49.57416" lon="-1.65334">
        <ele>134.389131</ele>
        <time>2021-11-21T10:02:46.041Z</time>
      </trkpt>
      <trkpt lat="49.57425" lon="-1.65348">
        <ele>134.805487</ele>
        <time>2021-11-21T10:02:48.061Z</time>
      </trkpt>
      <trkpt lat="49.57433" lon="-1.65361">
        <ele>135.155139</ele>
        <time>2021-11-21T10:02:50.056Z</time>
      </trkpt>
      <trkpt lat="49.57441" lon="-1.65374">
        <ele>135.449733</ele>
        <time>2021-11-21T10:02:52.055Z</time>
      </trkpt>
      <trkpt lat="49.57449" lon="-1.65387">
        <ele>135.734531</ele>
        <time>2021-11-21T10:02:54.043Z</time>
      </trkpt>
      <trkpt lat="49.57456" lon="-1.65401">
        <ele>136.018257</ele>
        <time>2021-11-21T10:02:56.048Z</time>
      </trkpt>
      <trkpt lat="49.57462" lon="-1.65415">
        <ele>136.295369</ele>
        <time>2021-11-21T10:02:58.052Z</time>
      </trkpt>
      <trkpt lat="49.57468" lon="-1.65429">
        <ele>136.566861</ele>
        <time>2021-11-21T10:03:00.059Z</time>
      </trkpt>
      <trkpt lat="49.57474" lon="-1.65443">
        <ele>136.838365</ele>
        <time>2021-11-21T10:03:02.058Z</time>
      </trkpt>
      <trkpt lat="49.57478" lon="-1.65456">
        <ele>137.083003</ele>
        <time>2021-11-21T10:03:04.037Z</time>
      </trkpt>
      <trkpt lat="49.57483" lon="-1.65469">
        <ele>137.327096</ele>
        <time>2021-11-21T10:03:06.061Z</time>
      </trkpt>
      <trkpt lat="49.57489" lon="-1.65481">
        <ele>137.577094</ele>
        <time>2021-11-21T10:03:08.047Z</time>
      </trkpt>
      <trkpt lat="49.57496" lon="-1.65494">
        <ele>137.841467</ele>
        <time>2021-11-21T10:03:10.040Z</time>
      </trkpt>
      <trkpt lat="49.57503" lon="-1.65507">
        <ele>138.121064</ele>
        <time>2021-11-21T10:03:12.057Z</time>
      </trkpt>
      <trkpt lat="49.5751" lon="-1.65521">
        <ele>138.410809</ele>
        <time>2021-11-21T10:03:14.045Z</time>
      </trkpt>
      <trkpt lat="49.57517" lon="-1.65534">
        <ele>138.688846</ele>
        <time>2021-11-21T10:03:16.045Z</time>
      </trkpt>
      <trkpt lat="49.57522" lon="-1.65547">
        <ele>138.942571</ele>
        <time>2021-11-21T10:03:18.053Z</time>
      </trkpt>
      <trkpt lat="49.57527" lon="-1.65559">
        <ele>139.181168</ele>
        <time>2021-11-21T10:03:20.057Z</time>
      </trkpt>
      <trkpt lat="49.57532" lon="-1.65574">
        <ele>139.455956</ele>
        <time>2021-11-21T10:03:23.047Z</time>
      </trkpt>
      <trkpt lat="49.57537" lon="-1.6559">
        <ele>139.914266</ele>
        <time>2021-11-21T10:03:26.038Z</time>
      </trkpt>
      <trkpt lat="49.57542" lon="-1.65605">
        <ele>140.402844</ele>
        <time>2021-11-21T10:03:28.041Z</time>
      </trkpt>
      <trkpt lat="49.57548" lon="-1.6562">
        <ele>140.90375</ele>
        <time>2021-11-21T10:03:31.428Z</time>
      </trkpt>
      <trkpt lat="49.57551" lon="-1.65635">
        <ele>141.380762</ele>
        <time>2021-11-21T10:03:33.725Z</time>
      </trkpt>
      <trkpt lat="49.57554" lon="-1.65649">
        <ele>141.805907</ele>
        <time>2021-11-21T10:03:35.039Z</time>
      </trkpt>
      <trkpt lat="49.57558" lon="-1.65663">
        <ele>142.281798</ele>
        <time>2021-11-21T10:03:37.061Z</time>
      </trkpt>
      <trkpt lat="49.57563" lon="-1.65682">
        <ele>142.856842</ele>
        <time>2021-11-21T10:03:40.055Z</time>
      </trkpt>
      <trkpt lat="49.57565" lon="-1.65696">
        <ele>143.288288</ele>
        <time>2021-11-21T10:03:42.050Z</time>
      </trkpt>
      <trkpt lat="49.5757" lon="-1.65714">
        <ele>143.851115</ele>
        <time>2021-11-21T10:03:45.060Z</time>
      </trkpt>
      <trkpt lat="49.57571" lon="-1.65731">
        <ele>144.361369</ele>
        <time>2021-11-21T10:03:48.054Z</time>
      </trkpt>
      <trkpt lat="49.57573" lon="-1.65748">
        <ele>144.859869</ele>
        <time>2021-11-21T10:03:51.047Z</time>
      </trkpt>
      <trkpt lat="49.57576" lon="-1.65761">
        <ele>145.27242</ele>
        <time>2021-11-21T10:03:54.041Z</time>
      </trkpt>
      <trkpt lat="49.57578" lon="-1.65777">
        <ele>145.744879</ele>
        <time>2021-11-21T10:03:57.040Z</time>
      </trkpt>
      <trkpt lat="49.57579" lon="-1.65795">
        <ele>146.271041</ele>
        <time>2021-11-21T10:04:00.062Z</time>
      </trkpt>
      <trkpt lat="49.5758" lon="-1.65809">
        <ele>146.698898</ele>
        <time>2021-11-21T10:04:02.054Z</time>
      </trkpt>
      <trkpt lat="49.57581" lon="-1.65824">
        <ele>147.133017</ele>
        <time>2021-11-21T10:04:04.057Z</time>
      </trkpt>
      <trkpt lat="49.57581" lon="-1.65842">
        <ele>147.669346</ele>
        <time>2021-11-21T10:04:06.952Z</time>
      </trkpt>
      <trkpt lat="49.57581" lon="-1.65861">
        <ele>148.141309</ele>
        <time>2021-11-21T10:04:09.710Z</time>
      </trkpt>
      <trkpt lat="49.57581" lon="-1.65876">
        <ele>148.522648</ele>
        <time>2021-11-21T10:04:12.027Z</time>
      </trkpt>
      <trkpt lat="49.57581" lon="-1.65893">
        <ele>148.949373</ele>
        <time>2021-11-21T10:04:15.058Z</time>
      </trkpt>
      <trkpt lat="49.57582" lon="-1.65908">
        <ele>149.336482</ele>
        <time>2021-11-21T10:04:17.595Z</time>
      </trkpt>
      <trkpt lat="49.57584" lon="-1.65923">
        <ele>149.7334</ele>
        <time>2021-11-21T10:04:19.849Z</time>
      </trkpt>
      <trkpt lat="49.57585" lon="-1.6594">
        <ele>150.154082</ele>
        <time>2021-11-21T10:04:22.608Z</time>
      </trkpt>
      <trkpt lat="49.57587" lon="-1.65959">
        <ele>150.647858</ele>
        <time>2021-11-21T10:04:25.846Z</time>
      </trkpt>
      <trkpt lat="49.57588" lon="-1.65973">
        <ele>150.999413</ele>
        <time>2021-11-21T10:04:28.059Z</time>
      </trkpt>
      <trkpt lat="49.5759" lon="-1.6599">
        <ele>151.417594</ele>
        <time>2021-11-21T10:04:31.017Z</time>
      </trkpt>
      <trkpt lat="49.57591" lon="-1.66004">
        <ele>151.790059</ele>
        <time>2021-11-21T10:04:33.521Z</time>
      </trkpt>
      <trkpt lat="49.57592" lon="-1.6602">
        <ele>152.178325</ele>
        <time>2021-11-21T10:04:35.854Z</time>
      </trkpt>
      <trkpt lat="49.57592" lon="-1.66036">
        <ele>152.591372</ele>
        <time>2021-11-21T10:04:38.653Z</time>
      </trkpt>
      <trkpt lat="49.57593" lon="-1.66051">
        <ele>152.968084</ele>
        <time>2021-11-21T10:04:41.042Z</time>
      </trkpt>
      <trkpt lat="49.57594" lon="-1.66065">
        <ele>153.319821</ele>
        <time>2021-11-21T10:04:43.051Z</time>
      </trkpt>
      <trkpt lat="49.57595" lon="-1.66082">
        <ele>153.774684</ele>
        <time>2021-11-21T10:04:46.055Z</time>
      </trkpt>
      <trkpt lat="49.57598" lon="-1.66097">
        <ele>154.168611</ele>
        <time>2021-11-21T10:04:49.552Z</time>
      </trkpt>
      <trkpt lat="49.57599" lon="-1.66115">
        <ele>154.606526</ele>
        <time>2021-11-21T10:04:53.046Z</time>
      </trkpt>
      <trkpt lat="49.57599" lon="-1.66129">
        <ele>154.834523</ele>
        <time>2021-11-21T10:04:55.649Z</time>
      </trkpt>
      <trkpt lat="49.57599" lon="-1.66143">
        <ele>155.026359</ele>
        <time>2021-11-21T10:04:58.387Z</time>
      </trkpt>
      <trkpt lat="49.576" lon="-1.66157">
        <ele>155.211451</ele>
        <time>2021-11-21T10:05:01.624Z</time>
      </trkpt>
      <trkpt lat="49.5761" lon="-1.66162">
        <ele>155.428738</ele>
        <time>2021-11-21T10:05:05.647Z</time>
      </trkpt>
      <trkpt lat="49.5762" lon="-1.66162">
        <ele>155.642134</ele>
        <time>2021-11-21T10:05:08.716Z</time>
      </trkpt>
      <trkpt lat="49.5763" lon="-1.66162">
        <ele>155.843188</ele>
        <time>2021-11-21T10:05:11.046Z</time>
      </trkpt>
      <trkpt lat="49.57642" lon="-1.66163">
        <ele>156.081347</ele>
        <time>2021-11-21T10:05:13.749Z</time>
      </trkpt>
      <trkpt lat="49.57656" lon="-1.66164">
        <ele>156.36908</ele>
        <time>2021-11-21T10:05:17.045Z</time>
      </trkpt>
      <trkpt lat="49.57668" lon="-1.66166">
        <ele>156.614517</ele>
        <time>2021-11-21T10:05:20.038Z</time>
      </trkpt>
      <trkpt lat="49.5768" lon="-1.66169">
        <ele>156.862107</ele>
        <time>2021-11-21T10:05:23.336Z</time>
      </trkpt>
      <trkpt lat="49.57692" lon="-1.66172">
        <ele>157.11467</ele>
        <time>2021-11-21T10:05:26.919Z</time>
      </trkpt>
      <trkpt lat="49.57698" lon="-1.66159">
        <ele>157.335823</ele>
        <time>2021-11-21T10:05:30.553Z</time>
      </trkpt>
      <trkpt lat="49.57702" lon="-1.66146">
        <ele>157.526932</ele>
        <time>2021-11-21T10:05:32.974Z</time>
      </trkpt>
      <trkpt lat="49.57707" lon="-1.66131">
        <ele>157.74646</ele>
        <time>2021-11-21T10:05:35.714Z</time>
      </trkpt>
      <trkpt lat="49.57712" lon="-1.66115">
        <ele>157.981243</ele>
        <time>2021-11-21T10:05:38.297Z</time>
      </trkpt>
      <trkpt lat="49.57716" lon="-1.66102">
        <ele>158.176921</ele>
        <time>2021-11-21T10:05:40.714Z</time>
      </trkpt>
      <trkpt lat="49.57722" lon="-1.66085">
        <ele>158.33936</ele>
        <time>2021-11-21T10:05:44.046Z</time>
      </trkpt>
      <trkpt lat="49.57726" lon="-1.66072">
        <ele>158.200529</ele>
        <time>2021-11-21T10:05:46.816Z</time>
      </trkpt>
      <trkpt lat="49.5773" lon="-1.66059">
        <ele>158.062219</ele>
        <time>2021-11-21T10:05:49.557Z</time>
      </trkpt>
      <trkpt lat="49.57733" lon="-1.66044">
        <ele>157.909971</ele>
        <time>2021-11-21T10:05:52.936Z</time>
      </trkpt>
      <trkpt lat="49.57737" lon="-1.6603">
        <ele>157.768844</ele>
        <time>2021-11-21T10:05:55.515Z</time>
      </trkpt>
      <trkpt lat="49.57742" lon="-1.66016">
        <ele>157.618506</ele>
        <time>2021-11-21T10:05:59.048Z</time>
      </trkpt>
      <trkpt lat="49.57747" lon="-1.66004">
        <ele>157.479381</ele>
        <time>2021-11-21T10:06:02.639Z</time>
      </trkpt>
      <trkpt lat="49.57752" lon="-1.65988">
        <ele>157.310252</ele>
        <time>2021-11-21T10:06:05.692Z</time>
      </trkpt>
      <trkpt lat="49.57755" lon="-1.65975">
        <ele>157.177027</ele>
        <time>2021-11-21T10:06:07.696Z</time>
      </trkpt>
      <trkpt lat="49.57759" lon="-1.65959">
        <ele>157.010851</ele>
        <time>2021-11-21T10:06:09.053Z</time>
      </trkpt>
      <trkpt lat="49.57763" lon="-1.65939">
        <ele>156.813321</ele>
        <time>2021-11-21T10:06:11.051Z</time>
      </trkpt>
      <trkpt lat="49.57768" lon="-1.65922">
        <ele>156.638266</ele>
        <time>2021-11-21T10:06:13.054Z</time>
      </trkpt>
      <trkpt lat="49.57773" lon="-1.65903">
        <ele>156.445342</ele>
        <time>2021-11-21T10:06:15.052Z</time>
      </trkpt>
      <trkpt lat="49.57779" lon="-1.65882">
        <ele>156.219856</ele>
        <time>2021-11-21T10:06:17.048Z</time>
      </trkpt>
      <trkpt lat="49.57786" lon="-1.65863">
        <ele>156.015751</ele>
        <time>2021-11-21T10:06:19.041Z</time>
      </trkpt>
      <trkpt lat="49.57791" lon="-1.65845">
        <ele>155.831379</ele>
        <time>2021-11-21T10:06:21.059Z</time>
      </trkpt>
      <trkpt lat="49.57796" lon="-1.65828">
        <ele>155.659832</ele>
        <time>2021-11-21T10:06:23.060Z</time>
      </trkpt>
      <trkpt lat="49.57801" lon="-1.65811">
        <ele>155.508195</ele>
        <time>2021-11-21T10:06:25.044Z</time>
      </trkpt>
      <trkpt lat="49.57804" lon="-1.65797">
        <ele>155.373952</ele>
        <time>2021-11-21T10:06:27.043Z</time>
      </trkpt>
      <trkpt lat="49.57808" lon="-1.65783">
        <ele>155.245206</ele>
        <time>2021-11-21T10:06:29.050Z</time>
      </trkpt>
      <trkpt lat="49.57805" lon="-1.65766">
        <ele>155.099134</ele>
        <time>2021-11-21T10:06:31.058Z</time>
      </trkpt>
      <trkpt lat="49.57811" lon="-1.65756">
        <ele>154.974441</ele>
        <time>2021-11-21T10:06:33.055Z</time>
      </trkpt>
      <trkpt lat="49.5782" lon="-1.65734">
        <ele>154.760783</ele>
        <time>2021-11-21T10:06:35.045Z</time>
      </trkpt>
      <trkpt lat="49.57823" lon="-1.65717">
        <ele>154.604436</ele>
        <time>2021-11-21T10:06:37.052Z</time>
      </trkpt>
      <trkpt lat="49.57826" lon="-1.65693">
        <ele>154.403231</ele>
        <time>2021-11-21T10:06:39.031Z</time>
      </trkpt>
      <trkpt lat="49.57828" lon="-1.65673">
        <ele>154.232406</ele>
        <time>2021-11-21T10:06:41.070Z</time>
      </trkpt>
      <trkpt lat="49.57828" lon="-1.65656">
        <ele>154.085507</ele>
        <time>2021-11-21T10:06:44.787Z</time>
      </trkpt>
      <trkpt lat="49.57829" lon="-1.65642">
        <ele>153.964194</ele>
        <time>2021-11-21T10:06:47.882Z</time>
      </trkpt>
      <trkpt lat="49.57828" lon="-1.65624">
        <ele>153.812996</ele>
        <time>2021-11-21T10:06:52.047Z</time>
      </trkpt>
      <trkpt lat="49.5783" lon="-1.65608">
        <ele>153.677134</ele>
        <time>2021-11-21T10:06:54.907Z</time>
      </trkpt>
      <trkpt lat="49.57831" lon="-1.65587">
        <ele>153.497211</ele>
        <time>2021-11-21T10:06:57.047Z</time>
      </trkpt>
      <trkpt lat="49.57836" lon="-1.65574">
        <ele>153.363292</ele>
        <time>2021-11-21T10:06:59.252Z</time>
      </trkpt>
      <trkpt lat="49.5784" lon="-1.65554">
        <ele>153.089034</ele>
        <time>2021-11-21T10:07:02.042Z</time>
      </trkpt>
      <trkpt lat="49.57842" lon="-1.65536">
        <ele>152.853898</ele>
        <time>2021-11-21T10:07:04.056Z</time>
      </trkpt>
      <trkpt lat="49.57846" lon="-1.6552">
        <ele>152.635963</ele>
        <time>2021-11-21T10:07:06.041Z</time>
      </trkpt>
      <trkpt lat="49.57848" lon="-1.65504">
        <ele>152.417592</ele>
        <time>2021-11-21T10:07:08.475Z</time>
      </trkpt>
      <trkpt lat="49.57844" lon="-1.65489">
        <ele>152.202334</ele>
        <time>2021-11-21T10:07:10.062Z</time>
      </trkpt>
      <trkpt lat="49.57839" lon="-1.65465">
        <ele>151.873814</ele>
        <time>2021-11-21T10:07:13.035Z</time>
      </trkpt>
      <trkpt lat="49.57835" lon="-1.65449">
        <ele>151.651529</ele>
        <time>2021-11-21T10:07:15.057Z</time>
      </trkpt>
      <trkpt lat="49.57831" lon="-1.65432">
        <ele>151.418686</ele>
        <time>2021-11-21T10:07:17.040Z</time>
      </trkpt>
      <trkpt lat="49.57828" lon="-1.65415">
        <ele>151.186237</ele>
        <time>2021-11-21T10:07:19.036Z</time>
      </trkpt>
      <trkpt lat="49.57826" lon="-1.65396">
        <ele>150.940944</ele>
        <time>2021-11-21T10:07:21.056Z</time>
      </trkpt>
      <trkpt lat="49.57824" lon="-1.65379">
        <ele>150.723908</ele>
        <time>2021-11-21T10:07:23.041Z</time>
      </trkpt>
      <trkpt lat="49.57824" lon="-1.65359">
        <ele>150.464235</ele>
        <time>2021-11-21T10:07:25.054Z</time>
      </trkpt>
      <trkpt lat="49.57825" lon="-1.6534">
        <ele>150.214887</ele>
        <time>2021-11-21T10:07:27.059Z</time>
      </trkpt>
      <trkpt lat="49.57826" lon="-1.65321">
        <ele>149.968214</ele>
        <time>2021-11-21T10:07:29.051Z</time>
      </trkpt>
      <trkpt lat="49.57829" lon="-1.65303">
        <ele>150.116512</ele>
        <time>2021-11-21T10:07:31.064Z</time>
      </trkpt>
      <trkpt lat="49.57832" lon="-1.65288">
        <ele>151.313992</ele>
        <time>2021-11-21T10:07:33.055Z</time>
      </trkpt>
      <trkpt lat="49.57836" lon="-1.65274">
        <ele>152.507683</ele>
        <time>2021-11-21T10:07:36.060Z</time>
      </trkpt>
      <trkpt lat="49.57846" lon="-1.65272">
        <ele>153.712518</ele>
        <time>2021-11-21T10:07:40.039Z</time>
      </trkpt>
      <trkpt lat="49.57854" lon="-1.6528">
        <ele>154.885118</ele>
        <time>2021-11-21T10:07:42.963Z</time>
      </trkpt>
      <trkpt lat="49.57861" lon="-1.65292">
        <ele>156.074184</ele>
        <time>2021-11-21T10:07:45.325Z</time>
      </trkpt>
      <trkpt lat="49.57867" lon="-1.65303">
        <ele>157.142198</ele>
        <time>2021-11-21T10:07:47.665Z</time>
      </trkpt>
      <trkpt lat="49.57874" lon="-1.65313">
        <ele>158.335168</ele>
        <time>2021-11-21T10:07:50.924Z</time>
      </trkpt>
      <trkpt lat="49.57879" lon="-1.65327">
        <ele>159.543835</ele>
        <time>2021-11-21T10:07:54.907Z</time>
      </trkpt>
      <trkpt lat="49.57886" lon="-1.65339">
        <ele>160.76338</ele>
        <time>2021-11-21T10:07:58.725Z</time>
      </trkpt>
      <trkpt lat="49.57891" lon="-1.65351">
        <ele>161.841677</ele>
        <time>2021-11-21T10:08:02.063Z</time>
      </trkpt>
      <trkpt lat="49.57897" lon="-1.65364">
        <ele>163.047829</ele>
        <time>2021-11-21T10:08:05.870Z</time>
      </trkpt>
      <trkpt lat="49.57901" lon="-1.65377">
        <ele>164.172682</ele>
        <time>2021-11-21T10:08:09.940Z</time>
      </trkpt>
      <trkpt lat="49.57905" lon="-1.65393">
        <ele>165.408576</ele>
        <time>2021-11-21T10:08:13.825Z</time>
      </trkpt>
      <trkpt lat="49.57909" lon="-1.65407">
        <ele>166.595184</ele>
        <time>2021-11-21T10:08:17.052Z</time>
      </trkpt>
      <trkpt lat="49.57913" lon="-1.65421">
        <ele>167.767597</ele>
        <time>2021-11-21T10:08:20.685Z</time>
      </trkpt>
      <trkpt lat="49.57916" lon="-1.65436">
        <ele>168.914124</ele>
        <time>2021-11-21T10:08:24.423Z</time>
      </trkpt>
      <trkpt lat="49.57919" lon="-1.65451">
        <ele>170.173183</ele>
        <time>2021-11-21T10:08:29.051Z</time>
      </trkpt>
      <trkpt lat="49.57925" lon="-1.65465">
        <ele>171.268646</ele>
        <time>2021-11-21T10:08:34.066Z</time>
      </trkpt>
      <trkpt lat="49.5793" lon="-1.65477">
        <ele>172.180646</ele>
        <time>2021-11-21T10:08:39.947Z</time>
      </trkpt>
      <trkpt lat="49.57937" lon="-1.65488">
        <ele>173.070065</ele>
        <time>2021-11-21T10:08:45.797Z</time>
      </trkpt>
      <trkpt lat="49.57947" lon="-1.6549">
        <ele>173.925946</ele>
        <time>2021-11-21T10:08:50.509Z</time>
      </trkpt>
      <trkpt lat="49.57957" lon="-1.6549">
        <ele>174.905233</ele>
        <time>2021-11-21T10:08:54.009Z</time>
      </trkpt>
      <trkpt lat="49.57968" lon="-1.6549">
        <ele>175.857368</ele>
        <time>2021-11-21T10:08:57.055Z</time>
      </trkpt>
      <trkpt lat="49.57977" lon="-1.65489">
        <ele>176.718046</ele>
        <time>2021-11-21T10:09:00.052Z</time>
      </trkpt>
      <trkpt lat="49.57986" lon="-1.65489">
        <ele>177.551098</ele>
        <time>2021-11-21T10:09:04.033Z</time>
      </trkpt>
      <trkpt lat="49.57993" lon="-1.65499">
        <ele>178.464518</ele>
        <time>2021-11-21T10:09:08.830Z</time>
      </trkpt>
      <trkpt lat="49.57996" lon="-1.65513">
        <ele>179.317972</ele>
        <time>2021-11-21T10:09:11.954Z</time>
      </trkpt>
      <trkpt lat="49.57999" lon="-1.65528">
        <ele>180.229482</ele>
        <time>2021-11-21T10:09:14.062Z</time>
      </trkpt>
      <trkpt lat="49.58" lon="-1.65543">
        <ele>181.152035</ele>
        <time>2021-11-21T10:09:16.057Z</time>
      </trkpt>
      <trkpt lat="49.58" lon="-1.65559">
        <ele>182.090594</ele>
        <time>2021-11-21T10:09:18.055Z</time>
      </trkpt>
      <trkpt lat="49.58001" lon="-1.65575">
        <ele>183.047982</ele>
        <time>2021-11-21T10:09:20.054Z</time>
      </trkpt>
      <trkpt lat="49.58002" lon="-1.65592">
        <ele>184.064576</ele>
        <time>2021-11-21T10:09:22.041Z</time>
      </trkpt>
      <trkpt lat="49.58003" lon="-1.65609">
        <ele>185.090035</ele>
        <time>2021-11-21T10:09:24.034Z</time>
      </trkpt>
      <trkpt lat="49.58005" lon="-1.65627">
        <ele>186.126209</ele>
        <time>2021-11-21T10:09:26.056Z</time>
      </trkpt>
      <trkpt lat="49.58008" lon="-1.65643">
        <ele>187.151154</ele>
        <time>2021-11-21T10:09:28.051Z</time>
      </trkpt>
      <trkpt lat="49.58012" lon="-1.6566">
        <ele>187.070598</ele>
        <time>2021-11-21T10:09:30.053Z</time>
      </trkpt>
      <trkpt lat="49.58015" lon="-1.65677">
        <ele>186.749842</ele>
        <time>2021-11-21T10:09:32.056Z</time>
      </trkpt>
      <trkpt lat="49.58019" lon="-1.65693">
        <ele>186.431472</ele>
        <time>2021-11-21T10:09:34.043Z</time>
      </trkpt>
      <trkpt lat="49.58023" lon="-1.6571">
        <ele>186.108918</ele>
        <time>2021-11-21T10:09:36.059Z</time>
      </trkpt>
      <trkpt lat="49.58026" lon="-1.65727">
        <ele>185.792272</ele>
        <time>2021-11-21T10:09:38.047Z</time>
      </trkpt>
      <trkpt lat="49.58028" lon="-1.65744">
        <ele>185.474187</ele>
        <time>2021-11-21T10:09:40.039Z</time>
      </trkpt>
      <trkpt lat="49.5803" lon="-1.65762">
        <ele>185.141236</ele>
        <time>2021-11-21T10:09:42.038Z</time>
      </trkpt>
      <trkpt lat="49.58031" lon="-1.6578">
        <ele>184.816189</ele>
        <time>2021-11-21T10:09:44.049Z</time>
      </trkpt>
      <trkpt lat="49.58032" lon="-1.65798">
        <ele>184.49507</ele>
        <time>2021-11-21T10:09:46.039Z</time>
      </trkpt>
      <trkpt lat="49.58034" lon="-1.65815">
        <ele>184.184416</ele>
        <time>2021-11-21T10:09:48.052Z</time>
      </trkpt>
      <trkpt lat="49.58037" lon="-1.65832">
        <ele>183.853237</ele>
        <time>2021-11-21T10:09:50.035Z</time>
      </trkpt>
      <trkpt lat="49.5804" lon="-1.65851">
        <ele>183.501909</ele>
        <time>2021-11-21T10:09:52.039Z</time>
      </trkpt>
      <trkpt lat="49.58043" lon="-1.6587">
        <ele>183.144979</ele>
        <time>2021-11-21T10:09:54.050Z</time>
      </trkpt>
      <trkpt lat="49.58047" lon="-1.65889">
        <ele>182.795079</ele>
        <time>2021-11-21T10:09:56.042Z</time>
      </trkpt>
      <trkpt lat="49.5805" lon="-1.65907">
        <ele>182.45187</ele>
        <time>2021-11-21T10:09:58.049Z</time>
      </trkpt>
      <trkpt lat="49.58054" lon="-1.65925">
        <ele>182.048016</ele>
        <time>2021-11-21T10:10:00.058Z</time>
      </trkpt>
      <trkpt lat="49.58057" lon="-1.65942">
        <ele>181.616247</ele>
        <time>2021-11-21T10:10:02.054Z</time>
      </trkpt>
      <trkpt lat="49.5806" lon="-1.65958">
        <ele>181.208427</ele>
        <time>2021-11-21T10:10:04.048Z</time>
      </trkpt>
      <trkpt lat="49.58062" lon="-1.65975">
        <ele>180.795908</ele>
        <time>2021-11-21T10:10:06.041Z</time>
      </trkpt>
      <trkpt lat="49.58065" lon="-1.65992">
        <ele>180.353354</ele>
        <time>2021-11-21T10:10:08.061Z</time>
      </trkpt>
      <trkpt lat="49.58069" lon="-1.66012">
        <ele>179.862472</ele>
        <time>2021-11-21T10:10:10.046Z</time>
      </trkpt>
      <trkpt lat="49.58072" lon="-1.6603">
        <ele>179.401009</ele>
        <time>2021-11-21T10:10:12.039Z</time>
      </trkpt>
      <trkpt lat="49.58075" lon="-1.66049">
        <ele>178.938225</ele>
        <time>2021-11-21T10:10:14.038Z</time>
      </trkpt>
      <trkpt lat="49.58079" lon="-1.66069">
        <ele>178.417309</ele>
        <time>2021-11-21T10:10:16.056Z</time>
      </trkpt>
      <trkpt lat="49.58082" lon="-1.66089">
        <ele>177.929705</ele>
        <time>2021-11-21T10:10:18.044Z</time>
      </trkpt>
      <trkpt lat="49.58085" lon="-1.66108">
        <ele>177.451817</ele>
        <time>2021-11-21T10:10:20.056Z</time>
      </trkpt>
      <trkpt lat="49.58089" lon="-1.66129">
        <ele>176.933648</ele>
        <time>2021-11-21T10:10:22.038Z</time>
      </trkpt>
      <trkpt lat="49.58092" lon="-1.66146">
        <ele>176.498833</ele>
        <time>2021-11-21T10:10:24.054Z</time>
      </trkpt>
      <trkpt lat="49.58095" lon="-1.6616">
        <ele>176.126422</ele>
        <time>2021-11-21T10:10:26.051Z</time>
      </trkpt>
      <trkpt lat="49.58098" lon="-1.66176">
        <ele>175.745353</ele>
        <time>2021-11-21T10:10:28.051Z</time>
      </trkpt>
      <trkpt lat="49.58102" lon="-1.66193">
        <ele>175.108387</ele>
        <time>2021-11-21T10:10:31.038Z</time>
      </trkpt>
      <trkpt lat="49.58114" lon="-1.66195">
        <ele>174.385483</ele>
        <time>2021-11-21T10:10:35.052Z</time>
      </trkpt>
      <trkpt lat="49.58122" lon="-1.66189">
        <ele>173.798679</ele>
        <time>2021-11-21T10:10:36.618Z</time>
      </trkpt>
      <trkpt lat="49.58131" lon="-1.66183">
        <ele>173.206121</ele>
        <time>2021-11-21T10:10:39.049Z</time>
      </trkpt>
      <trkpt lat="49.58138" lon="-1.66175">
        <ele>172.638506</ele>
        <time>2021-11-21T10:10:41.054Z</time>
      </trkpt>
      <trkpt lat="49.58146" lon="-1.66167">
        <ele>172.052449</ele>
        <time>2021-11-21T10:10:43.062Z</time>
      </trkpt>
      <trkpt lat="49.58154" lon="-1.6616">
        <ele>171.460182</ele>
        <time>2021-11-21T10:10:45.049Z</time>
      </trkpt>
      <trkpt lat="49.58163" lon="-1.66152">
        <ele>170.857282</ele>
        <time>2021-11-21T10:10:47.053Z</time>
      </trkpt>
      <trkpt lat="49.58171" lon="-1.66147">
        <ele>170.275529</ele>
        <time>2021-11-21T10:10:49.060Z</time>
      </trkpt>
      <trkpt lat="49.58181" lon="-1.66162">
        <ele>169.439395</ele>
        <time>2021-11-21T10:10:52.053Z</time>
      </trkpt>
      <trkpt lat="49.58187" lon="-1.66178">
        <ele>168.709678</ele>
        <time>2021-11-21T10:10:54.056Z</time>
      </trkpt>
      <trkpt lat="49.58194" lon="-1.66194">
        <ele>167.901237</ele>
        <time>2021-11-21T10:10:56.046Z</time>
      </trkpt>
      <trkpt lat="49.58205" lon="-1.6621">
        <ele>166.984036</ele>
        <time>2021-11-21T10:10:58.050Z</time>
      </trkpt>
      <trkpt lat="49.58217" lon="-1.66227">
        <ele>165.969816</ele>
        <time>2021-11-21T10:11:00.059Z</time>
      </trkpt>
      <trkpt lat="49.58229" lon="-1.66245">
        <ele>164.901547</ele>
        <time>2021-11-21T10:11:02.055Z</time>
      </trkpt>
      <trkpt lat="49.5824" lon="-1.66266">
        <ele>163.811054</ele>
        <time>2021-11-21T10:11:04.041Z</time>
      </trkpt>
      <trkpt lat="49.58245" lon="-1.66279">
        <ele>163.236988</ele>
        <time>2021-11-21T10:11:05.056Z</time>
      </trkpt>
      <trkpt lat="49.58248" lon="-1.66292">
        <ele>162.65116</ele>
        <time>2021-11-21T10:11:06.060Z</time>
      </trkpt>
      <trkpt lat="49.58254" lon="-1.66318">
        <ele>161.52781</ele>
        <time>2021-11-21T10:11:08.051Z</time>
      </trkpt>
      <trkpt lat="49.58257" lon="-1.66332">
        <ele>160.930413</ele>
        <time>2021-11-21T10:11:09.051Z</time>
      </trkpt>
      <trkpt lat="49.5826" lon="-1.66347">
        <ele>160.29624</ele>
        <time>2021-11-21T10:11:10.061Z</time>
      </trkpt>
      <trkpt lat="49.58263" lon="-1.66363">
        <ele>159.638736</ele>
        <time>2021-11-21T10:11:11.041Z</time>
      </trkpt>
      <trkpt lat="49.58266" lon="-1.66379">
        <ele>158.963859</ele>
        <time>2021-11-21T10:11:12.040Z</time>
      </trkpt>
      <trkpt lat="49.58269" lon="-1.66394">
        <ele>158.302661</ele>
        <time>2021-11-21T10:11:13.050Z</time>
      </trkpt>
      <trkpt lat="49.58272" lon="-1.66409">
        <ele>157.658856</ele>
        <time>2021-11-21T10:11:14.052Z</time>
      </trkpt>
      <trkpt lat="49.58275" lon="-1.66425">
        <ele>156.995729</ele>
        <time>2021-11-21T10:11:15.053Z</time>
      </trkpt>
      <trkpt lat="49.58278" lon="-1.66439">
        <ele>156.373193</ele>
        <time>2021-11-21T10:11:16.055Z</time>
      </trkpt>
      <trkpt lat="49.58281" lon="-1.66453">
        <ele>155.791265</ele>
        <time>2021-11-21T10:11:17.051Z</time>
      </trkpt>
      <trkpt lat="49.58284" lon="-1.66466">
        <ele>155.204827</ele>
        <time>2021-11-21T10:11:18.061Z</time>
      </trkpt>
      <trkpt lat="49.58288" lon="-1.66481">
        <ele>154.551697</ele>
        <time>2021-11-21T10:11:19.057Z</time>
      </trkpt>
      <trkpt lat="49.58292" lon="-1.66495">
        <ele>153.935738</ele>
        <time>2021-11-21T10:11:20.045Z</time>
      </trkpt>
      <trkpt lat="49.58296" lon="-1.6651">
        <ele>153.303799</ele>
        <time>2021-11-21T10:11:21.047Z</time>
      </trkpt>
      <trkpt lat="49.583" lon="-1.66524">
        <ele>152.993636</ele>
        <time>2021-11-21T10:11:22.042Z</time>
      </trkpt>
      <trkpt lat="49.58304" lon="-1.66539">
        <ele>152.82449</ele>
        <time>2021-11-21T10:11:23.039Z</time>
      </trkpt>
      <trkpt lat="49.58308" lon="-1.66554">
        <ele>152.651831</ele>
        <time>2021-11-21T10:11:24.058Z</time>
      </trkpt>
      <trkpt lat="49.58313" lon="-1.66569">
        <ele>152.484934</ele>
        <time>2021-11-21T10:11:25.051Z</time>
      </trkpt>
      <trkpt lat="49.58316" lon="-1.66583">
        <ele>152.324944</ele>
        <time>2021-11-21T10:11:26.055Z</time>
      </trkpt>
      <trkpt lat="49.5832" lon="-1.66597">
        <ele>152.168453</ele>
        <time>2021-11-21T10:11:27.043Z</time>
      </trkpt>
      <trkpt lat="49.58323" lon="-1.66611">
        <ele>152.018628</ele>
        <time>2021-11-21T10:11:28.038Z</time>
      </trkpt>
      <trkpt lat="49.58326" lon="-1.66625">
        <ele>151.865838</ele>
        <time>2021-11-21T10:11:29.048Z</time>
      </trkpt>
      <trkpt lat="49.58328" lon="-1.66638">
        <ele>151.719997</ele>
        <time>2021-11-21T10:11:30.060Z</time>
      </trkpt>
      <trkpt lat="49.58331" lon="-1.66651">
        <ele>151.575148</ele>
        <time>2021-11-21T10:11:31.057Z</time>
      </trkpt>
      <trkpt lat="49.58337" lon="-1.66676">
        <ele>151.297835</ele>
        <time>2021-11-21T10:11:33.046Z</time>
      </trkpt>
      <trkpt lat="49.58344" lon="-1.66697">
        <ele>151.053954</ele>
        <time>2021-11-21T10:11:35.058Z</time>
      </trkpt>
      <trkpt lat="49.58355" lon="-1.66711">
        <ele>150.827208</ele>
        <time>2021-11-21T10:11:37.044Z</time>
      </trkpt>
      <trkpt lat="49.58367" lon="-1.66721">
        <ele>150.602067</ele>
        <time>2021-11-21T10:11:39.052Z</time>
      </trkpt>
      <trkpt lat="49.5838" lon="-1.66733">
        <ele>150.363567</ele>
        <time>2021-11-21T10:11:41.050Z</time>
      </trkpt>
      <trkpt lat="49.58391" lon="-1.66745">
        <ele>150.344695</ele>
        <time>2021-11-21T10:11:43.054Z</time>
      </trkpt>
      <trkpt lat="49.58401" lon="-1.66755">
        <ele>150.709888</ele>
        <time>2021-11-21T10:11:45.048Z</time>
      </trkpt>
      <trkpt lat="49.58411" lon="-1.66763">
        <ele>151.046816</ele>
        <time>2021-11-21T10:11:47.040Z</time>
      </trkpt>
      <trkpt lat="49.5842" lon="-1.6677">
        <ele>151.334526</ele>
        <time>2021-11-21T10:11:49.046Z</time>
      </trkpt>
      <trkpt lat="49.58427" lon="-1.6678">
        <ele>151.630729</ele>
        <time>2021-11-21T10:11:51.055Z</time>
      </trkpt>
      <trkpt lat="49.5843" lon="-1.66796">
        <ele>151.958571</ele>
        <time>2021-11-21T10:11:53.049Z</time>
      </trkpt>
      <trkpt lat="49.58434" lon="-1.66813">
        <ele>152.298986</ele>
        <time>2021-11-21T10:11:55.053Z</time>
      </trkpt>
      <trkpt lat="49.58438" lon="-1.66831">
        <ele>152.658729</ele>
        <time>2021-11-21T10:11:57.053Z</time>
      </trkpt>
      <trkpt lat="49.58443" lon="-1.66849">
        <ele>153.037078</ele>
        <time>2021-11-21T10:11:59.057Z</time>
      </trkpt>
      <trkpt lat="49.58448" lon="-1.66867">
        <ele>153.410414</ele>
        <time>2021-11-21T10:12:01.059Z</time>
      </trkpt>
      <trkpt lat="49.58452" lon="-1.66885">
        <ele>153.776917</ele>
        <time>2021-11-21T10:12:03.058Z</time>
      </trkpt>
      <trkpt lat="49.58455" lon="-1.669">
        <ele>154.084213</ele>
        <time>2021-11-21T10:12:05.037Z</time>
      </trkpt>
      <trkpt lat="49.58457" lon="-1.66917">
        <ele>154.403942</ele>
        <time>2021-11-21T10:12:07.054Z</time>
      </trkpt>
      <trkpt lat="49.58458" lon="-1.66934">
        <ele>154.74058</ele>
        <time>2021-11-21T10:12:09.057Z</time>
      </trkpt>
      <trkpt lat="49.58459" lon="-1.66949">
        <ele>155.037811</ele>
        <time>2021-11-21T10:12:11.054Z</time>
      </trkpt>
      <trkpt lat="49.58461" lon="-1.66966">
        <ele>155.364013</ele>
        <time>2021-11-21T10:12:13.059Z</time>
      </trkpt>
      <trkpt lat="49.58465" lon="-1.66981">
        <ele>155.373214</ele>
        <time>2021-11-21T10:12:15.054Z</time>
      </trkpt>
      <trkpt lat="49.58474" lon="-1.66996">
        <ele>154.822479</ele>
        <time>2021-11-21T10:12:17.059Z</time>
      </trkpt>
      <trkpt lat="49.58483" lon="-1.67006">
        <ele>154.349018</ele>
        <time>2021-11-21T10:12:20.840Z</time>
      </trkpt>
      <trkpt lat="49.58493" lon="-1.67016">
        <ele>153.832951</ele>
        <time>2021-11-21T10:12:23.974Z</time>
      </trkpt>
      <trkpt lat="49.58502" lon="-1.67025">
        <ele>153.397362</ele>
        <time>2021-11-21T10:12:26.803Z</time>
      </trkpt>
      <trkpt lat="49.5851" lon="-1.67034">
        <ele>152.994505</ele>
        <time>2021-11-21T10:12:29.604Z</time>
      </trkpt>
      <trkpt lat="49.58518" lon="-1.67043">
        <ele>152.571313</ele>
        <time>2021-11-21T10:12:33.059Z</time>
      </trkpt>
      <trkpt lat="49.58528" lon="-1.67055">
        <ele>152.016475</ele>
        <time>2021-11-21T10:12:37.056Z</time>
      </trkpt>
      <trkpt lat="49.58536" lon="-1.67064">
        <ele>151.61532</ele>
        <time>2021-11-21T10:12:40.047Z</time>
      </trkpt>
      <trkpt lat="49.58544" lon="-1.67074">
        <ele>151.157399</ele>
        <time>2021-11-21T10:12:44.054Z</time>
      </trkpt>
      <trkpt lat="49.58551" lon="-1.67086">
        <ele>150.745421</ele>
        <time>2021-11-21T10:12:46.719Z</time>
      </trkpt>
      <trkpt lat="49.58557" lon="-1.67102">
        <ele>150.237952</ele>
        <time>2021-11-21T10:12:51.054Z</time>
      </trkpt>
      <trkpt lat="49.58564" lon="-1.67115">
        <ele>149.766625</ele>
        <time>2021-11-21T10:13:19.059Z</time>
      </trkpt>
      <trkpt lat="49.58568" lon="-1.67128">
        <ele>149.370735</ele>
        <time>2021-11-21T10:13:26.701Z</time>
      </trkpt>
      <trkpt lat="49.58569" lon="-1.67144">
        <ele>148.944614</ele>
        <time>2021-11-21T10:13:31.032Z</time>
      </trkpt>
      <trkpt lat="49.58575" lon="-1.67157">
        <ele>148.503778</ele>
        <time>2021-11-21T10:13:34.053Z</time>
      </trkpt>
      <trkpt lat="49.58588" lon="-1.67193">
        <ele>146.778902</ele>
        <time>2021-11-21T10:13:37.052Z</time>
      </trkpt>
      <trkpt lat="49.58592" lon="-1.67204">
        <ele>145.998424</ele>
        <time>2021-11-21T10:13:38.051Z</time>
      </trkpt>
      <trkpt lat="49.586" lon="-1.67225">
        <ele>144.656063</ele>
        <time>2021-11-21T10:13:40.064Z</time>
      </trkpt>
      <trkpt lat="49.58608" lon="-1.67246">
        <ele>143.302059</ele>
        <time>2021-11-21T10:13:42.062Z</time>
      </trkpt>
      <trkpt lat="49.58615" lon="-1.67256">
        <ele>142.444371</ele>
        <time>2021-11-21T10:13:45.757Z</time>
      </trkpt>
      <trkpt lat="49.58623" lon="-1.67273">
        <ele>141.25684</ele>
        <time>2021-11-21T10:13:48.056Z</time>
      </trkpt>
      <trkpt lat="49.58634" lon="-1.67299">
        <ele>139.511077</ele>
        <time>2021-11-21T10:13:50.057Z</time>
      </trkpt>
      <trkpt lat="49.58639" lon="-1.67318">
        <ele>138.351904</ele>
        <time>2021-11-21T10:13:52.043Z</time>
      </trkpt>
      <trkpt lat="49.58649" lon="-1.67336">
        <ele>137.000863</ele>
        <time>2021-11-21T10:13:54.063Z</time>
      </trkpt>
      <trkpt lat="49.58658" lon="-1.6735">
        <ele>135.950166</ele>
        <time>2021-11-21T10:13:56.060Z</time>
      </trkpt>
      <trkpt lat="49.58666" lon="-1.67363">
        <ele>134.923715</ele>
        <time>2021-11-21T10:13:58.054Z</time>
      </trkpt>
      <trkpt lat="49.58674" lon="-1.67375">
        <ele>133.949805</ele>
        <time>2021-11-21T10:14:00.056Z</time>
      </trkpt>
      <trkpt lat="49.58681" lon="-1.67387">
        <ele>133.062779</ele>
        <time>2021-11-21T10:14:02.073Z</time>
      </trkpt>
      <trkpt lat="49.58688" lon="-1.67399">
        <ele>132.13655</ele>
        <time>2021-11-21T10:14:04.066Z</time>
      </trkpt>
      <trkpt lat="49.58695" lon="-1.6741">
        <ele>131.249221</ele>
        <time>2021-11-21T10:14:06.784Z</time>
      </trkpt>
      <trkpt lat="49.58702" lon="-1.67423">
        <ele>130.388737</ele>
        <time>2021-11-21T10:14:09.865Z</time>
      </trkpt>
      <trkpt lat="49.5871" lon="-1.67435">
        <ele>129.405345</ele>
        <time>2021-11-21T10:14:12.855Z</time>
      </trkpt>
      <trkpt lat="49.58717" lon="-1.67446">
        <ele>128.549391</ele>
        <time>2021-11-21T10:14:14.918Z</time>
      </trkpt>
      <trkpt lat="49.58719" lon="-1.6746">
        <ele>127.774828</ele>
        <time>2021-11-21T10:14:17.836Z</time>
      </trkpt>
      <trkpt lat="49.58718" lon="-1.67477">
        <ele>126.842564</ele>
        <time>2021-11-21T10:14:23.047Z</time>
      </trkpt>
      <trkpt lat="49.58723" lon="-1.67494">
        <ele>125.857254</ele>
        <time>2021-11-21T10:14:26.795Z</time>
      </trkpt>
      <trkpt lat="49.58727" lon="-1.67508">
        <ele>125.004006</ele>
        <time>2021-11-21T10:14:29.419Z</time>
      </trkpt>
      <trkpt lat="49.58732" lon="-1.67521">
        <ele>124.16569</ele>
        <time>2021-11-21T10:14:32.056Z</time>
      </trkpt>
      <trkpt lat="49.58738" lon="-1.67537">
        <ele>123.179658</ele>
        <time>2021-11-21T10:14:34.998Z</time>
      </trkpt>
      <trkpt lat="49.58742" lon="-1.67552">
        <ele>122.316775</ele>
        <time>2021-11-21T10:14:37.902Z</time>
      </trkpt>
      <trkpt lat="49.58747" lon="-1.67566">
        <ele>121.42374</ele>
        <time>2021-11-21T10:14:42.065Z</time>
      </trkpt>
      <trkpt lat="49.58753" lon="-1.67578">
        <ele>120.603404</ele>
        <time>2021-11-21T10:14:45.225Z</time>
      </trkpt>
      <trkpt lat="49.5876" lon="-1.67591">
        <ele>119.654578</ele>
        <time>2021-11-21T10:14:48.627Z</time>
      </trkpt>
      <trkpt lat="49.58767" lon="-1.67601">
        <ele>118.863545</ele>
        <time>2021-11-21T10:14:51.034Z</time>
      </trkpt>
      <trkpt lat="49.58773" lon="-1.67612">
        <ele>118.048541</ele>
        <time>2021-11-21T10:14:53.056Z</time>
      </trkpt>
      <trkpt lat="49.58779" lon="-1.67623">
        <ele>117.278</ele>
        <time>2021-11-21T10:14:54.922Z</time>
      </trkpt>
      <trkpt lat="49.58786" lon="-1.67637">
        <ele>116.412219</ele>
        <time>2021-11-21T10:14:58.063Z</time>
      </trkpt>
      <trkpt lat="49.58794" lon="-1.67648">
        <ele>115.656379</ele>
        <time>2021-11-21T10:15:00.050Z</time>
      </trkpt>
      <trkpt lat="49.58801" lon="-1.67659">
        <ele>114.901218</ele>
        <time>2021-11-21T10:15:01.994Z</time>
      </trkpt>
      <trkpt lat="49.58814" lon="-1.67677">
        <ele>113.672759</ele>
        <time>2021-11-21T10:15:04.561Z</time>
      </trkpt>
      <trkpt lat="49.58822" lon="-1.67689">
        <ele>112.858162</ele>
        <time>2021-11-21T10:15:06.998Z</time>
      </trkpt>
      <trkpt lat="49.5883" lon="-1.67704">
        <ele>111.9521</ele>
        <time>2021-11-21T10:15:10.048Z</time>
      </trkpt>
      <trkpt lat="49.58837" lon="-1.67715">
        <ele>111.246276</ele>
        <time>2021-11-21T10:15:12.813Z</time>
      </trkpt>
      <trkpt lat="49.58845" lon="-1.67726">
        <ele>110.505425</ele>
        <time>2021-11-21T10:15:16.065Z</time>
      </trkpt>
      <trkpt lat="49.58851" lon="-1.67738">
        <ele>109.775985</ele>
        <time>2021-11-21T10:15:19.043Z</time>
      </trkpt>
      <trkpt lat="49.5886" lon="-1.67754">
        <ele>108.78749</ele>
        <time>2021-11-21T10:15:22.058Z</time>
      </trkpt>
      <trkpt lat="49.58866" lon="-1.67768">
        <ele>107.995032</ele>
        <time>2021-11-21T10:15:24.057Z</time>
      </trkpt>
      <trkpt lat="49.58873" lon="-1.67781">
        <ele>107.206726</ele>
        <time>2021-11-21T10:15:26.015Z</time>
      </trkpt>
      <trkpt lat="49.5888" lon="-1.67795">
        <ele>106.384913</ele>
        <time>2021-11-21T10:15:27.068Z</time>
      </trkpt>
      <trkpt lat="49.58884" lon="-1.6781">
        <ele>105.636883</ele>
        <time>2021-11-21T10:15:29.634Z</time>
      </trkpt>
      <trkpt lat="49.58891" lon="-1.67823">
        <ele>104.860353</ele>
        <time>2021-11-21T10:15:31.577Z</time>
      </trkpt>
      <trkpt lat="49.58895" lon="-1.67836">
        <ele>104.182696</ele>
        <time>2021-11-21T10:15:33.815Z</time>
      </trkpt>
      <trkpt lat="49.58899" lon="-1.67856">
        <ele>103.466922</ele>
        <time>2021-11-21T10:15:36.739Z</time>
      </trkpt>
      <trkpt lat="49.58905" lon="-1.6787">
        <ele>102.893967</ele>
        <time>2021-11-21T10:15:38.719Z</time>
      </trkpt>
      <trkpt lat="49.5891" lon="-1.67885">
        <ele>102.311646</ele>
        <time>2021-11-21T10:15:41.062Z</time>
      </trkpt>
      <trkpt lat="49.5892" lon="-1.6791">
        <ele>101.318804</ele>
        <time>2021-11-21T10:15:43.055Z</time>
      </trkpt>
      <trkpt lat="49.58929" lon="-1.67924">
        <ele>100.650958</ele>
        <time>2021-11-21T10:15:45.886Z</time>
      </trkpt>
      <trkpt lat="49.58935" lon="-1.67937">
        <ele>100.111634</ele>
        <time>2021-11-21T10:15:48.641Z</time>
      </trkpt>
      <trkpt lat="49.5894" lon="-1.6795">
        <ele>99.58363</ele>
        <time>2021-11-21T10:15:51.262Z</time>
      </trkpt>
      <trkpt lat="49.58946" lon="-1.67968">
        <ele>98.892894</ele>
        <time>2021-11-21T10:15:53.068Z</time>
      </trkpt>
      <trkpt lat="49.58955" lon="-1.67991">
        <ele>97.971808</ele>
        <time>2021-11-21T10:15:56.042Z</time>
      </trkpt>
      <trkpt lat="49.5896" lon="-1.68003">
        <ele>97.472468</ele>
        <time>2021-11-21T10:15:58.065Z</time>
      </trkpt>
      <trkpt lat="49.58966" lon="-1.68017">
        <ele>96.901664</ele>
        <time>2021-11-21T10:16:00.055Z</time>
      </trkpt>
      <trkpt lat="49.58973" lon="-1.68032">
        <ele>96.286401</ele>
        <time>2021-11-21T10:16:02.044Z</time>
      </trkpt>
      <trkpt lat="49.5898" lon="-1.68046">
        <ele>95.669567</ele>
        <time>2021-11-21T10:16:04.058Z</time>
      </trkpt>
      <trkpt lat="49.5899" lon="-1.6806">
        <ele>94.973562</ele>
        <time>2021-11-21T10:16:07.897Z</time>
      </trkpt>
      <trkpt lat="49.58999" lon="-1.68068">
        <ele>94.791641</ele>
        <time>2021-11-21T10:16:11.058Z</time>
      </trkpt>
      <trkpt lat="49.58984" lon="-1.68139">
        <ele>95.553458</ele>
        <time>2021-11-21T10:17:01.068Z</time>
      </trkpt>
      <trkpt lat="49.58977" lon="-1.68156">
        <ele>95.757117</ele>
        <time>2021-11-21T10:17:03.045Z</time>
      </trkpt>
      <trkpt lat="49.58969" lon="-1.68174">
        <ele>95.981163</ele>
        <time>2021-11-21T10:17:05.057Z</time>
      </trkpt>
      <trkpt lat="49.5896" lon="-1.68192">
        <ele>96.211293</ele>
        <time>2021-11-21T10:17:07.048Z</time>
      </trkpt>
      <trkpt lat="49.58951" lon="-1.68211">
        <ele>96.449136</ele>
        <time>2021-11-21T10:17:09.062Z</time>
      </trkpt>
      <trkpt lat="49.58943" lon="-1.68232">
        <ele>96.693657</ele>
        <time>2021-11-21T10:17:11.054Z</time>
      </trkpt>
      <trkpt lat="49.58934" lon="-1.68252">
        <ele>96.947579</ele>
        <time>2021-11-21T10:17:13.043Z</time>
      </trkpt>
      <trkpt lat="49.58924" lon="-1.68273">
        <ele>97.216989</ele>
        <time>2021-11-21T10:17:15.058Z</time>
      </trkpt>
      <trkpt lat="49.58913" lon="-1.68295">
        <ele>97.494283</ele>
        <time>2021-11-21T10:17:17.049Z</time>
      </trkpt>
      <trkpt lat="49.58907" lon="-1.68306">
        <ele>97.326085</ele>
        <time>2021-11-21T10:17:18.050Z</time>
      </trkpt>
      <trkpt lat="49.58902" lon="-1.68317">
        <ele>97.048638</ele>
        <time>2021-11-21T10:17:19.048Z</time>
      </trkpt>
      <trkpt lat="49.58897" lon="-1.68329">
        <ele>96.764574</ele>
        <time>2021-11-21T10:17:20.050Z</time>
      </trkpt>
      <trkpt lat="49.58891" lon="-1.6834">
        <ele>96.480857</ele>
        <time>2021-11-21T10:17:21.065Z</time>
      </trkpt>
      <trkpt lat="49.58886" lon="-1.68352">
        <ele>96.20362</ele>
        <time>2021-11-21T10:17:22.060Z</time>
      </trkpt>
      <trkpt lat="49.58881" lon="-1.68363">
        <ele>95.924918</ele>
        <time>2021-11-21T10:17:23.051Z</time>
      </trkpt>
      <trkpt lat="49.58875" lon="-1.68374">
        <ele>95.646068</ele>
        <time>2021-11-21T10:17:24.040Z</time>
      </trkpt>
      <trkpt lat="49.5887" lon="-1.68386">
        <ele>95.360583</ele>
        <time>2021-11-21T10:17:25.059Z</time>
      </trkpt>
      <trkpt lat="49.58865" lon="-1.68398">
        <ele>95.081733</ele>
        <time>2021-11-21T10:17:26.060Z</time>
      </trkpt>
      <trkpt lat="49.58859" lon="-1.68409">
        <ele>94.801264</ele>
        <time>2021-11-21T10:17:27.068Z</time>
      </trkpt>
      <trkpt lat="49.58854" lon="-1.6842">
        <ele>94.525813</ele>
        <time>2021-11-21T10:17:28.048Z</time>
      </trkpt>
      <trkpt lat="49.58849" lon="-1.68432">
        <ele>94.240552</ele>
        <time>2021-11-21T10:17:29.055Z</time>
      </trkpt>
      <trkpt lat="49.58844" lon="-1.68444">
        <ele>93.958578</ele>
        <time>2021-11-21T10:17:30.066Z</time>
      </trkpt>
      <trkpt lat="49.58839" lon="-1.68455">
        <ele>93.679874</ele>
        <time>2021-11-21T10:17:31.051Z</time>
      </trkpt>
      <trkpt lat="49.58834" lon="-1.68467">
        <ele>93.404551</ele>
        <time>2021-11-21T10:17:32.038Z</time>
      </trkpt>
      <trkpt lat="49.58828" lon="-1.68479">
        <ele>93.122577</ele>
        <time>2021-11-21T10:17:33.057Z</time>
      </trkpt>
      <trkpt lat="49.58818" lon="-1.68501">
        <ele>92.572024</ele>
        <time>2021-11-21T10:17:35.043Z</time>
      </trkpt>
      <trkpt lat="49.58813" lon="-1.68513">
        <ele>92.294784</ele>
        <time>2021-11-21T10:17:36.052Z</time>
      </trkpt>
      <trkpt lat="49.58808" lon="-1.68524">
        <ele>92.017707</ele>
        <time>2021-11-21T10:17:37.049Z</time>
      </trkpt>
      <trkpt lat="49.58803" lon="-1.68536">
        <ele>91.591445</ele>
        <time>2021-11-21T10:17:38.043Z</time>
      </trkpt>
      <trkpt lat="49.58797" lon="-1.68548">
        <ele>91.161525</ele>
        <time>2021-11-21T10:17:39.042Z</time>
      </trkpt>
      <trkpt lat="49.58792" lon="-1.68559">
        <ele>90.729134</ele>
        <time>2021-11-21T10:17:40.069Z</time>
      </trkpt>
      <trkpt lat="49.58787" lon="-1.68571">
        <ele>90.301858</ele>
        <time>2021-11-21T10:17:41.036Z</time>
      </trkpt>
      <trkpt lat="49.58781" lon="-1.68583">
        <ele>89.871938</ele>
        <time>2021-11-21T10:17:42.037Z</time>
      </trkpt>
      <trkpt lat="49.58776" lon="-1.68595">
        <ele>89.439545</ele>
        <time>2021-11-21T10:17:43.042Z</time>
      </trkpt>
      <trkpt lat="49.58771" lon="-1.68606">
        <ele>89.014549</ele>
        <time>2021-11-21T10:17:44.042Z</time>
      </trkpt>
      <trkpt lat="49.58766" lon="-1.68618">
        <ele>88.589753</ele>
        <time>2021-11-21T10:17:45.054Z</time>
      </trkpt>
      <trkpt lat="49.58756" lon="-1.6864">
        <ele>87.790853</ele>
        <time>2021-11-21T10:17:47.060Z</time>
      </trkpt>
      <trkpt lat="49.58747" lon="-1.6866">
        <ele>87.047273</ele>
        <time>2021-11-21T10:17:49.068Z</time>
      </trkpt>
      <trkpt lat="49.58738" lon="-1.68678">
        <ele>86.359134</ele>
        <time>2021-11-21T10:17:51.066Z</time>
      </trkpt>
      <trkpt lat="49.58731" lon="-1.68696">
        <ele>85.722171</ele>
        <time>2021-11-21T10:17:53.055Z</time>
      </trkpt>
      <trkpt lat="49.58723" lon="-1.68712">
        <ele>85.135311</ele>
        <time>2021-11-21T10:17:55.061Z</time>
      </trkpt>
      <trkpt lat="49.58716" lon="-1.68727">
        <ele>84.583769</ele>
        <time>2021-11-21T10:17:57.052Z</time>
      </trkpt>
      <trkpt lat="49.5871" lon="-1.68742">
        <ele>84.040365</ele>
        <time>2021-11-21T10:17:59.066Z</time>
      </trkpt>
      <trkpt lat="49.58703" lon="-1.68757">
        <ele>83.792078</ele>
        <time>2021-11-21T10:18:01.067Z</time>
      </trkpt>
      <trkpt lat="49.58697" lon="-1.68772">
        <ele>84.254661</ele>
        <time>2021-11-21T10:18:03.059Z</time>
      </trkpt>
      <trkpt lat="49.5869" lon="-1.68787">
        <ele>84.71712</ele>
        <time>2021-11-21T10:18:05.059Z</time>
      </trkpt>
      <trkpt lat="49.58683" lon="-1.68802">
        <ele>85.179502</ele>
        <time>2021-11-21T10:18:07.062Z</time>
      </trkpt>
      <trkpt lat="49.58677" lon="-1.68817">
        <ele>85.631464</ele>
        <time>2021-11-21T10:18:09.059Z</time>
      </trkpt>
      <trkpt lat="49.5867" lon="-1.68832">
        <ele>86.085819</ele>
        <time>2021-11-21T10:18:11.069Z</time>
      </trkpt>
      <trkpt lat="49.58663" lon="-1.68847">
        <ele>86.550473</ele>
        <time>2021-11-21T10:18:13.050Z</time>
      </trkpt>
      <trkpt lat="49.58656" lon="-1.68862">
        <ele>87.010856</ele>
        <time>2021-11-21T10:18:15.063Z</time>
      </trkpt>
      <trkpt lat="49.5865" lon="-1.68878">
        <ele>87.477474</ele>
        <time>2021-11-21T10:18:17.064Z</time>
      </trkpt>
      <trkpt lat="49.58643" lon="-1.68893">
        <ele>87.94102</ele>
        <time>2021-11-21T10:18:19.069Z</time>
      </trkpt>
      <trkpt lat="49.58635" lon="-1.68908">
        <ele>88.419626</ele>
        <time>2021-11-21T10:18:21.065Z</time>
      </trkpt>
      <trkpt lat="49.58629" lon="-1.68923">
        <ele>88.88209</ele>
        <time>2021-11-21T10:18:23.063Z</time>
      </trkpt>
      <trkpt lat="49.58622" lon="-1.68938">
        <ele>89.346636</ele>
        <time>2021-11-21T10:18:25.053Z</time>
      </trkpt>
      <trkpt lat="49.58615" lon="-1.68953">
        <ele>89.813508</ele>
        <time>2021-11-21T10:18:27.055Z</time>
      </trkpt>
      <trkpt lat="49.58608" lon="-1.68969">
        <ele>90.286429</ele>
        <time>2021-11-21T10:18:29.064Z</time>
      </trkpt>
      <trkpt lat="49.58601" lon="-1.68985">
        <ele>90.718482</ele>
        <time>2021-11-21T10:18:31.070Z</time>
      </trkpt>
      <trkpt lat="49.58593" lon="-1.68999">
        <ele>91.005723</ele>
        <time>2021-11-21T10:18:33.062Z</time>
      </trkpt>
      <trkpt lat="49.58587" lon="-1.69016">
        <ele>91.299772</ele>
        <time>2021-11-21T10:18:35.067Z</time>
      </trkpt>
      <trkpt lat="49.58583" lon="-1.69035">
        <ele>91.601816</ele>
        <time>2021-11-21T10:18:37.050Z</time>
      </trkpt>
      <trkpt lat="49.58579" lon="-1.69054">
        <ele>91.900272</ele>
        <time>2021-11-21T10:18:39.062Z</time>
      </trkpt>
      <trkpt lat="49.58568" lon="-1.69062">
        <ele>92.183204</ele>
        <time>2021-11-21T10:18:41.071Z</time>
      </trkpt>
      <trkpt lat="49.58559" lon="-1.69049">
        <ele>92.473064</ele>
        <time>2021-11-21T10:18:43.052Z</time>
      </trkpt>
      <trkpt lat="49.58555" lon="-1.69036">
        <ele>92.695129</ele>
        <time>2021-11-21T10:18:45.061Z</time>
      </trkpt>
      <trkpt lat="49.58549" lon="-1.69017">
        <ele>93.019425</ele>
        <time>2021-11-21T10:18:47.060Z</time>
      </trkpt>
      <trkpt lat="49.58544" lon="-1.69">
        <ele>93.298112</ele>
        <time>2021-11-21T10:18:49.056Z</time>
      </trkpt>
      <trkpt lat="49.58527" lon="-1.68991">
        <ele>93.715245</ele>
        <time>2021-11-21T10:18:51.072Z</time>
      </trkpt>
      <trkpt lat="49.58514" lon="-1.69003">
        <ele>94.071791</ele>
        <time>2021-11-21T10:18:53.074Z</time>
      </trkpt>
      <trkpt lat="49.58505" lon="-1.69014">
        <ele>94.337456</ele>
        <time>2021-11-21T10:18:57.053Z</time>
      </trkpt>
      <trkpt lat="49.58497" lon="-1.69029">
        <ele>94.624059</ele>
        <time>2021-11-21T10:19:00.051Z</time>
      </trkpt>
      <trkpt lat="49.58493" lon="-1.69043">
        <ele>94.852795</ele>
        <time>2021-11-21T10:19:03.072Z</time>
      </trkpt>
      <trkpt lat="49.5849" lon="-1.69063">
        <ele>95.163947</ele>
        <time>2021-11-21T10:19:06.075Z</time>
      </trkpt>
      <trkpt lat="49.58485" lon="-1.69078">
        <ele>95.403193</ele>
        <time>2021-11-21T10:19:08.047Z</time>
      </trkpt>
      <trkpt lat="49.5848" lon="-1.6909">
        <ele>95.62439</ele>
        <time>2021-11-21T10:19:10.068Z</time>
      </trkpt>
      <trkpt lat="49.58474" lon="-1.69106">
        <ele>95.895656</ele>
        <time>2021-11-21T10:19:13.054Z</time>
      </trkpt>
      <trkpt lat="49.58467" lon="-1.69118">
        <ele>96.125814</ele>
        <time>2021-11-21T10:19:15.577Z</time>
      </trkpt>
      <trkpt lat="49.58461" lon="-1.69131">
        <ele>96.363944</ele>
        <time>2021-11-21T10:19:18.591Z</time>
      </trkpt>
      <trkpt lat="49.58452" lon="-1.69142">
        <ele>96.613933</ele>
        <time>2021-11-21T10:19:22.061Z</time>
      </trkpt>
      <trkpt lat="49.58444" lon="-1.69148">
        <ele>96.833374</ele>
        <time>2021-11-21T10:19:24.854Z</time>
      </trkpt>
      <trkpt lat="49.58432" lon="-1.69154">
        <ele>97.102803</ele>
        <time>2021-11-21T10:19:27.052Z</time>
      </trkpt>
      <trkpt lat="49.58422" lon="-1.69159">
        <ele>97.344981</ele>
        <time>2021-11-21T10:19:29.076Z</time>
      </trkpt>
      <trkpt lat="49.58412" lon="-1.69162">
        <ele>97.590753</ele>
        <time>2021-11-21T10:19:31.067Z</time>
      </trkpt>
      <trkpt lat="49.58401" lon="-1.69165">
        <ele>97.834173</ele>
        <time>2021-11-21T10:19:33.045Z</time>
      </trkpt>
      <trkpt lat="49.5839" lon="-1.69168">
        <ele>98.08526</ele>
        <time>2021-11-21T10:19:35.046Z</time>
      </trkpt>
      <trkpt lat="49.58379" lon="-1.6917">
        <ele>98.332364</ele>
        <time>2021-11-21T10:19:37.067Z</time>
      </trkpt>
      <trkpt lat="49.58369" lon="-1.69171">
        <ele>98.569107</ele>
        <time>2021-11-21T10:19:39.049Z</time>
      </trkpt>
      <trkpt lat="49.58358" lon="-1.69172">
        <ele>98.812219</ele>
        <time>2021-11-21T10:19:41.061Z</time>
      </trkpt>
      <trkpt lat="49.58347" lon="-1.69172">
        <ele>99.045924</ele>
        <time>2021-11-21T10:19:43.066Z</time>
      </trkpt>
      <trkpt lat="49.58336" lon="-1.69173">
        <ele>99.264195</ele>
        <time>2021-11-21T10:19:45.042Z</time>
      </trkpt>
      <trkpt lat="49.58325" lon="-1.69174">
        <ele>99.484529</ele>
        <time>2021-11-21T10:19:47.053Z</time>
      </trkpt>
      <trkpt lat="49.58314" lon="-1.69175">
        <ele>99.70065</ele>
        <time>2021-11-21T10:19:49.054Z</time>
      </trkpt>
      <trkpt lat="49.58304" lon="-1.69175">
        <ele>99.918689</ele>
        <time>2021-11-21T10:19:51.047Z</time>
      </trkpt>
      <trkpt lat="49.58293" lon="-1.69175">
        <ele>100.138775</ele>
        <time>2021-11-21T10:19:53.051Z</time>
      </trkpt>
      <trkpt lat="49.58281" lon="-1.69175">
        <ele>100.364814</ele>
        <time>2021-11-21T10:19:55.060Z</time>
      </trkpt>
      <trkpt lat="49.5827" lon="-1.69176">
        <ele>100.596931</ele>
        <time>2021-11-21T10:19:57.057Z</time>
      </trkpt>
      <trkpt lat="49.58258" lon="-1.69177">
        <ele>100.839457</ele>
        <time>2021-11-21T10:19:59.057Z</time>
      </trkpt>
      <trkpt lat="49.58245" lon="-1.69178">
        <ele>101.081831</ele>
        <time>2021-11-21T10:20:01.068Z</time>
      </trkpt>
      <trkpt lat="49.58234" lon="-1.69179">
        <ele>101.319984</ele>
        <time>2021-11-21T10:20:03.063Z</time>
      </trkpt>
      <trkpt lat="49.58223" lon="-1.69179">
        <ele>101.528205</ele>
        <time>2021-11-21T10:20:05.038Z</time>
      </trkpt>
      <trkpt lat="49.58214" lon="-1.6918">
        <ele>101.710267</ele>
        <time>2021-11-21T10:20:07.065Z</time>
      </trkpt>
      <trkpt lat="49.58203" lon="-1.6918">
        <ele>101.936351</ele>
        <time>2021-11-21T10:20:10.059Z</time>
      </trkpt>
      <trkpt lat="49.58192" lon="-1.69182">
        <ele>102.151789</ele>
        <time>2021-11-21T10:20:13.055Z</time>
      </trkpt>
      <trkpt lat="49.58182" lon="-1.69182">
        <ele>102.347815</ele>
        <time>2021-11-21T10:20:15.063Z</time>
      </trkpt>
      <trkpt lat="49.58173" lon="-1.69182">
        <ele>102.467259</ele>
        <time>2021-11-21T10:20:17.872Z</time>
      </trkpt>
      <trkpt lat="49.58162" lon="-1.69184">
        <ele>101.834401</ele>
        <time>2021-11-21T10:20:20.251Z</time>
      </trkpt>
      <trkpt lat="49.58151" lon="-1.69186">
        <ele>101.166027</ele>
        <time>2021-11-21T10:20:22.937Z</time>
      </trkpt>
      <trkpt lat="49.58142" lon="-1.69186">
        <ele>100.5864</ele>
        <time>2021-11-21T10:20:25.308Z</time>
      </trkpt>
      <trkpt lat="49.58132" lon="-1.69184">
        <ele>100.004188</ele>
        <time>2021-11-21T10:20:27.757Z</time>
      </trkpt>
      <trkpt lat="49.58122" lon="-1.69182">
        <ele>99.357179</ele>
        <time>2021-11-21T10:20:30.432Z</time>
      </trkpt>
      <trkpt lat="49.58113" lon="-1.69177">
        <ele>98.772952</ele>
        <time>2021-11-21T10:20:32.791Z</time>
      </trkpt>
      <trkpt lat="49.58101" lon="-1.6917">
        <ele>97.971713</ele>
        <time>2021-11-21T10:20:36.056Z</time>
      </trkpt>
      <trkpt lat="49.58091" lon="-1.69162">
        <ele>97.298769</ele>
        <time>2021-11-21T10:20:38.601Z</time>
      </trkpt>
      <trkpt lat="49.58081" lon="-1.69157">
        <ele>96.65983</ele>
        <time>2021-11-21T10:20:41.326Z</time>
      </trkpt>
      <trkpt lat="49.58072" lon="-1.69164">
        <ele>96.073543</ele>
        <time>2021-11-21T10:20:44.858Z</time>
      </trkpt>
      <trkpt lat="49.58062" lon="-1.69178">
        <ele>95.249608</ele>
        <time>2021-11-21T10:20:48.847Z</time>
      </trkpt>
      <trkpt lat="49.58056" lon="-1.69188">
        <ele>94.692371</ele>
        <time>2021-11-21T10:20:51.039Z</time>
      </trkpt>
      <trkpt lat="49.58049" lon="-1.69199">
        <ele>94.068497</ele>
        <time>2021-11-21T10:20:53.437Z</time>
      </trkpt>
      <trkpt lat="49.58042" lon="-1.69212">
        <ele>93.408904</ele>
        <time>2021-11-21T10:20:55.980Z</time>
      </trkpt>
      <trkpt lat="49.58035" lon="-1.69224">
        <ele>92.757486</ele>
        <time>2021-11-21T10:20:58.522Z</time>
      </trkpt>
      <trkpt lat="49.58029" lon="-1.69235">
        <ele>92.19428</ele>
        <time>2021-11-21T10:21:01.057Z</time>
      </trkpt>
      <trkpt lat="49.58023" lon="-1.69246">
        <ele>91.607765</ele>
        <time>2021-11-21T10:21:03.847Z</time>
      </trkpt>
      <trkpt lat="49.58016" lon="-1.69257">
        <ele>91.456558</ele>
        <time>2021-11-21T10:21:06.522Z</time>
      </trkpt>
      <trkpt lat="49.58008" lon="-1.69268">
        <ele>91.326343</ele>
        <time>2021-11-21T10:21:09.640Z</time>
      </trkpt>
      <trkpt lat="49.58001" lon="-1.69285">
        <ele>91.17914</ele>
        <time>2021-11-21T10:21:12.724Z</time>
      </trkpt>
      <trkpt lat="49.57996" lon="-1.69298">
        <ele>91.060296</ele>
        <time>2021-11-21T10:21:15.020Z</time>
      </trkpt>
      <trkpt lat="49.57957" lon="-1.69385">
        <ele>90.26985</ele>
        <time>2021-11-21T10:21:27.818Z</time>
      </trkpt>
      <trkpt lat="49.57953" lon="-1.69405">
        <ele>90.10644</ele>
        <time>2021-11-21T10:21:31.040Z</time>
      </trkpt>
      <trkpt lat="49.5795" lon="-1.69421">
        <ele>89.984614</ele>
        <time>2021-11-21T10:21:33.298Z</time>
      </trkpt>
      <trkpt lat="49.57947" lon="-1.69434">
        <ele>89.879931</ele>
        <time>2021-11-21T10:21:36.073Z</time>
      </trkpt>
      <trkpt lat="49.57942" lon="-1.69447">
        <ele>89.764833</ele>
        <time>2021-11-21T10:21:39.041Z</time>
      </trkpt>
      <trkpt lat="49.57937" lon="-1.69463">
        <ele>89.632635</ele>
        <time>2021-11-21T10:21:42.980Z</time>
      </trkpt>
      <trkpt lat="49.57932" lon="-1.69476">
        <ele>89.52145</ele>
        <time>2021-11-21T10:21:46.877Z</time>
      </trkpt>
      <trkpt lat="49.57927" lon="-1.69488">
        <ele>89.660365</ele>
        <time>2021-11-21T10:21:51.069Z</time>
      </trkpt>
      <trkpt lat="49.5792" lon="-1.69502">
        <ele>90.177795</ele>
        <time>2021-11-21T10:21:57.019Z</time>
      </trkpt>
      <trkpt lat="49.57913" lon="-1.69515">
        <ele>90.66199</ele>
        <time>2021-11-21T10:22:03.015Z</time>
      </trkpt>
      <trkpt lat="49.57907" lon="-1.69528">
        <ele>91.130235</ele>
        <time>2021-11-21T10:22:08.056Z</time>
      </trkpt>
      <trkpt lat="49.57902" lon="-1.69539">
        <ele>91.537384</ele>
        <time>2021-11-21T10:22:10.420Z</time>
      </trkpt>
      <trkpt lat="49.57896" lon="-1.69554">
        <ele>92.040665</ele>
        <time>2021-11-21T10:22:12.718Z</time>
      </trkpt>
      <trkpt lat="49.57891" lon="-1.69569">
        <ele>92.530449</ele>
        <time>2021-11-21T10:22:14.818Z</time>
      </trkpt>
      <trkpt lat="49.57884" lon="-1.69589">
        <ele>93.20591</ele>
        <time>2021-11-21T10:22:17.041Z</time>
      </trkpt>
      <trkpt lat="49.57879" lon="-1.69602">
        <ele>93.647863</ele>
        <time>2021-11-21T10:22:19.049Z</time>
      </trkpt>
      <trkpt lat="49.57871" lon="-1.69619">
        <ele>94.25407</ele>
        <time>2021-11-21T10:22:22.048Z</time>
      </trkpt>
      <trkpt lat="49.57863" lon="-1.69635">
        <ele>94.85381</ele>
        <time>2021-11-21T10:22:24.043Z</time>
      </trkpt>
      <trkpt lat="49.57856" lon="-1.69649">
        <ele>95.35107</ele>
        <time>2021-11-21T10:22:26.067Z</time>
      </trkpt>
      <trkpt lat="49.57849" lon="-1.69664">
        <ele>95.888182</ele>
        <time>2021-11-21T10:22:28.056Z</time>
      </trkpt>
      <trkpt lat="49.57844" lon="-1.69677">
        <ele>96.35652</ele>
        <time>2021-11-21T10:22:30.630Z</time>
      </trkpt>
      <trkpt lat="49.57837" lon="-1.69693">
        <ele>96.903549</ele>
        <time>2021-11-21T10:22:32.059Z</time>
      </trkpt>
      <trkpt lat="49.57829" lon="-1.69711">
        <ele>97.533809</ele>
        <time>2021-11-21T10:22:34.050Z</time>
      </trkpt>
      <trkpt lat="49.57822" lon="-1.6973">
        <ele>97.310131</ele>
        <time>2021-11-21T10:22:36.043Z</time>
      </trkpt>
      <trkpt lat="49.57815" lon="-1.69749">
        <ele>97.031483</ele>
        <time>2021-11-21T10:22:38.051Z</time>
      </trkpt>
      <trkpt lat="49.57809" lon="-1.69766">
        <ele>96.78339</ele>
        <time>2021-11-21T10:22:40.049Z</time>
      </trkpt>
      <trkpt lat="49.57802" lon="-1.69784">
        <ele>96.523141</ele>
        <time>2021-11-21T10:22:42.064Z</time>
      </trkpt>
      <trkpt lat="49.57794" lon="-1.69801">
        <ele>96.258694</ele>
        <time>2021-11-21T10:22:44.064Z</time>
      </trkpt>
      <trkpt lat="49.57787" lon="-1.69819">
        <ele>95.992107</ele>
        <time>2021-11-21T10:22:46.056Z</time>
      </trkpt>
      <trkpt lat="49.5778" lon="-1.69837">
        <ele>95.727568</ele>
        <time>2021-11-21T10:22:48.057Z</time>
      </trkpt>
      <trkpt lat="49.57773" lon="-1.69854">
        <ele>95.476858</ele>
        <time>2021-11-21T10:22:50.058Z</time>
      </trkpt>
      <trkpt lat="49.57766" lon="-1.6987">
        <ele>95.230351</ele>
        <time>2021-11-21T10:22:52.049Z</time>
      </trkpt>
      <trkpt lat="49.57761" lon="-1.69885">
        <ele>95.016669</ele>
        <time>2021-11-21T10:22:54.052Z</time>
      </trkpt>
      <trkpt lat="49.57754" lon="-1.699">
        <ele>94.791347</ele>
        <time>2021-11-21T10:22:56.045Z</time>
      </trkpt>
      <trkpt lat="49.57747" lon="-1.69915">
        <ele>94.551993</ele>
        <time>2021-11-21T10:22:58.057Z</time>
      </trkpt>
      <trkpt lat="49.5774" lon="-1.69931">
        <ele>94.311786</ele>
        <time>2021-11-21T10:23:00.071Z</time>
      </trkpt>
      <trkpt lat="49.57733" lon="-1.69946">
        <ele>94.085259</ele>
        <time>2021-11-21T10:23:02.051Z</time>
      </trkpt>
      <trkpt lat="49.57726" lon="-1.69964">
        <ele>93.97599</ele>
        <time>2021-11-21T10:23:04.054Z</time>
      </trkpt>
      <trkpt lat="49.5772" lon="-1.69983">
        <ele>93.87864</ele>
        <time>2021-11-21T10:23:06.058Z</time>
      </trkpt>
      <trkpt lat="49.57713" lon="-1.69999">
        <ele>93.788016</ele>
        <time>2021-11-21T10:23:08.062Z</time>
      </trkpt>
      <trkpt lat="49.57707" lon="-1.70016">
        <ele>93.698186</ele>
        <time>2021-11-21T10:23:10.047Z</time>
      </trkpt>
      <trkpt lat="49.57703" lon="-1.70034">
        <ele>93.609832</ele>
        <time>2021-11-21T10:23:12.053Z</time>
      </trkpt>
      <trkpt lat="49.57701" lon="-1.70052">
        <ele>93.523652</ele>
        <time>2021-11-21T10:23:14.061Z</time>
      </trkpt>
      <trkpt lat="49.57698" lon="-1.7007">
        <ele>93.438832</ele>
        <time>2021-11-21T10:23:16.051Z</time>
      </trkpt>
      <trkpt lat="49.57694" lon="-1.70088">
        <ele>93.350919</ele>
        <time>2021-11-21T10:23:18.050Z</time>
      </trkpt>
      <trkpt lat="49.5769" lon="-1.70107">
        <ele>93.259569</ele>
        <time>2021-11-21T10:23:20.054Z</time>
      </trkpt>
      <trkpt lat="49.57686" lon="-1.70122">
        <ele>93.184276</ele>
        <time>2021-11-21T10:23:22.068Z</time>
      </trkpt>
      <trkpt lat="49.57681" lon="-1.70135">
        <ele>93.114922</ele>
        <time>2021-11-21T10:23:25.040Z</time>
      </trkpt>
      <trkpt lat="49.57686" lon="-1.70155">
        <ele>93.018119</ele>
        <time>2021-11-21T10:23:29.047Z</time>
      </trkpt>
      <trkpt lat="49.57697" lon="-1.70164">
        <ele>92.92472</ele>
        <time>2021-11-21T10:23:32.824Z</time>
      </trkpt>
      <trkpt lat="49.57706" lon="-1.70173">
        <ele>92.852277</ele>
        <time>2021-11-21T10:23:35.054Z</time>
      </trkpt>
      <trkpt lat="49.57713" lon="-1.70181">
        <ele>92.78713</ele>
        <time>2021-11-21T10:23:41.066Z</time>
      </trkpt>
      <trkpt lat="49.57711" lon="-1.70196">
        <ele>92.839229</ele>
        <time>2021-11-21T10:23:45.754Z</time>
      </trkpt>
      <trkpt lat="49.57704" lon="-1.70213">
        <ele>92.904977</ele>
        <time>2021-11-21T10:23:49.053Z</time>
      </trkpt>
      <trkpt lat="49.577" lon="-1.70228">
        <ele>92.96177</ele>
        <time>2021-11-21T10:23:51.051Z</time>
      </trkpt>
      <trkpt lat="49.57695" lon="-1.70241">
        <ele>93.014719</ele>
        <time>2021-11-21T10:23:53.058Z</time>
      </trkpt>
      <trkpt lat="49.57691" lon="-1.70254">
        <ele>93.064195</ele>
        <time>2021-11-21T10:23:55.057Z</time>
      </trkpt>
      <trkpt lat="49.57684" lon="-1.70273">
        <ele>93.138078</ele>
        <time>2021-11-21T10:23:58.050Z</time>
      </trkpt>
      <trkpt lat="49.57678" lon="-1.70287">
        <ele>93.193964</ele>
        <time>2021-11-21T10:24:00.055Z</time>
      </trkpt>
      <trkpt lat="49.57672" lon="-1.703">
        <ele>93.250156</ele>
        <time>2021-11-21T10:24:02.055Z</time>
      </trkpt>
      <trkpt lat="49.57666" lon="-1.70314">
        <ele>93.30718</ele>
        <time>2021-11-21T10:24:04.054Z</time>
      </trkpt>
      <trkpt lat="49.57661" lon="-1.70328">
        <ele>93.363087</ele>
        <time>2021-11-21T10:24:06.055Z</time>
      </trkpt>
      <trkpt lat="49.57656" lon="-1.70342">
        <ele>93.4187</ele>
        <time>2021-11-21T10:24:08.046Z</time>
      </trkpt>
      <trkpt lat="49.5765" lon="-1.70356">
        <ele>93.474339</ele>
        <time>2021-11-21T10:24:10.042Z</time>
      </trkpt>
      <trkpt lat="49.57644" lon="-1.7037">
        <ele>93.533663</ele>
        <time>2021-11-21T10:24:12.053Z</time>
      </trkpt>
      <trkpt lat="49.57638" lon="-1.70385">
        <ele>93.593568</ele>
        <time>2021-11-21T10:24:14.046Z</time>
      </trkpt>
      <trkpt lat="49.57631" lon="-1.70399">
        <ele>93.653785</ele>
        <time>2021-11-21T10:24:16.057Z</time>
      </trkpt>
      <trkpt lat="49.57625" lon="-1.70414">
        <ele>93.713121</ele>
        <time>2021-11-21T10:24:18.059Z</time>
      </trkpt>
      <trkpt lat="49.57619" lon="-1.70428">
        <ele>93.886931</ele>
        <time>2021-11-21T10:24:20.065Z</time>
      </trkpt>
      <trkpt lat="49.57613" lon="-1.70443">
        <ele>94.152097</ele>
        <time>2021-11-21T10:24:22.054Z</time>
      </trkpt>
      <trkpt lat="49.57607" lon="-1.70457">
        <ele>94.40837</ele>
        <time>2021-11-21T10:24:24.059Z</time>
      </trkpt>
      <trkpt lat="49.57603" lon="-1.70469">
        <ele>94.622737</ele>
        <time>2021-11-21T10:24:26.079Z</time>
      </trkpt>
      <trkpt lat="49.57598" lon="-1.70482">
        <ele>94.858578</ele>
        <time>2021-11-21T10:24:29.050Z</time>
      </trkpt>
      <trkpt lat="49.57592" lon="-1.70493">
        <ele>95.077573</ele>
        <time>2021-11-21T10:24:34.266Z</time>
      </trkpt>
      <trkpt lat="49.57585" lon="-1.70509">
        <ele>95.371319</ele>
        <time>2021-11-21T10:24:37.825Z</time>
      </trkpt>
      <trkpt lat="49.57581" lon="-1.70523">
        <ele>95.60518</ele>
        <time>2021-11-21T10:24:40.060Z</time>
      </trkpt>
      <trkpt lat="49.57576" lon="-1.70536">
        <ele>95.8356</ele>
        <time>2021-11-21T10:24:42.608Z</time>
      </trkpt>
      <trkpt lat="49.57574" lon="-1.70556">
        <ele>96.138489</ele>
        <time>2021-11-21T10:24:45.661Z</time>
      </trkpt>
      <trkpt lat="49.57576" lon="-1.7057">
        <ele>96.363952</ele>
        <time>2021-11-21T10:24:48.052Z</time>
      </trkpt>
      <trkpt lat="49.5758" lon="-1.70583">
        <ele>96.590676</ele>
        <time>2021-11-21T10:24:50.409Z</time>
      </trkpt>
      <trkpt lat="49.57584" lon="-1.70602">
        <ele>96.889841</ele>
        <time>2021-11-21T10:24:53.422Z</time>
      </trkpt>
      <trkpt lat="49.57588" lon="-1.70616">
        <ele>97.133046</ele>
        <time>2021-11-21T10:24:56.000Z</time>
      </trkpt>
      <trkpt lat="49.57597" lon="-1.70626">
        <ele>97.396704</ele>
        <time>2021-11-21T10:24:58.785Z</time>
      </trkpt>
      <trkpt lat="49.57601" lon="-1.70639">
        <ele>97.612275</ele>
        <time>2021-11-21T10:25:02.617Z</time>
      </trkpt>
      <trkpt lat="49.57595" lon="-1.7065">
        <ele>97.844913</ele>
        <time>2021-11-21T10:25:04.964Z</time>
      </trkpt>
      <trkpt lat="49.57589" lon="-1.70669">
        <ele>98.030617</ele>
        <time>2021-11-21T10:25:08.053Z</time>
      </trkpt>
      <trkpt lat="49.57584" lon="-1.70683">
        <ele>98.08457</ele>
        <time>2021-11-21T10:25:11.062Z</time>
      </trkpt>
      <trkpt lat="49.5758" lon="-1.70696">
        <ele>98.130671</ele>
        <time>2021-11-21T10:25:13.596Z</time>
      </trkpt>
      <trkpt lat="49.57576" lon="-1.70711">
        <ele>98.185162</ele>
        <time>2021-11-21T10:25:16.541Z</time>
      </trkpt>
      <trkpt lat="49.57571" lon="-1.7073">
        <ele>98.252891</ele>
        <time>2021-11-21T10:25:20.037Z</time>
      </trkpt>
      <trkpt lat="49.57566" lon="-1.70746">
        <ele>98.311297</ele>
        <time>2021-11-21T10:25:22.540Z</time>
      </trkpt>
      <trkpt lat="49.57561" lon="-1.7076">
        <ele>98.361854</ele>
        <time>2021-11-21T10:25:25.044Z</time>
      </trkpt>
      <trkpt lat="49.57554" lon="-1.70772">
        <ele>98.419057</ele>
        <time>2021-11-21T10:25:28.005Z</time>
      </trkpt>
      <trkpt lat="49.57549" lon="-1.70787">
        <ele>98.471497</ele>
        <time>2021-11-21T10:25:31.056Z</time>
      </trkpt>
      <trkpt lat="49.57544" lon="-1.708">
        <ele>98.524599</ele>
        <time>2021-11-21T10:25:33.848Z</time>
      </trkpt>
      <trkpt lat="49.57537" lon="-1.70815">
        <ele>98.584633</ele>
        <time>2021-11-21T10:25:36.326Z</time>
      </trkpt>
      <trkpt lat="49.5753" lon="-1.7083">
        <ele>98.643823</ele>
        <time>2021-11-21T10:25:39.604Z</time>
      </trkpt>
      <trkpt lat="49.57525" lon="-1.70846">
        <ele>98.703511</ele>
        <time>2021-11-21T10:25:42.484Z</time>
      </trkpt>
      <trkpt lat="49.5752" lon="-1.70861">
        <ele>98.75709</ele>
        <time>2021-11-21T10:25:45.005Z</time>
      </trkpt>
      <trkpt lat="49.57515" lon="-1.70876">
        <ele>98.812861</ele>
        <time>2021-11-21T10:25:47.382Z</time>
      </trkpt>
      <trkpt lat="49.57509" lon="-1.70893">
        <ele>98.877399</ele>
        <time>2021-11-21T10:25:50.000Z</time>
      </trkpt>
      <trkpt lat="49.57504" lon="-1.70907">
        <ele>98.821997</ele>
        <time>2021-11-21T10:25:52.058Z</time>
      </trkpt>
      <trkpt lat="49.57499" lon="-1.70921">
        <ele>98.595027</ele>
        <time>2021-11-21T10:25:53.902Z</time>
      </trkpt>
      <trkpt lat="49.57495" lon="-1.70934">
        <ele>98.393981</ele>
        <time>2021-11-21T10:25:55.865Z</time>
      </trkpt>
      <trkpt lat="49.5749" lon="-1.70946">
        <ele>98.196387</ele>
        <time>2021-11-21T10:25:57.922Z</time>
      </trkpt>
      <trkpt lat="49.57485" lon="-1.70962">
        <ele>97.961787</ele>
        <time>2021-11-21T10:26:00.520Z</time>
      </trkpt>
      <trkpt lat="49.57481" lon="-1.70978">
        <ele>97.719047</ele>
        <time>2021-11-21T10:26:03.467Z</time>
      </trkpt>
      <trkpt lat="49.57476" lon="-1.7099">
        <ele>97.521735</ele>
        <time>2021-11-21T10:26:05.987Z</time>
      </trkpt>
      <trkpt lat="49.5747" lon="-1.71006">
        <ele>97.270038</ele>
        <time>2021-11-21T10:26:09.058Z</time>
      </trkpt>
      <trkpt lat="49.57465" lon="-1.71019">
        <ele>97.064147</ele>
        <time>2021-11-21T10:26:11.059Z</time>
      </trkpt>
      <trkpt lat="49.57461" lon="-1.71032">
        <ele>96.856816</ele>
        <time>2021-11-21T10:26:13.053Z</time>
      </trkpt>
      <trkpt lat="49.57457" lon="-1.71047">
        <ele>96.626255</ele>
        <time>2021-11-21T10:26:15.611Z</time>
      </trkpt>
      <trkpt lat="49.57451" lon="-1.71064">
        <ele>96.371525</ele>
        <time>2021-11-21T10:26:18.711Z</time>
      </trkpt>
      <trkpt lat="49.57446" lon="-1.71078">
        <ele>96.13577</ele>
        <time>2021-11-21T10:26:21.754Z</time>
      </trkpt>
      <trkpt lat="49.57448" lon="-1.71095">
        <ele>95.900714</ele>
        <time>2021-11-21T10:26:25.811Z</time>
      </trkpt>
      <trkpt lat="49.57451" lon="-1.71112">
        <ele>95.660043</ele>
        <time>2021-11-21T10:26:28.936Z</time>
      </trkpt>
      <trkpt lat="49.57455" lon="-1.71125">
        <ele>95.462687</ele>
        <time>2021-11-21T10:26:30.573Z</time>
      </trkpt>
      <trkpt lat="49.5746" lon="-1.7114">
        <ele>95.227058</ele>
        <time>2021-11-21T10:26:32.651Z</time>
      </trkpt>
      <trkpt lat="49.57465" lon="-1.71152">
        <ele>94.931264</ele>
        <time>2021-11-21T10:26:34.672Z</time>
      </trkpt>
      <trkpt lat="49.57465" lon="-1.71167">
        <ele>94.293186</ele>
        <time>2021-11-21T10:26:38.832Z</time>
      </trkpt>
      <trkpt lat="49.5746" lon="-1.7118">
        <ele>93.627521</ele>
        <time>2021-11-21T10:26:41.047Z</time>
      </trkpt>
      <trkpt lat="49.57454" lon="-1.71197">
        <ele>92.806014</ele>
        <time>2021-11-21T10:26:43.449Z</time>
      </trkpt>
      <trkpt lat="49.57449" lon="-1.7121">
        <ele>92.125107</ele>
        <time>2021-11-21T10:26:45.789Z</time>
      </trkpt>
      <trkpt lat="49.57443" lon="-1.71222">
        <ele>91.464144</ele>
        <time>2021-11-21T10:26:48.990Z</time>
      </trkpt>
      <trkpt lat="49.57435" lon="-1.71234">
        <ele>90.71443</ele>
        <time>2021-11-21T10:26:52.292Z</time>
      </trkpt>
      <trkpt lat="49.57426" lon="-1.71245">
        <ele>89.943296</ele>
        <time>2021-11-21T10:26:55.032Z</time>
      </trkpt>
      <trkpt lat="49.57418" lon="-1.71252">
        <ele>89.313228</ele>
        <time>2021-11-21T10:26:56.948Z</time>
      </trkpt>
      <trkpt lat="49.57404" lon="-1.7126">
        <ele>88.3296</ele>
        <time>2021-11-21T10:26:59.054Z</time>
      </trkpt>
      <trkpt lat="49.57384" lon="-1.71266">
        <ele>86.95037</ele>
        <time>2021-11-21T10:27:02.064Z</time>
      </trkpt>
      <trkpt lat="49.57372" lon="-1.7127">
        <ele>86.129644</ele>
        <time>2021-11-21T10:27:04.061Z</time>
      </trkpt>
      <trkpt lat="49.5736" lon="-1.71275">
        <ele>85.353969</ele>
        <time>2021-11-21T10:27:06.055Z</time>
      </trkpt>
      <trkpt lat="49.5735" lon="-1.71273">
        <ele>84.627436</ele>
        <time>2021-11-21T10:27:08.762Z</time>
      </trkpt>
      <trkpt lat="49.57339" lon="-1.71278">
        <ele>83.909796</ele>
        <time>2021-11-21T10:27:10.069Z</time>
      </trkpt>
      <trkpt lat="49.57327" lon="-1.71282">
        <ele>83.074163</ele>
        <time>2021-11-21T10:27:12.057Z</time>
      </trkpt>
      <trkpt lat="49.57316" lon="-1.71284">
        <ele>83.137712</ele>
        <time>2021-11-21T10:27:14.067Z</time>
      </trkpt>
      <trkpt lat="49.57303" lon="-1.71286">
        <ele>83.260822</ele>
        <time>2021-11-21T10:27:16.067Z</time>
      </trkpt>
      <trkpt lat="49.57284" lon="-1.71284">
        <ele>83.434564</ele>
        <time>2021-11-21T10:27:19.064Z</time>
      </trkpt>
      <trkpt lat="49.57267" lon="-1.71283">
        <ele>83.599609</ele>
        <time>2021-11-21T10:27:22.058Z</time>
      </trkpt>
      <trkpt lat="49.57251" lon="-1.71282">
        <ele>83.749523</ele>
        <time>2021-11-21T10:27:24.056Z</time>
      </trkpt>
      <trkpt lat="49.57235" lon="-1.71282">
        <ele>83.892881</ele>
        <time>2021-11-21T10:27:26.053Z</time>
      </trkpt>
      <trkpt lat="49.57221" lon="-1.71281">
        <ele>84.025144</ele>
        <time>2021-11-21T10:27:28.056Z</time>
      </trkpt>
      <trkpt lat="49.5721" lon="-1.71278">
        <ele>84.132007</ele>
        <time>2021-11-21T10:27:30.042Z</time>
      </trkpt>
      <trkpt lat="49.572" lon="-1.71274">
        <ele>84.228641</ele>
        <time>2021-11-21T10:27:32.059Z</time>
      </trkpt>
      <trkpt lat="49.57189" lon="-1.71272">
        <ele>84.333733</ele>
        <time>2021-11-21T10:27:35.003Z</time>
      </trkpt>
      <trkpt lat="49.57176" lon="-1.71258">
        <ele>84.482022</ele>
        <time>2021-11-21T10:27:38.043Z</time>
      </trkpt>
      <trkpt lat="49.57167" lon="-1.7125">
        <ele>84.578836</ele>
        <time>2021-11-21T10:27:40.978Z</time>
      </trkpt>
      <trkpt lat="49.57159" lon="-1.71267">
        <ele>84.711538</ele>
        <time>2021-11-21T10:27:46.068Z</time>
      </trkpt>
      <trkpt lat="49.57153" lon="-1.71286">
        <ele>85.145087</ele>
        <time>2021-11-21T10:27:48.047Z</time>
      </trkpt>
      <trkpt lat="49.57142" lon="-1.713">
        <ele>85.648641</ele>
        <time>2021-11-21T10:27:50.061Z</time>
      </trkpt>
      <trkpt lat="49.57131" lon="-1.71311">
        <ele>86.096776</ele>
        <time>2021-11-21T10:27:52.065Z</time>
      </trkpt>
      <trkpt lat="49.5712" lon="-1.71321">
        <ele>86.541329</ele>
        <time>2021-11-21T10:27:54.060Z</time>
      </trkpt>
      <trkpt lat="49.57109" lon="-1.71329">
        <ele>86.979266</ele>
        <time>2021-11-21T10:27:56.054Z</time>
      </trkpt>
      <trkpt lat="49.57099" lon="-1.71337">
        <ele>87.3684</ele>
        <time>2021-11-21T10:27:58.052Z</time>
      </trkpt>
      <trkpt lat="49.5709" lon="-1.71345">
        <ele>87.721771</ele>
        <time>2021-11-21T10:28:00.055Z</time>
      </trkpt>
      <trkpt lat="49.57082" lon="-1.71353">
        <ele>88.04055</ele>
        <time>2021-11-21T10:28:02.059Z</time>
      </trkpt>
      <trkpt lat="49.57076" lon="-1.71362">
        <ele>88.353895</ele>
        <time>2021-11-21T10:28:04.056Z</time>
      </trkpt>
      <trkpt lat="49.5707" lon="-1.71373">
        <ele>88.680664</ele>
        <time>2021-11-21T10:28:06.065Z</time>
      </trkpt>
      <trkpt lat="49.57064" lon="-1.71386">
        <ele>89.042753</ele>
        <time>2021-11-21T10:28:08.049Z</time>
      </trkpt>
      <trkpt lat="49.57058" lon="-1.71401">
        <ele>89.429615</ele>
        <time>2021-11-21T10:28:10.050Z</time>
      </trkpt>
      <trkpt lat="49.57053" lon="-1.71415">
        <ele>89.795442</ele>
        <time>2021-11-21T10:28:12.065Z</time>
      </trkpt>
      <trkpt lat="49.57049" lon="-1.71431">
        <ele>90.176796</ele>
        <time>2021-11-21T10:28:14.054Z</time>
      </trkpt>
      <trkpt lat="49.57045" lon="-1.71446">
        <ele>90.539566</ele>
        <time>2021-11-21T10:28:16.053Z</time>
      </trkpt>
      <trkpt lat="49.57041" lon="-1.7146">
        <ele>90.890777</ele>
        <time>2021-11-21T10:28:18.060Z</time>
      </trkpt>
      <trkpt lat="49.57039" lon="-1.71476">
        <ele>90.910068</ele>
        <time>2021-11-21T10:28:20.057Z</time>
      </trkpt>
      <trkpt lat="49.57039" lon="-1.71492">
        <ele>90.806025</ele>
        <time>2021-11-21T10:28:22.059Z</time>
      </trkpt>
      <trkpt lat="49.57041" lon="-1.71508">
        <ele>90.698014</ele>
        <time>2021-11-21T10:28:24.037Z</time>
      </trkpt>
      <trkpt lat="49.57043" lon="-1.71524">
        <ele>90.594905</ele>
        <time>2021-11-21T10:28:26.060Z</time>
      </trkpt>
      <trkpt lat="49.5704" lon="-1.7154">
        <ele>90.491813</ele>
        <time>2021-11-21T10:28:28.049Z</time>
      </trkpt>
      <trkpt lat="49.57035" lon="-1.71554">
        <ele>90.390248</ele>
        <time>2021-11-21T10:28:30.058Z</time>
      </trkpt>
      <trkpt lat="49.57029" lon="-1.71566">
        <ele>90.291627</ele>
        <time>2021-11-21T10:28:32.060Z</time>
      </trkpt>
      <trkpt lat="49.57023" lon="-1.71578">
        <ele>90.197832</ele>
        <time>2021-11-21T10:28:34.048Z</time>
      </trkpt>
      <trkpt lat="49.57017" lon="-1.71589">
        <ele>90.10463</ele>
        <time>2021-11-21T10:28:36.056Z</time>
      </trkpt>
      <trkpt lat="49.57011" lon="-1.716">
        <ele>90.012596</ele>
        <time>2021-11-21T10:28:38.057Z</time>
      </trkpt>
      <trkpt lat="49.57006" lon="-1.71612">
        <ele>89.922017</ele>
        <time>2021-11-21T10:28:40.060Z</time>
      </trkpt>
      <trkpt lat="49.57" lon="-1.71623">
        <ele>89.827715</ele>
        <time>2021-11-21T10:28:42.067Z</time>
      </trkpt>
      <trkpt lat="49.56993" lon="-1.71635">
        <ele>89.729908</ele>
        <time>2021-11-21T10:28:44.045Z</time>
      </trkpt>
      <trkpt lat="49.56987" lon="-1.71648">
        <ele>89.625009</ele>
        <time>2021-11-21T10:28:46.058Z</time>
      </trkpt>
      <trkpt lat="49.56988" lon="-1.71666">
        <ele>89.513843</ele>
        <time>2021-11-21T10:28:48.056Z</time>
      </trkpt>
      <trkpt lat="49.56998" lon="-1.71677">
        <ele>89.393205</ele>
        <time>2021-11-21T10:28:50.058Z</time>
      </trkpt>
      <trkpt lat="49.5701" lon="-1.71679">
        <ele>89.278343</ele>
        <time>2021-11-21T10:28:52.056Z</time>
      </trkpt>
      <trkpt lat="49.5702" lon="-1.71678">
        <ele>89.193923</ele>
        <time>2021-11-21T10:28:54.053Z</time>
      </trkpt>
      <trkpt lat="49.5703" lon="-1.71678">
        <ele>89.140249</ele>
        <time>2021-11-21T10:28:56.057Z</time>
      </trkpt>
      <trkpt lat="49.57037" lon="-1.71687">
        <ele>89.089059</ele>
        <time>2021-11-21T10:28:58.051Z</time>
      </trkpt>
      <trkpt lat="49.57039" lon="-1.71703">
        <ele>89.031883</ele>
        <time>2021-11-21T10:29:00.051Z</time>
      </trkpt>
      <trkpt lat="49.5704" lon="-1.71718">
        <ele>88.976428</ele>
        <time>2021-11-21T10:29:02.055Z</time>
      </trkpt>
      <trkpt lat="49.57042" lon="-1.71734">
        <ele>88.915923</ele>
        <time>2021-11-21T10:29:04.044Z</time>
      </trkpt>
      <trkpt lat="49.57046" lon="-1.71752">
        <ele>88.849997</ele>
        <time>2021-11-21T10:29:06.058Z</time>
      </trkpt>
      <trkpt lat="49.5705" lon="-1.71766">
        <ele>88.793017</ele>
        <time>2021-11-21T10:29:08.056Z</time>
      </trkpt>
      <trkpt lat="49.57057" lon="-1.71778">
        <ele>88.735238</ele>
        <time>2021-11-21T10:29:10.052Z</time>
      </trkpt>
      <trkpt lat="49.57066" lon="-1.71793">
        <ele>88.658516</ele>
        <time>2021-11-21T10:29:13.057Z</time>
      </trkpt>
      <trkpt lat="49.57073" lon="-1.71804">
        <ele>88.60145</ele>
        <time>2021-11-21T10:29:15.065Z</time>
      </trkpt>
      <trkpt lat="49.5708" lon="-1.71815">
        <ele>88.546087</ele>
        <time>2021-11-21T10:29:17.061Z</time>
      </trkpt>
      <trkpt lat="49.57087" lon="-1.71828">
        <ele>88.486479</ele>
        <time>2021-11-21T10:29:19.043Z</time>
      </trkpt>
      <trkpt lat="49.57092" lon="-1.7184">
        <ele>88.434448</ele>
        <time>2021-11-21T10:29:21.062Z</time>
      </trkpt>
      <trkpt lat="49.57099" lon="-1.71855">
        <ele>88.369939</ele>
        <time>2021-11-21T10:29:23.716Z</time>
      </trkpt>
      <trkpt lat="49.57106" lon="-1.71864">
        <ele>88.317194</ele>
        <time>2021-11-21T10:29:25.737Z</time>
      </trkpt>
      <trkpt lat="49.57117" lon="-1.71873">
        <ele>88.244745</ele>
        <time>2021-11-21T10:29:28.792Z</time>
      </trkpt>
      <trkpt lat="49.57125" lon="-1.71885">
        <ele>88.533781</ele>
        <time>2021-11-21T10:29:30.050Z</time>
      </trkpt>
      <trkpt lat="49.57134" lon="-1.71894">
        <ele>89.20343</ele>
        <time>2021-11-21T10:29:33.479Z</time>
      </trkpt>
      <trkpt lat="49.57141" lon="-1.71907">
        <ele>89.915124</ele>
        <time>2021-11-21T10:29:35.392Z</time>
      </trkpt>
      <trkpt lat="49.57148" lon="-1.7192">
        <ele>90.607477</ele>
        <time>2021-11-21T10:29:37.694Z</time>
      </trkpt>
      <trkpt lat="49.57155" lon="-1.71933">
        <ele>91.291291</ele>
        <time>2021-11-21T10:29:39.635Z</time>
      </trkpt>
      <trkpt lat="49.57162" lon="-1.71944">
        <ele>91.941811</ele>
        <time>2021-11-21T10:29:42.064Z</time>
      </trkpt>
      <trkpt lat="49.57171" lon="-1.7194">
        <ele>92.546808</ele>
        <time>2021-11-21T10:29:46.067Z</time>
      </trkpt>
      <trkpt lat="49.57179" lon="-1.7193">
        <ele>93.194145</ele>
        <time>2021-11-21T10:29:49.055Z</time>
      </trkpt>
      <trkpt lat="49.57186" lon="-1.7192">
        <ele>93.796625</ele>
        <time>2021-11-21T10:29:52.061Z</time>
      </trkpt>
      <trkpt lat="49.57193" lon="-1.71909">
        <ele>94.418446</ele>
        <time>2021-11-21T10:29:55.017Z</time>
      </trkpt>
      <trkpt lat="49.57201" lon="-1.71894">
        <ele>95.229815</ele>
        <time>2021-11-21T10:29:58.919Z</time>
      </trkpt>
      <trkpt lat="49.57206" lon="-1.71881">
        <ele>95.869016</ele>
        <time>2021-11-21T10:30:02.063Z</time>
      </trkpt>
      <trkpt lat="49.57215" lon="-1.71872">
        <ele>96.528808</ele>
        <time>2021-11-21T10:30:05.760Z</time>
      </trkpt>
      <trkpt lat="49.57218" lon="-1.71867">
        <ele>96.833425</ele>
        <time>2021-11-21T10:30:08.266Z</time>
      </trkpt>
      <trkpt lat="49.57229" lon="-1.71841">
        <ele>98.116156</ele>
        <time>2021-11-21T10:48:22.059Z</time>
      </trkpt>
      <trkpt lat="49.57237" lon="-1.71831">
        <ele>98.786203</ele>
        <time>2021-11-21T10:48:26.062Z</time>
      </trkpt>
      <trkpt lat="49.57243" lon="-1.71814">
        <ele>99.577232</ele>
        <time>2021-11-21T10:48:28.074Z</time>
      </trkpt>
      <trkpt lat="49.57253" lon="-1.71793">
        <ele>100.210141</ele>
        <time>2021-11-21T10:48:31.074Z</time>
      </trkpt>
      <trkpt lat="49.5726" lon="-1.71777">
        <ele>100.610964</ele>
        <time>2021-11-21T10:48:33.075Z</time>
      </trkpt>
      <trkpt lat="49.57266" lon="-1.71764">
        <ele>100.956086</ele>
        <time>2021-11-21T10:48:35.068Z</time>
      </trkpt>
      <trkpt lat="49.57271" lon="-1.71753">
        <ele>101.258405</ele>
        <time>2021-11-21T10:48:37.073Z</time>
      </trkpt>
      <trkpt lat="49.57279" lon="-1.71739">
        <ele>101.644939</ele>
        <time>2021-11-21T10:48:40.978Z</time>
      </trkpt>
      <trkpt lat="49.57282" lon="-1.71723">
        <ele>102.019913</ele>
        <time>2021-11-21T10:48:44.077Z</time>
      </trkpt>
      <trkpt lat="49.57292" lon="-1.7172">
        <ele>102.347788</ele>
        <time>2021-11-21T10:48:48.062Z</time>
      </trkpt>
      <trkpt lat="49.57303" lon="-1.71722">
        <ele>102.726016</ele>
        <time>2021-11-21T10:48:50.057Z</time>
      </trkpt>
      <trkpt lat="49.57314" lon="-1.71726">
        <ele>103.085975</ele>
        <time>2021-11-21T10:48:52.069Z</time>
      </trkpt>
      <trkpt lat="49.57323" lon="-1.71732">
        <ele>103.427336</ele>
        <time>2021-11-21T10:48:54.083Z</time>
      </trkpt>
      <trkpt lat="49.57332" lon="-1.71738">
        <ele>103.742362</ele>
        <time>2021-11-21T10:48:56.079Z</time>
      </trkpt>
      <trkpt lat="49.57341" lon="-1.71748">
        <ele>104.098488</ele>
        <time>2021-11-21T10:49:00.058Z</time>
      </trkpt>
      <trkpt lat="49.57349" lon="-1.7176">
        <ele>104.48918</ele>
        <time>2021-11-21T10:49:13.065Z</time>
      </trkpt>
      <trkpt lat="49.5736" lon="-1.71772">
        <ele>104.928973</ele>
        <time>2021-11-21T10:49:16.072Z</time>
      </trkpt>
      <trkpt lat="49.57372" lon="-1.71789">
        <ele>105.474608</ele>
        <time>2021-11-21T10:49:19.074Z</time>
      </trkpt>
      <trkpt lat="49.57381" lon="-1.718">
        <ele>105.71308</ele>
        <time>2021-11-21T10:49:21.076Z</time>
      </trkpt>
      <trkpt lat="49.5739" lon="-1.71812">
        <ele>105.81817</ele>
        <time>2021-11-21T10:49:23.066Z</time>
      </trkpt>
      <trkpt lat="49.574" lon="-1.71823">
        <ele>105.927124</ele>
        <time>2021-11-21T10:49:25.065Z</time>
      </trkpt>
      <trkpt lat="49.57409" lon="-1.71834">
        <ele>106.030046</ele>
        <time>2021-11-21T10:49:27.067Z</time>
      </trkpt>
      <trkpt lat="49.57418" lon="-1.71846">
        <ele>106.13383</ele>
        <time>2021-11-21T10:49:29.075Z</time>
      </trkpt>
      <trkpt lat="49.57426" lon="-1.71858">
        <ele>106.239528</ele>
        <time>2021-11-21T10:49:31.062Z</time>
      </trkpt>
      <trkpt lat="49.57435" lon="-1.7187">
        <ele>106.342707</ele>
        <time>2021-11-21T10:49:33.070Z</time>
      </trkpt>
      <trkpt lat="49.57442" lon="-1.71884">
        <ele>106.446428</ele>
        <time>2021-11-21T10:49:35.080Z</time>
      </trkpt>
      <trkpt lat="49.57449" lon="-1.71898">
        <ele>106.550835</ele>
        <time>2021-11-21T10:49:37.061Z</time>
      </trkpt>
      <trkpt lat="49.57456" lon="-1.71913">
        <ele>106.65637</ele>
        <time>2021-11-21T10:49:39.061Z</time>
      </trkpt>
      <trkpt lat="49.57463" lon="-1.71928">
        <ele>106.762853</ele>
        <time>2021-11-21T10:49:41.063Z</time>
      </trkpt>
      <trkpt lat="49.57469" lon="-1.71942">
        <ele>106.86317</ele>
        <time>2021-11-21T10:49:43.071Z</time>
      </trkpt>
      <trkpt lat="49.57477" lon="-1.71953">
        <ele>106.953066</ele>
        <time>2021-11-21T10:49:45.054Z</time>
      </trkpt>
      <trkpt lat="49.57486" lon="-1.71965">
        <ele>107.057098</ele>
        <time>2021-11-21T10:49:47.067Z</time>
      </trkpt>
      <trkpt lat="49.57496" lon="-1.71973">
        <ele>107.165667</ele>
        <time>2021-11-21T10:49:49.062Z</time>
      </trkpt>
      <trkpt lat="49.57506" lon="-1.7198">
        <ele>107.25687</ele>
        <time>2021-11-21T10:49:51.078Z</time>
      </trkpt>
      <trkpt lat="49.57513" lon="-1.71989">
        <ele>107.298184</ele>
        <time>2021-11-21T10:49:54.076Z</time>
      </trkpt>
      <trkpt lat="49.57511" lon="-1.72003">
        <ele>107.329268</ele>
        <time>2021-11-21T10:49:56.085Z</time>
      </trkpt>
      <trkpt lat="49.57505" lon="-1.72021">
        <ele>107.373484</ele>
        <time>2021-11-21T10:49:58.071Z</time>
      </trkpt>
      <trkpt lat="49.57499" lon="-1.7204">
        <ele>107.419106</ele>
        <time>2021-11-21T10:50:00.076Z</time>
      </trkpt>
      <trkpt lat="49.57494" lon="-1.72058">
        <ele>107.462066</ele>
        <time>2021-11-21T10:50:02.074Z</time>
      </trkpt>
      <trkpt lat="49.57489" lon="-1.72075">
        <ele>107.503313</ele>
        <time>2021-11-21T10:50:04.060Z</time>
      </trkpt>
      <trkpt lat="49.57484" lon="-1.72093">
        <ele>107.544547</ele>
        <time>2021-11-21T10:50:06.059Z</time>
      </trkpt>
      <trkpt lat="49.57479" lon="-1.72111">
        <ele>107.586642</ele>
        <time>2021-11-21T10:50:08.091Z</time>
      </trkpt>
      <trkpt lat="49.57473" lon="-1.72128">
        <ele>107.628086</ele>
        <time>2021-11-21T10:50:10.074Z</time>
      </trkpt>
      <trkpt lat="49.57469" lon="-1.72145">
        <ele>107.668733</ele>
        <time>2021-11-21T10:50:12.057Z</time>
      </trkpt>
      <trkpt lat="49.57464" lon="-1.72163">
        <ele>107.710964</ele>
        <time>2021-11-21T10:50:14.078Z</time>
      </trkpt>
      <trkpt lat="49.57459" lon="-1.72181">
        <ele>107.753124</ele>
        <time>2021-11-21T10:50:16.081Z</time>
      </trkpt>
      <trkpt lat="49.57454" lon="-1.72199">
        <ele>107.795025</ele>
        <time>2021-11-21T10:50:18.080Z</time>
      </trkpt>
      <trkpt lat="49.57449" lon="-1.72217">
        <ele>107.836676</ele>
        <time>2021-11-21T10:50:20.079Z</time>
      </trkpt>
      <trkpt lat="49.57445" lon="-1.72234">
        <ele>107.884477</ele>
        <time>2021-11-21T10:50:22.078Z</time>
      </trkpt>
      <trkpt lat="49.57441" lon="-1.72251">
        <ele>107.965895</ele>
        <time>2021-11-21T10:50:24.070Z</time>
      </trkpt>
      <trkpt lat="49.57438" lon="-1.72265">
        <ele>108.037578</ele>
        <time>2021-11-21T10:50:26.084Z</time>
      </trkpt>
      <trkpt lat="49.57434" lon="-1.72278">
        <ele>108.10245</ele>
        <time>2021-11-21T10:50:28.094Z</time>
      </trkpt>
      <trkpt lat="49.5743" lon="-1.72297">
        <ele>108.194354</ele>
        <time>2021-11-21T10:50:31.073Z</time>
      </trkpt>
      <trkpt lat="49.57426" lon="-1.72313">
        <ele>108.277753</ele>
        <time>2021-11-21T10:50:33.050Z</time>
      </trkpt>
      <trkpt lat="49.5742" lon="-1.72329">
        <ele>108.364396</ele>
        <time>2021-11-21T10:50:35.070Z</time>
      </trkpt>
      <trkpt lat="49.57414" lon="-1.72343">
        <ele>108.445071</ele>
        <time>2021-11-21T10:50:37.071Z</time>
      </trkpt>
      <trkpt lat="49.57408" lon="-1.72355">
        <ele>108.512465</ele>
        <time>2021-11-21T10:50:39.084Z</time>
      </trkpt>
      <trkpt lat="49.57402" lon="-1.72369">
        <ele>108.592346</ele>
        <time>2021-11-21T10:50:41.078Z</time>
      </trkpt>
      <trkpt lat="49.57396" lon="-1.72387">
        <ele>108.686164</ele>
        <time>2021-11-21T10:50:43.071Z</time>
      </trkpt>
      <trkpt lat="49.57389" lon="-1.72405">
        <ele>108.784599</ele>
        <time>2021-11-21T10:50:45.067Z</time>
      </trkpt>
      <trkpt lat="49.57382" lon="-1.72421">
        <ele>108.876681</ele>
        <time>2021-11-21T10:50:47.079Z</time>
      </trkpt>
      <trkpt lat="49.57374" lon="-1.7243">
        <ele>108.948847</ele>
        <time>2021-11-21T10:50:49.068Z</time>
      </trkpt>
      <trkpt lat="49.57363" lon="-1.72439">
        <ele>109.037632</ele>
        <time>2021-11-21T10:50:51.062Z</time>
      </trkpt>
      <trkpt lat="49.57352" lon="-1.72448">
        <ele>109.130118</ele>
        <time>2021-11-21T10:50:53.068Z</time>
      </trkpt>
      <trkpt lat="49.57342" lon="-1.72455">
        <ele>109.19962</ele>
        <time>2021-11-21T10:50:55.071Z</time>
      </trkpt>
      <trkpt lat="49.57332" lon="-1.72462">
        <ele>109.263797</ele>
        <time>2021-11-21T10:50:57.068Z</time>
      </trkpt>
      <trkpt lat="49.57319" lon="-1.72469">
        <ele>109.337947</ele>
        <time>2021-11-21T10:50:59.068Z</time>
      </trkpt>
      <trkpt lat="49.57307" lon="-1.72475">
        <ele>109.411684</ele>
        <time>2021-11-21T10:51:01.056Z</time>
      </trkpt>
      <trkpt lat="49.57293" lon="-1.72481">
        <ele>109.492469</ele>
        <time>2021-11-21T10:51:03.062Z</time>
      </trkpt>
      <trkpt lat="49.57275" lon="-1.72489">
        <ele>109.59765</ele>
        <time>2021-11-21T10:51:06.077Z</time>
      </trkpt>
      <trkpt lat="49.57262" lon="-1.72493">
        <ele>109.674712</ele>
        <time>2021-11-21T10:51:08.071Z</time>
      </trkpt>
      <trkpt lat="49.5725" lon="-1.72497">
        <ele>109.746482</ele>
        <time>2021-11-21T10:51:10.074Z</time>
      </trkpt>
      <trkpt lat="49.57236" lon="-1.72501">
        <ele>109.824988</ele>
        <time>2021-11-21T10:51:12.072Z</time>
      </trkpt>
      <trkpt lat="49.57223" lon="-1.72503">
        <ele>109.899039</ele>
        <time>2021-11-21T10:51:14.075Z</time>
      </trkpt>
      <trkpt lat="49.57212" lon="-1.72506">
        <ele>109.963099</ele>
        <time>2021-11-21T10:51:16.072Z</time>
      </trkpt>
      <trkpt lat="49.57202" lon="-1.72507">
        <ele>110.021053</ele>
        <time>2021-11-21T10:51:18.683Z</time>
      </trkpt>
      <trkpt lat="49.57192" lon="-1.7251">
        <ele>110.077327</ele>
        <time>2021-11-21T10:51:20.858Z</time>
      </trkpt>
      <trkpt lat="49.57179" lon="-1.72512">
        <ele>110.149499</ele>
        <time>2021-11-21T10:51:23.810Z</time>
      </trkpt>
      <trkpt lat="49.57168" lon="-1.72516">
        <ele>110.190556</ele>
        <time>2021-11-21T10:51:25.973Z</time>
      </trkpt>
      <trkpt lat="49.57157" lon="-1.7252">
        <ele>110.190556</ele>
        <time>2021-11-21T10:51:28.078Z</time>
      </trkpt>
      <trkpt lat="49.57147" lon="-1.72524">
        <ele>110.190556</ele>
        <time>2021-11-21T10:51:30.062Z</time>
      </trkpt>
      <trkpt lat="49.57133" lon="-1.72528">
        <ele>110.190556</ele>
        <time>2021-11-21T10:51:33.007Z</time>
      </trkpt>
      <trkpt lat="49.57123" lon="-1.72532">
        <ele>110.190556</ele>
        <time>2021-11-21T10:51:35.041Z</time>
      </trkpt>
      <trkpt lat="49.57113" lon="-1.72537">
        <ele>110.190556</ele>
        <time>2021-11-21T10:51:37.072Z</time>
      </trkpt>
      <trkpt lat="49.57099" lon="-1.72542">
        <ele>110.190556</ele>
        <time>2021-11-21T10:51:39.750Z</time>
      </trkpt>
      <trkpt lat="49.57088" lon="-1.72546">
        <ele>110.190556</ele>
        <time>2021-11-21T10:51:41.907Z</time>
      </trkpt>
      <trkpt lat="49.57079" lon="-1.72549">
        <ele>110.190556</ele>
        <time>2021-11-21T10:51:43.092Z</time>
      </trkpt>
      <trkpt lat="49.57068" lon="-1.72551">
        <ele>110.190556</ele>
        <time>2021-11-21T10:51:45.462Z</time>
      </trkpt>
      <trkpt lat="49.57053" lon="-1.72558">
        <ele>110.190556</ele>
        <time>2021-11-21T10:51:48.050Z</time>
      </trkpt>
      <trkpt lat="49.57038" lon="-1.72562">
        <ele>110.190556</ele>
        <time>2021-11-21T10:51:51.086Z</time>
      </trkpt>
      <trkpt lat="49.57028" lon="-1.72569">
        <ele>110.190556</ele>
        <time>2021-11-21T10:51:54.070Z</time>
      </trkpt>
      <trkpt lat="49.57016" lon="-1.72573">
        <ele>110.190556</ele>
        <time>2021-11-21T10:51:57.077Z</time>
      </trkpt>
      <trkpt lat="49.57013" lon="-1.72587">
        <ele>110.190556</ele>
        <time>2021-11-21T10:52:03.096Z</time>
      </trkpt>
      <trkpt lat="49.57006" lon="-1.7258">
        <ele>110.190556</ele>
        <time>2021-11-21T10:52:07.072Z</time>
      </trkpt>
      <trkpt lat="49.56997" lon="-1.72585">
        <ele>110.190556</ele>
        <time>2021-11-21T10:52:09.626Z</time>
      </trkpt>
      <trkpt lat="49.56991" lon="-1.72602">
        <ele>110.190556</ele>
        <time>2021-11-21T10:52:12.715Z</time>
      </trkpt>
      <trkpt lat="49.56985" lon="-1.72622">
        <ele>110.190556</ele>
        <time>2021-11-21T10:52:15.993Z</time>
      </trkpt>
      <trkpt lat="49.56975" lon="-1.72634">
        <ele>110.190556</ele>
        <time>2021-11-21T10:52:19.038Z</time>
      </trkpt>
      <trkpt lat="49.56969" lon="-1.72648">
        <ele>110.190556</ele>
        <time>2021-11-21T10:52:22.841Z</time>
      </trkpt>
      <trkpt lat="49.5697" lon="-1.7265">
        <ele>110.190556</ele>
        <time>2021-11-21T10:52:34.091Z</time>
      </trkpt>
    </trkseg>
  </trk>
</gpx>